[[{"header":{"parameterUnit":"m.s-1","parameterCategory":1,"la1":30.6,"la2":29.2853,"lo1":-89.7004,"lo2":-87.6739,"dx":0.0162,"dy":0.0183,"nx":112,"ny":82,"refTime":"2022-11-29T06:00:00:Z","depth":0,"parameterNumber":2,"parameterNumberName":"U-component_of_WINDS"},"data":[0.0,0.0,0.0,0.0,0.0,0.0,0.0,0.0,0.0,0.0,0.0,0.0,0.0,0.0,0.0,0.0,0.0,0.0,0.0,0.0,0.0,0.0,0.0,0.0,0.0,0.0,0.0,0.0,0.0,0.0,0.0,0.0,0.0,0.0,0.0,0.0,0.0,0.0,0.0,0.0,0.0,0.0,0.0,0.0,0.0,0.0,0.0,0.0,0.0,0.0,0.0,0.0,0.0,0.0,0.0,0.0,0.0,0.0,0.0,0.0,0.0,0.0,0.0,0.0,0.0,0.0,0.0,0.0,0.0,0.0,0.0,0.0,0.0,0.0,0.0,0.0,0.0,0.0,0.0,0.0,0.0,0.0,0.0,0.0,0.0,0.0,0.0,0.0,0.0,0.0,-0.7139,-0.7634,-0.8115,-0.8192,-0.7652,-0.7545,-0.7305,-0.6831,0.0,0.0,0.0,0.0,0.0,0.0,0.0,0.0,0.0,0.0,0.0,0.0,0.0,0.0,0.0,0.0,0.0,0.0,0.0,0.0,0.0,0.0,0.0,0.0,0.0,0.0,0.0,0.0,0.0,0.0,0.0,0.0,0.0,0.0,0.0,0.0,0.0,0.0,0.0,0.0,0.0,0.0,0.0,0.0,0.0,0.0,0.0,0.0,0.0,0.0,0.0,0.0,0.0,0.0,0.0,0.0,0.0,0.0,0.0,0.0,0.0,0.0,0.0,0.0,0.0,0.0,0.0,0.0,0.0,0.0,0.0,0.0,0.0,0.0,0.0,0.0,0.0,0.0,0.0,0.0,0.0,0.0,0.0,0.0,0.0,0.0,0.0,0.0,0.0,0.0,0.0,0.0,0.0,0.0,0.0,0.0,0.0,0.0,0.0,0.0,0.0,0.0,0.0,0.0,-0.7807,-0.845,-0.845,-0.8319,-0.8112,-0.7721,-0.7442,-0.7304,0.0,0.0,0.0,0.0,0.0,0.0,0.0,0.0,0.0,0.0,0.0,0.0,0.0,0.0,0.0,0.0,0.0,0.0,0.0,0.0,0.0,0.0,0.0,0.0,0.0,0.0,0.0,0.0,0.0,0.0,0.0,0.0,0.0,0.0,0.0,0.0,0.0,0.0,0.0,0.0,0.0,0.0,0.0,0.0,0.0,0.0,0.0,0.0,0.0,0.0,0.0,0.0,0.0,0.0,0.0,0.0,0.0,0.0,0.0,0.0,0.0,0.0,0.0,0.0,0.0,0.0,0.0,0.0,0.0,0.0,0.0,0.0,0.0,0.0,0.0,0.0,0.0,0.0,0.0,0.0,0.0,0.0,0.0,0.0,0.0,0.0,0.0,0.0,0.0,0.0,0.0,0.0,0.0,0.0,0.0,0.0,0.0,0.0,0.0,0.0,0.0,0.0,0.0,-0.7714,-0.7958,-0.8774,-0.8519,-0.8333,-0.8404,-0.8088,-0.7697,-0.7265,-0.6844,0.0,0.0,0.0,0.0,0.0,0.0,0.0,0.0,0.0,0.0,0.0,0.0,0.0,0.0,0.0,0.0,0.0,0.0,0.0,0.0,0.0,0.0,0.0,0.0,0.0,0.0,0.0,0.0,0.0,0.0,0.0,0.0,0.0,0.0,0.0,0.0,0.0,0.0,0.0,0.0,0.0,0.0,0.0,0.0,0.0,0.0,0.0,0.0,0.0,0.0,0.0,0.0,0.0,0.0,0.0,0.0,0.0,0.0,0.0,0.0,0.0,0.0,0.0,0.0,0.0,0.0,0.0,0.0,0.0,0.0,0.0,0.0,0.0,0.0,0.0,0.0,0.0,0.0,0.0,0.0,0.0,0.0,0.0,0.0,0.0,0.0,0.0,0.0,0.0,0.0,0.0,0.0,0.0,0.0,0.0,0.0,0.0,0.0,0.0,0.0,0.0,0.0,-0.7949,-0.8404,-0.9029,-0.8833,-0.8662,-0.866,-0.8473,-0.8056,-0.732,-0.697,0.0,0.0,0.0,0.0,0.0,0.0,0.0,0.0,0.0,0.0,0.0,0.0,0.0,0.0,0.0,0.0,0.0,0.0,0.0,0.0,0.0,0.0,0.0,0.0,0.0,0.0,0.0,0.0,0.0,0.0,0.0,0.0,0.0,0.0,0.0,0.0,0.0,0.0,0.0,0.0,0.0,0.0,0.0,0.0,0.0,0.0,0.0,0.0,0.0,0.0,0.0,0.0,0.0,0.0,0.0,0.0,0.0,0.0,0.0,0.0,0.0,0.0,0.0,0.0,0.0,0.0,0.0,0.0,0.0,0.0,0.0,0.0,0.0,0.0,0.0,0.0,0.0,0.0,0.0,0.0,0.0,0.0,0.0,0.0,0.0,0.0,0.0,0.0,0.0,0.0,0.0,0.0,0.0,0.0,0.0,0.0,0.0,0.0,0.0,0.0,0.0,0.0,-0.883,-0.9709,-0.9403,-0.9728,-0.9674,-0.8937,-0.8859,-0.8538,-0.7803,-0.7159,0.0,0.0,0.0,0.0,0.0,0.0,0.0,0.0,0.0,0.0,0.0,0.0,0.0,0.0,0.0,0.0,0.0,0.0,0.0,0.0,0.0,0.0,0.0,0.0,0.0,0.0,0.0,0.0,0.0,0.0,0.0,0.0,0.0,0.0,0.0,0.0,0.0,0.0,0.0,0.0,0.0,0.0,0.0,0.0,0.0,0.0,0.0,0.0,0.0,0.0,0.0,0.0,0.0,0.0,0.0,0.0,0.0,0.0,0.0,0.0,0.0,0.0,0.0,0.0,0.0,0.0,0.0,0.0,0.0,0.0,0.0,0.0,0.0,0.0,0.0,0.0,0.0,0.0,0.0,0.0,0.0,0.0,0.0,0.0,0.0,0.0,0.0,0.0,0.0,0.0,0.0,0.0,0.0,0.0,0.0,0.0,0.0,0.0,0.0,0.0,0.0,0.0,-0.915,-0.9974,-0.9907,-1.0024,-0.9961,-0.9611,-0.9161,-0.8656,-0.808,0.0,0.0,0.0,0.0,0.0,0.0,0.0,0.0,0.0,0.0,0.0,0.0,0.0,0.0,0.0,0.0,0.0,0.0,0.0,0.0,0.0,0.0,0.0,0.0,0.0,0.0,0.0,0.0,0.0,0.0,0.0,0.0,0.0,0.0,0.0,0.0,0.0,0.0,0.0,0.0,0.0,0.0,0.0,0.0,0.0,0.0,0.0,0.0,0.0,0.0,0.0,0.0,0.0,0.0,0.0,0.0,0.0,0.0,0.0,0.0,0.0,0.0,0.0,0.0,0.0,0.0,0.0,0.0,0.0,0.0,0.0,0.0,0.0,0.0,0.0,0.0,0.0,0.0,0.0,0.0,0.0,0.0,0.0,0.0,0.0,0.0,0.0,0.0,0.0,0.0,0.0,0.0,0.0,0.0,0.0,0.0,0.0,0.0,0.0,0.0,0.0,0.0,-0.849,-0.9745,-1.0653,-1.0822,-1.0915,-1.0831,-1.0498,-0.988,-0.9286,-0.8775,0.0,0.0,0.0,0.0,0.0,0.0,0.0,0.0,0.0,0.0,0.0,0.0,0.0,0.0,0.0,0.0,0.0,0.0,0.0,0.0,0.0,0.0,0.0,0.0,0.0,0.0,0.0,0.0,0.0,0.0,0.0,0.0,0.0,0.0,0.0,0.0,0.0,0.0,0.0,0.0,0.0,0.0,0.0,0.0,0.0,0.0,0.0,0.0,0.0,0.0,0.0,0.0,0.0,0.0,0.0,0.0,0.0,0.0,0.0,0.0,0.0,0.0,0.0,0.0,0.0,0.0,0.0,0.0,0.0,0.0,0.0,0.0,0.0,0.0,0.0,0.0,0.0,0.0,0.0,0.0,0.0,0.0,0.0,0.0,0.0,0.0,0.0,0.0,0.0,0.0,0.0,0.0,0.0,0.0,0.0,0.0,0.0,0.0,0.0,0.0,0.0,0.0,-0.8989,-1.071,-1.1974,-1.2171,-1.256,-1.2445,-1.1591,-1.1075,-1.0543,0.0,0.0,0.0,0.0,0.0,0.0,0.0,0.0,0.0,0.0,0.0,0.0,0.0,0.0,0.0,0.0,0.0,0.0,0.0,0.0,0.0,0.0,0.0,0.0,0.0,0.0,0.0,0.0,0.0,0.0,0.0,0.0,0.0,0.0,0.0,0.0,0.0,0.0,0.0,0.0,0.0,0.0,0.0,0.0,0.0,0.0,0.0,0.0,0.0,0.0,0.0,0.0,0.0,0.0,0.0,0.0,0.0,0.0,0.0,0.0,0.0,0.0,0.0,0.0,0.0,0.0,0.0,0.0,0.0,0.0,0.0,0.0,0.0,0.0,0.0,0.0,0.0,0.0,0.0,0.0,0.0,0.0,0.0,0.0,0.0,0.0,0.0,0.0,0.0,0.0,0.0,0.0,0.0,0.0,0.0,0.0,0.0,0.0,0.0,0.0,0.0,0.0,0.0,-0.979,-1.1423,-1.2433,-1.2156,-1.2406,-1.2366,-1.183,-1.1177,-1.0518,-0.9868,0.0,0.0,0.0,0.0,0.0,0.0,0.0,0.0,0.0,0.0,0.0,0.0,0.0,0.0,0.0,0.0,0.0,0.0,0.0,0.0,0.0,0.0,0.0,0.0,0.0,0.0,0.0,0.0,0.0,0.0,0.0,0.0,0.0,0.0,0.0,0.0,0.0,0.0,0.0,0.0,0.0,0.0,0.0,0.0,0.0,0.0,0.0,0.0,0.0,0.0,0.0,0.0,0.0,0.0,0.0,0.0,0.0,0.0,0.0,0.0,0.0,0.0,0.0,0.0,0.0,0.0,0.0,0.0,0.0,0.0,0.0,0.0,0.0,0.0,0.0,0.0,0.0,0.0,0.0,0.0,0.0,0.0,0.0,0.0,0.0,0.0,0.0,0.0,0.0,0.0,0.0,0.0,0.0,0.0,0.0,0.0,0.0,0.0,0.0,0.0,0.0,0.0,-1.0483,-1.1882,-1.2829,-1.2787,-1.2871,-1.2831,-1.2555,-1.199,-1.1417,-1.0862,0.0,0.0,0.0,0.0,0.0,0.0,0.0,0.0,0.0,0.0,0.0,0.0,0.0,0.0,0.0,0.0,0.0,0.0,0.0,0.0,0.0,0.0,0.0,0.0,0.0,0.0,0.0,0.0,0.0,0.0,0.0,0.0,0.0,0.0,0.0,0.0,0.0,0.0,0.0,0.0,0.0,0.0,0.0,0.0,0.0,0.0,0.0,0.0,0.0,0.0,0.0,0.0,0.0,0.0,0.0,0.0,0.0,0.0,0.0,0.0,0.0,0.0,0.0,0.0,0.0,0.0,0.0,0.0,0.0,0.0,0.0,0.0,0.0,0.0,0.0,0.0,0.0,0.0,0.0,0.0,0.0,0.0,0.0,0.0,0.0,0.0,0.0,0.0,0.0,0.0,0.0,0.0,0.0,0.0,0.0,0.0,0.0,0.0,0.0,0.0,0.0,0.0,-1.1197,-1.2337,-1.33,-1.3817,-1.3791,-1.3702,-1.3651,-1.3231,-1.2832,-1.2468,0.0,0.0,0.0,0.0,0.0,0.0,0.0,0.0,0.0,0.0,0.0,0.0,0.0,0.0,0.0,0.0,0.0,0.0,0.0,0.0,0.0,0.0,0.0,0.0,0.0,0.0,0.0,0.0,0.0,0.0,0.0,0.0,0.0,0.0,0.0,0.0,0.0,0.0,0.0,0.0,0.0,0.0,0.0,0.0,0.0,0.0,0.0,0.0,0.0,0.0,0.0,0.0,0.0,0.0,0.0,0.0,0.0,0.0,0.0,0.0,-0.9006,0.0,0.0,0.0,0.0,0.0,0.0,0.0,0.0,0.0,0.0,0.0,0.0,0.0,0.0,0.0,0.0,0.0,0.0,0.0,0.0,0.0,0.0,0.0,0.0,0.0,0.0,0.0,0.0,0.0,0.0,0.0,0.0,0.0,0.0,0.0,0.0,0.0,0.0,0.0,0.0,0.0,-1.2419,-1.3757,-1.458,-1.4437,-1.464,-1.4763,-1.4763,-1.4044,-1.336,-1.2754,-1.2177,0.0,0.0,0.0,0.0,0.0,0.0,0.0,0.0,0.0,0.0,0.0,0.0,0.0,0.0,0.0,0.0,0.0,0.0,0.0,0.0,0.0,0.0,0.0,0.0,0.0,0.0,0.0,0.0,0.0,0.0,0.0,0.0,0.0,0.0,0.0,0.0,0.0,0.0,0.0,0.0,0.0,0.0,0.0,0.0,0.0,0.0,0.0,0.0,0.0,0.0,0.0,0.0,0.0,0.0,0.0,0.0,0.0,0.0,0.0,0.0,-0.8431,0.0,0.0,0.0,0.0,0.0,0.0,0.0,0.0,0.0,0.0,0.0,0.0,0.0,0.0,0.0,0.0,0.0,0.0,0.0,0.0,0.0,0.0,0.0,0.0,0.0,0.0,0.0,0.0,0.0,0.0,0.0,0.0,0.0,0.0,0.0,0.0,0.0,0.0,0.0,0.0,-1.3271,-1.4483,-1.5233,-1.5047,-1.5192,-1.5266,-1.526,-1.4865,-1.4328,-1.3616,-1.3077,0.0,0.0,0.0,0.0,0.0,0.0,0.0,0.0,0.0,0.0,0.0,0.0,0.0,0.0,0.0,0.0,0.0,0.0,0.0,0.0,0.0,0.0,0.0,0.0,0.0,0.0,0.0,0.0,0.0,0.0,0.0,0.0,0.0,0.0,0.0,0.0,0.0,0.0,0.0,0.0,0.0,0.0,0.0,0.0,0.0,0.0,0.0,0.0,0.0,0.0,0.0,0.0,0.0,-1.2279,-1.2456,-1.2667,-1.2775,-1.2739,-1.2507,-1.0899,-0.9769,-0.9015,-0.8754,0.0,0.0,0.0,0.0,0.0,0.0,0.0,0.0,0.0,0.0,0.0,0.0,0.0,0.0,0.0,0.0,0.0,0.0,0.0,0.0,0.0,0.0,0.0,0.0,-0.9919,-1.0046,0.0,0.0,0.0,0.0,0.0,0.0,0.0,0.0,0.0,0.0,0.0,0.0,-1.4079,-1.5044,-1.5706,-1.5662,-1.5735,-1.5768,-1.5724,-1.569,-1.5429,-1.4904,-1.3975,-1.2795,0.0,0.0,0.0,0.0,0.0,0.0,0.0,0.0,0.0,0.0,0.0,0.0,0.0,0.0,0.0,0.0,0.0,0.0,0.0,0.0,0.0,0.0,0.0,0.0,0.0,0.0,0.0,0.0,0.0,0.0,0.0,0.0,-0.7296,-0.782,0.0,0.0,0.0,0.0,0.0,0.0,0.0,0.0,0.0,0.0,0.0,0.0,0.0,-1.2058,-1.2469,-1.2625,-1.262,-1.2444,-1.2991,-1.3538,-1.4139,-1.467,-1.5081,-1.5358,-1.5105,0.0,-1.0768,-1.0782,0.0,0.0,0.0,0.0,0.0,0.0,0.0,0.0,0.0,0.0,0.0,0.0,0.0,0.0,0.0,0.0,0.0,0.0,0.0,0.0,0.0,0.0,-1.202,-1.2345,-1.2293,-1.2114,0.0,-1.086,-0.9917,-0.9868,-0.9967,0.0,0.0,0.0,0.0,0.0,0.0,0.0,-1.5189,-1.6066,-1.6536,-1.631,-1.6702,-1.6977,-1.6956,-1.6545,-1.6388,-1.6653,-1.5245,-1.4136,-1.3503,-1.162,0.0,0.0,0.0,0.0,0.0,0.0,0.0,0.0,0.0,0.0,0.0,0.0,0.0,0.0,0.0,0.0,0.0,0.0,0.0,0.0,0.0,0.0,0.0,0.0,0.0,0.0,0.0,0.0,0.0,-0.7642,-0.7913,-0.86,-0.9065,-0.9355,0.0,0.0,0.0,0.0,0.0,0.0,0.0,0.0,0.0,-1.2633,-1.3344,-1.3913,-1.4342,-1.502,-1.5381,-1.544,-1.57,-1.5864,-1.5974,-1.6255,-1.623,-1.6021,-1.6247,-1.5413,-1.3848,-1.321,-1.2478,-1.1761,0.0,0.0,0.0,0.0,-1.1195,-1.1223,-1.1414,-1.136,0.0,-1.1211,0.0,0.0,0.0,0.0,0.0,0.0,0.0,0.0,0.0,0.0,-1.3821,-1.4196,-1.4246,-1.4189,-1.4189,-1.3661,-1.2907,0.0,-1.1919,-1.2189,-1.2596,0.0,0.0,0.0,0.0,-1.6023,-1.661,-1.7087,-1.7316,-1.7197,-1.7199,-1.7199,-1.7199,-1.6977,-1.6803,-1.6671,-1.6007,-1.5092,-1.3897,-1.2919,-1.1814,0.0,0.0,0.0,0.0,0.0,0.0,0.0,0.0,0.0,0.0,0.0,0.0,0.0,0.0,0.0,0.0,0.0,0.0,0.0,0.0,0.0,0.0,0.0,0.0,0.0,0.0,0.0,0.0,-0.8489,-0.8925,-0.968,-1.0501,-1.0962,0.0,0.0,0.0,0.0,0.0,0.0,-1.3196,-1.3839,-1.4193,-1.4198,-1.5106,-1.5748,-1.5993,-1.6871,-1.7405,-1.7568,-1.7729,-1.7672,-1.7454,-1.7612,-1.744,-1.703,-1.7338,-1.7231,-1.6765,-1.5451,-1.4501,-1.3867,-1.3819,-1.3486,-1.3037,-1.299,-1.291,-1.2862,-1.3114,-1.3021,-1.2831,-1.2883,0.0,-1.3113,-1.3159,0.0,0.0,0.0,0.0,-1.46,-1.4957,-1.5191,-1.5435,-1.5831,-1.5919,-1.5923,-1.5923,-1.585,-1.5354,0.0,-1.3803,-1.4028,-1.4268,0.0,0.0,0.0,0.0,-1.7115,-1.7438,-1.7675,-1.776,-1.7659,-1.7372,-1.7199,-1.7199,-1.7199,-1.7119,-1.695,-1.6606,-1.5915,-1.4811,-1.4095,-1.3126,-1.1865,0.0,0.0,0.0,0.0,0.0,0.0,0.0,0.0,0.0,0.0,0.0,0.0,0.0,0.0,0.0,0.0,0.0,0.0,0.0,0.0,0.0,0.0,0.0,0.0,0.0,0.0,0.0,0.0,0.0,-1.1193,-1.1772,0.0,0.0,0.0,0.0,-1.3094,-1.3738,-1.45,-1.5301,-1.5979,-1.6691,-1.7441,-1.753,-1.7576,-1.7593,-1.7636,-1.7519,-1.7238,-1.7795,-1.8103,-1.8174,-1.8728,-1.9185,-1.9531,-1.9549,-1.9313,-1.8823,-1.7228,-1.6549,-1.6521,-1.6521,-1.6246,-1.5888,-1.5888,-1.5653,-1.5317,-1.5335,-1.5335,-1.5317,-1.5317,-1.5207,-1.5227,-1.6107,-1.5952,0.0,0.0,-1.6431,-1.6564,-1.6954,-1.7067,-1.7163,-1.7492,-1.7342,-1.7122,-1.7122,-1.6818,-1.6301,0.0,-1.5388,-1.5406,-1.5427,0.0,-1.5681,-1.6258,-1.6721,-1.7052,-1.7205,-1.7551,-1.7659,-1.7282,-1.722,-1.7199,-1.7199,-1.7199,-1.7544,-1.8341,-1.7142,-1.6695,-1.7385,-1.5075,-1.3732,-1.3587,-1.1968,0.0,0.0,0.0,0.0,0.0,0.0,0.0,0.0,0.0,0.0,0.0,0.0,0.0,0.0,0.0,0.0,0.0,0.0,0.0,0.0,0.0,0.0,0.0,0.0,0.0,0.0,0.0,0.0,-1.2611,-1.342,0.0,-1.4443,-1.511,-1.558,-1.5747,-1.6196,-1.6587,-1.6887,-1.7141,-1.7395,-1.7682,-1.8117,-1.8326,-1.8326,-1.8777,-1.9143,-1.9449,-1.9683,-2.0008,-2.0446,-2.0679,-2.071,-2.0617,-2.0865,-2.0749,-2.0371,-2.0054,-1.873,-1.6886,-1.6886,-1.6574,-1.61,-1.61,-1.6177,-1.6293,-1.6519,-1.6452,-1.6306,-1.6522,-1.6553,-1.6548,-1.6866,-1.7099,-1.7212,-1.7231,-1.7711,-1.8241,-1.8386,-1.8422,-1.8441,-1.8581,-1.8314,-1.8043,-1.8043,-1.7932,-1.7744,-1.7479,-1.7293,-1.7305,-1.7745,-1.7815,-1.7885,-1.8105,-1.8266,-1.847,-1.8765,-1.8712,-1.8592,-1.8442,-1.8187,-1.8028,-1.8028,-1.8028,-1.8167,-1.8481,-1.8032,-1.7702,-1.7599,-1.6482,-1.5672,-1.5247,-1.3651,-1.2615,0.0,0.0,0.0,0.0,0.0,0.0,0.0,0.0,0.0,0.0,0.0,0.0,0.0,0.0,0.0,0.0,0.0,0.0,0.0,0.0,0.0,0.0,0.0,0.0,0.0,0.0,-1.374,-1.4153,-1.5218,-1.5964,-1.6111,-1.6755,-1.7235,-1.7394,-1.7842,-1.8092,-1.8075,-1.8285,-1.8493,-1.8715,-1.9134,-1.948,-1.9705,-2.0154,-2.0587,-2.1051,-2.1051,-2.1276,-2.1695,-2.1695,-2.154,-2.1324,-2.158,-2.154,-2.1324,-2.158,-2.0381,-1.8383,-1.8289,-1.7913,-1.7423,-1.7209,-1.7093,-1.7097,-1.7333,-1.7261,-1.717,-1.7669,-1.7844,-1.7862,-1.8,-1.8326,-1.8633,-1.8631,-1.9139,-1.9688,-1.9908,-1.9985,-1.9985,-1.9985,-1.9778,-1.9569,-1.9569,-1.9569,-1.9569,-1.9569,-1.8859,-1.8381,-1.8826,-1.8898,-1.8913,-1.8972,-1.9233,-1.9493,-1.9677,-1.974,-1.972,-1.9564,-1.9313,-1.9073,-1.8911,-1.8891,-1.8808,-1.8585,-1.8445,-1.8149,-1.7696,-1.7106,-1.6612,-1.6203,-1.5096,-1.4282,-1.3848,0.0,0.0,0.0,0.0,0.0,0.0,0.0,0.0,0.0,0.0,0.0,0.0,0.0,0.0,0.0,0.0,0.0,0.0,0.0,0.0,0.0,0.0,0.0,-1.3606,-1.4669,-1.5624,-1.583,-1.7075,-1.7858,-1.7728,-1.7728,-1.7776,-1.7872,-1.8554,-1.8946,-1.8893,-1.9512,-2.0137,-2.0722,-2.0718,-2.1051,-2.1695,-2.1695,-2.1695,-2.1724,-2.1724,-2.1739,-2.1754,-2.1754,-2.1754,-2.1754,-2.1754,-2.1754,-2.1754,-2.1754,-2.1539,-2.1146,-2.0837,-2.0473,-2.004,-1.941,-1.8648,-1.7922,-1.7922,-1.7922,-1.8063,-1.8913,-1.9178,-1.9253,-1.9641,-1.9768,-1.9902,-2.0557,-2.0718,-2.0868,-2.153,-2.1695,-2.1695,-2.1695,-2.1695,-2.1695,-2.1695,-2.1695,-2.1695,-2.1695,-2.0021,-1.8595,-1.8595,-1.8595,-1.8649,-1.876,-1.9579,0.0,-1.9784,-2.0564,-2.0926,-2.0472,-2.043,-2.0251,-1.9778,-1.9756,-1.9497,-1.882,-1.84,-1.8084,-1.7902,-1.699,-1.6474,-1.6428,-1.6254,-1.6058,-1.5915,0.0,0.0,0.0,0.0,0.0,0.0,0.0,0.0,0.0,0.0,0.0,0.0,0.0,0.0,0.0,0.0,0.0,0.0,0.0,0.0,0.0,0.0,-1.5426,-1.5176,-1.5846,-1.6576,-1.7116,-1.7554,-1.7976,-1.8388,-1.8482,-1.8903,-1.9828,-2.01,-2.0415,-2.0895,-2.107,-2.1289,-2.1493,-2.1493,-2.1583,-2.1763,-2.1763,-2.1999,-2.2433,-2.2465,-2.2705,-2.3071,-2.317,-2.317,-2.3071,-2.3071,-2.3071,-2.3071,-2.3071,-2.3008,-2.2782,-2.1486,-2.0924,-2.0793,-2.0619,-2.058,-2.062,-2.062,-2.062,-2.066,-2.0907,-2.0985,-2.1005,-2.1122,-2.1141,-2.1186,-2.1365,-2.1425,-2.147,-2.165,-2.1695,-2.1695,-2.1695,-2.1695,-2.1695,-2.1695,-2.1695,-2.1695,-2.1695,-2.1223,-2.0813,-2.0813,-2.0813,-2.0833,-2.0869,-2.1099,0.0,-2.1167,-2.1379,-2.1344,-2.0822,-2.1105,-2.1126,-2.0613,-2.092,-2.1067,-2.0898,-2.032,-1.9952,-1.9895,-1.8908,-1.8026,-1.7282,-1.7228,-1.695,0.0,0.0,0.0,0.0,0.0,0.0,0.0,0.0,0.0,0.0,0.0,0.0,0.0,0.0,0.0,0.0,0.0,0.0,0.0,0.0,0.0,0.0,-1.6248,-1.6682,-1.6982,-1.7357,-1.7747,-1.8072,-1.868,-1.9178,-1.951,-1.9831,-2.0325,-2.1066,-2.113,-2.1315,-2.168,-2.1734,-2.1879,-2.2169,-2.2184,-2.2435,-2.2969,-2.3017,-2.3342,-2.3909,-2.4003,-2.4198,-2.4448,-2.4515,-2.4515,0.0,-2.4448,-2.4448,-2.4448,-2.4448,-2.4448,0.0,0.0,0.0,0.0,0.0,-2.1263,-2.146,-2.146,-2.146,-2.148,-2.1655,-2.1695,-2.1695,-2.1695,-2.1695,-2.1754,-2.2044,-2.2134,-2.2194,-2.2428,-2.2503,-2.2503,-2.2503,-2.2503,-2.2503,-2.2503,-2.2503,-2.2503,-2.2503,-2.2503,0.0,-2.2503,-2.2054,-2.1724,-2.1774,-2.1977,-2.2142,-2.2188,-2.2364,-2.2384,-2.2062,-2.2307,-2.2301,-2.1786,-2.2014,0.0,0.0,0.0,-2.0712,-2.0172,-1.9546,0.0,0.0,0.0,0.0,0.0,0.0,0.0,0.0,-1.4994,-1.4934,0.0,0.0,0.0,0.0,0.0,0.0,0.0,0.0,0.0,0.0,0.0,0.0,0.0,0.0,0.0,0.0,-1.7086,-1.8072,-1.8805,-1.9028,-1.9062,-1.8927,-2.0029,-2.0798,-2.0812,-2.135,-2.1724,-2.1799,-2.1864,-2.1944,-2.2024,0.0,0.0,0.0,0.0,-2.3608,-2.4754,-2.4852,-2.513,-2.5615,-2.5746,-2.5731,-2.5615,-2.5615,-2.5615,-2.5615,-2.5615,-2.5615,-2.5615,-2.5615,-2.5615,-2.5435,-2.3706,-2.3032,-2.2915,-2.1972,-2.1606,-2.1606,-2.1606,0.0,0.0,-2.2027,-2.2143,-2.2143,-2.2143,-2.2143,-2.2263,-2.2868,-2.3032,-2.3152,-2.3684,-2.3834,-2.3834,-2.3834,-2.3834,-2.3834,-2.3834,-2.3834,-2.3834,-2.3834,-2.3834,-2.3834,-2.3834,-2.2757,-2.1941,-2.2068,-2.2505,-2.284,-2.2951,-2.3334,-2.3573,-2.353,0.0,0.0,-2.2934,-2.2957,-2.2576,-2.1623,-2.1502,-2.0912,-1.9707,-1.965,-1.9575,-1.9409,-1.9395,-1.9564,-1.9932,-1.9256,-1.8927,-1.8894,-1.7467,-1.7168,0.0,0.0,0.0,0.0,0.0,0.0,0.0,0.0,0.0,0.0,0.0,0.0,0.0,0.0,0.0,-1.7969,-1.8358,-1.8942,-2.0135,-2.0333,-2.0352,-2.0314,-2.0543,-2.0936,-2.1455,-2.162,-2.1919,-2.2463,-2.2529,-2.2957,-2.3977,-2.4153,-2.4586,-2.5334,-2.5349,-2.547,-2.5743,-2.5651,-2.5596,-2.5615,0.0,0.0,-2.5615,-2.5708,-2.5685,-2.5615,-2.5615,-2.5615,-2.5615,-2.5615,-2.5615,-2.557,-2.5196,-2.5046,-2.4993,-2.4805,-2.4723,-2.4723,-2.4723,-2.4723,-2.4745,-2.4829,-2.4852,-2.4852,-2.4852,-2.4852,0.0,-2.5001,-2.5046,-2.5076,-2.5181,-2.5211,-2.5211,-2.5211,-2.5211,-2.5211,-2.5211,-2.5211,-2.5211,-2.5211,-2.5211,-2.5211,-2.5211,-2.4118,-2.3244,-2.3256,-2.3372,-2.3439,-2.345,-2.3551,-2.3443,-2.3068,-2.3377,-2.3399,-2.2934,-2.3246,-2.3383,-2.3163,-2.2704,-2.2082,-2.1297,-2.1247,-2.1228,-2.1188,-2.1188,-2.1247,-2.1306,-2.0647,-2.0299,-2.027,-1.8386,-1.7867,0.0,0.0,0.0,0.0,0.0,0.0,0.0,0.0,0.0,0.0,0.0,-1.5604,-1.6563,0.0,-1.7923,-1.8597,-1.9253,-1.9926,-2.0598,-2.0991,-2.1201,-2.1244,-2.1505,-2.1849,-2.2209,-2.2876,-2.3387,-2.3717,-2.4128,-2.4595,-2.5167,-2.5266,-2.5439,-2.5786,-2.5786,-2.5952,-2.6307,-2.6298,-2.6393,-2.6587,-2.6748,-2.6723,-2.6587,-2.6675,-2.6675,-2.6587,-2.6587,-2.6587,-2.6587,-2.6587,-2.6587,-2.6587,-2.6587,-2.6183,-2.5615,-2.5615,-2.5615,-2.5615,-2.5615,-2.5615,-2.5615,-2.5615,-2.5615,-2.5615,-2.5615,-2.5615,-2.5615,-2.5615,-2.5615,-2.5615,-2.5615,-2.5615,-2.5615,-2.5615,-2.5615,-2.5615,-2.5615,-2.5615,-2.5615,-2.5615,-2.5615,-2.5615,-2.5615,-2.5046,-2.4597,-2.4597,-2.4597,-2.4597,-2.4597,-2.4597,-2.4507,-2.4279,-2.4462,-2.4373,-2.3799,-2.3673,-2.3595,-2.3595,-2.331,-2.2868,-2.2239,-2.2209,-2.2044,-2.171,-2.1695,-2.1695,-2.1695,-2.1365,-2.1201,-2.1186,-2.0183,-1.9687,0.0,0.0,0.0,0.0,0.0,0.0,0.0,-1.3845,-1.4639,-1.5918,-1.6159,-1.6518,-1.7684,-1.8326,-1.8792,-1.9046,-2.0004,-2.0778,-2.1051,-2.1545,-2.2039,-2.2385,-2.259,-2.284,-2.3164,-2.418,-2.4859,-2.498,-2.5576,-2.5939,-2.5952,-2.5997,-2.601,-2.6012,-2.6012,-2.6306,-2.6831,-2.6919,-2.7174,-2.76,-2.77,-2.77,-2.76,-2.76,-2.76,-2.76,-2.76,-2.76,-2.76,-2.76,-2.76,-2.76,-2.76,-2.6941,-2.5989,-2.5989,-2.5989,-2.5989,-2.5989,-2.5989,-2.5989,-2.5989,-2.5989,-2.5989,-2.5989,-2.5989,-2.5989,-2.5989,-2.5989,-2.5989,-2.5989,-2.5989,-2.5989,-2.5989,-2.5989,-2.5989,-2.5989,-2.5989,-2.5989,-2.5989,-2.5989,-2.5989,-2.5989,-2.5989,-2.5899,-2.5644,-2.5615,-2.5615,-2.5615,-2.5615,-2.5615,-2.5615,-2.5615,-2.5367,-2.4844,-2.4313,-2.3984,-2.3984,-2.3984,-2.3714,-2.3092,-2.3077,-2.2742,-2.2084,-2.2069,-2.2069,-2.2069,-2.1949,-2.1889,-2.1889,-2.1889,-2.1545,-1.3561,-1.3606,-1.3646,-1.3595,-1.3683,-1.4081,0.0,-1.5529,-1.5948,-1.722,-1.7489,-1.7713,-1.8446,-1.8657,-1.9091,-2.0285,-2.0598,-2.1126,-2.2313,-2.2538,-2.3101,-2.4477,-2.3543,-2.3269,-2.4467,-2.4716,-2.5048,-2.5628,-2.5648,-2.5916,-2.6477,-2.6603,-2.6962,-2.7525,-2.754,-2.7585,-2.7685,-2.757,-2.755,-2.76,-2.7625,-2.7625,-2.76,-2.76,-2.76,-2.76,-2.76,-2.76,-2.76,-2.76,-2.76,-2.76,-2.76,-2.751,-2.7375,-2.7375,-2.7375,-2.7375,-2.7375,-2.7375,-2.7375,-2.7375,-2.7375,-2.7375,-2.7375,-2.7375,-2.7375,-2.7375,-2.7375,-2.7375,-2.7375,-2.7375,-2.7375,-2.7375,-2.7375,-2.7375,-2.7375,-2.7375,-2.7375,-2.7375,-2.7375,-2.7375,-2.7375,-2.7375,-2.6986,-2.5779,-2.5615,-2.5615,-2.5615,-2.5615,-2.5615,-2.5615,-2.5615,-2.5561,-2.5486,-2.5435,-2.539,-2.539,-2.539,-2.5068,-2.441,-2.4395,-2.4066,-2.34,-2.3385,-2.3385,-2.3385,-2.2853,-2.2583,-2.2583,-2.2583,-2.2239,-1.5431,-1.56,-1.5649,-1.5994,-1.6084,-1.6248,-1.6787,-1.6907,-1.7176,-1.8087,-1.8281,-1.8493,-1.9151,-1.96,-2.0045,-2.0598,-2.135,-2.2074,-2.2628,-2.3002,-2.3608,-2.4641,-2.4302,-2.4361,-2.5387,-2.5787,-2.6087,-2.6344,-2.6687,-2.7009,-2.7279,-2.727,-2.739,-2.7675,-2.7675,-2.7675,-2.7675,-2.7625,-2.76,-2.76,-2.76,-2.76,-2.76,-2.76,-2.76,-2.76,-2.76,-2.76,-2.76,-2.76,-2.76,-2.76,-2.76,-2.76,-2.76,-2.76,-2.76,-2.76,-2.76,-2.76,-2.76,-2.76,-2.76,-2.76,-2.76,-2.76,-2.76,-2.76,-2.76,-2.76,-2.76,-2.76,-2.76,-2.76,-2.76,-2.76,-2.76,-2.76,-2.76,-2.76,-2.76,-2.76,-2.76,-2.76,-2.7405,-2.6866,-2.6752,-2.6752,-2.6752,-2.6752,-2.6752,-2.6752,-2.6408,-2.6183,-2.6183,-2.5824,-2.5615,-2.5615,-2.5615,-2.5457,-2.5187,-2.5173,-2.5038,-2.4777,-2.4762,-2.4762,-2.4762,-2.4507,-2.4388,-2.4388,-2.4388,-2.4238,-1.6849,-1.709,-1.724,-1.761,-1.7713,-1.7758,-1.7938,-1.7983,-1.8162,-1.8837,-1.8972,-1.9121,-1.9618,-2.0243,-2.0763,-2.0942,-2.1934,-2.2763,-2.2927,-2.3475,-2.4133,-2.4852,-2.5152,-2.5597,-2.6425,-2.6687,-2.6886,-2.7067,-2.7494,-2.774,-2.774,-2.765,-2.76,-2.76,-2.76,-2.76,-2.76,-2.76,-2.76,-2.76,-2.7794,-2.7884,-2.7884,-2.8064,-2.8154,-2.8154,-2.8154,-2.8154,-2.8154,-2.8154,-2.8154,-2.8154,-2.8154,-2.8154,-2.8154,-2.8154,-2.7914,-2.76,-2.76,-2.76,-2.76,-2.76,-2.76,-2.76,-2.76,-2.76,-2.76,-2.76,-2.76,-2.76,-2.76,-2.76,-2.76,-2.76,-2.76,-2.76,-2.76,-2.76,-2.76,-2.76,-2.76,-2.76,-2.76,-2.76,-2.76,-2.76,-2.76,-2.76,-2.76,-2.76,-2.76,-2.76,-2.7165,-2.6881,-2.6881,-2.6422,-2.6153,-2.6153,-2.6153,-2.6063,-2.5884,-2.5884,-2.5794,-2.5615,-2.5615,-2.5615,-2.5615,-2.5615,-2.5615,-2.5615,-2.5615,-2.5615,-1.7862,-1.7956,-1.816,-1.7779,-1.7713,-1.7878,-1.8506,-1.8672,-1.8867,-1.9525,-1.9678,-1.9678,-1.9708,-2.0243,-2.0897,-2.156,-2.2254,-2.2897,-2.349,-2.4141,-2.4859,-2.5665,-2.6234,-2.687,0.0,-2.7173,-2.7067,-2.7715,-2.7675,-2.7625,-2.7625,-2.76,-2.76,-2.76,-2.76,-2.76,-2.76,-2.76,-2.76,-2.76,-2.8248,-2.8562,-2.8592,-2.922,-2.9547,-2.9547,-2.9547,-2.9547,-2.9547,-2.9547,-2.9547,-2.9547,-2.9547,-2.9547,-2.9547,-2.9547,-2.8723,-2.76,-2.76,-2.76,-2.76,-2.76,-2.76,-2.76,-2.76,-2.76,-2.76,-2.76,-2.76,-2.76,-2.76,-2.76,-2.76,-2.76,-2.76,-2.76,-2.76,-2.76,-2.76,-2.76,-2.76,-2.76,-2.76,-2.76,-2.76,-2.76,-2.76,-2.76,-2.76,-2.76,-2.76,-2.76,-2.7585,-2.757,-2.757,-2.754,-2.754,-2.754,-2.754,-2.7255,-2.6587,-2.6557,-2.6258,-2.5615,-2.5615,-2.5615,-2.5615,-2.5615,-2.5615,-2.5615,-2.5615,-2.5615,-1.9842,-1.9646,-1.953,-1.9395,-1.9191,-1.9091,-1.9301,-1.9346,-1.9438,-1.9648,-2.0049,-2.0363,-2.0363,-2.1276,-2.2104,-2.2328,-2.2897,-2.3355,-2.3565,-2.4171,-2.4866,-2.5595,-2.6207,-2.6866,-2.759,0.0,0.0,-2.766,-2.7625,-2.76,-2.76,-2.76,-2.76,-2.76,-2.8034,-2.8248,-2.8248,-2.8708,-2.8933,-2.8933,-2.9172,-2.925,-2.9265,-2.9517,-2.9606,-2.9606,-2.9606,-2.9606,-2.9606,-2.9606,-2.9606,-2.9606,-2.9606,-2.9606,-2.9606,-2.9606,-2.9322,-2.8933,-2.8933,-2.8648,-2.8248,-2.8248,-2.7974,-2.76,-2.76,-2.76,-2.76,-2.76,-2.76,-2.76,-2.76,-2.76,-2.76,-2.76,-2.76,-2.76,-2.76,-2.76,-2.76,-2.76,-2.76,-2.76,-2.76,-2.76,-2.76,-2.76,-2.76,-2.76,-2.76,-2.76,-2.76,-2.76,-2.76,-2.76,-2.76,-2.76,-2.76,-2.76,-2.76,-2.7495,-2.727,-2.727,-2.7165,-2.6941,-2.6941,-2.6941,-2.6941,-2.6941,-2.6941,-2.6941,-2.6941,-2.6941,-2.0697,-2.0496,-2.0361,-2.0085,-1.9871,-1.9708,-1.9708,-1.9708,-1.9708,-1.9708,-2.0034,-2.0348,-2.0348,-2.1445,-2.2343,-2.2343,-2.3041,-2.3595,-2.3595,-2.4365,-2.5113,-2.5555,-2.6393,-2.7136,-2.7555,-2.76,0.0,-2.76,-2.76,-2.76,-2.76,-2.7824,-2.7959,-2.7959,-2.8618,-2.8951,-2.8951,-2.937,-2.9726,-2.9909,-2.9909,-3.0043,-3.0283,-3.0283,-3.0283,-3.0283,-3.0283,-3.0283,-3.0283,-3.0283,-3.0283,-3.0283,-3.0283,-3.0283,-3.0283,-3.0283,-3.0283,-3.0208,-2.9771,-2.9337,-2.8951,-2.8951,-2.8678,-2.8319,-2.8319,-2.8319,-2.8259,-2.8034,-2.7959,-2.7899,-2.766,-2.76,-2.76,-2.76,-2.76,-2.76,-2.76,-2.76,-2.76,-2.76,-2.76,-2.76,-2.76,-2.76,-2.76,-2.76,-2.76,-2.76,-2.76,-2.76,-2.76,-2.76,-2.76,-2.76,-2.76,-2.76,-2.76,-2.76,-2.76,-2.76,-2.76,-2.76,-2.76,-2.76,-2.76,-2.76,-2.76,-2.76,-2.76,-2.76,-2.76,-2.76,-2.0515,-2.0496,-2.0596,-1.9907,-1.9711,-1.9708,-1.9708,-1.9708,-1.9708,-1.9708,-1.9738,-1.9753,-1.9753,-2.0831,-2.171,-2.1739,-2.2757,-2.3565,-2.3595,-2.4762,-2.5615,-2.5615,-2.6767,-2.76,-2.76,-2.76,-2.76,-2.7645,0.0,-2.7645,-2.7645,-2.8304,-2.8652,-2.8652,-2.928,-2.9651,-2.9651,-2.9696,-2.9968,-3.0552,-3.0552,-3.0868,-3.1511,-3.1511,-3.1511,-3.1511,-3.1511,-3.1511,-3.1511,-3.1511,-3.1511,-3.1511,-3.1511,-3.1511,-3.1511,-3.1511,-3.1511,-3.1331,-3.0118,-2.9654,-2.9651,-2.9651,-2.9636,-2.9606,-2.9606,-2.9606,-2.9472,-2.8831,-2.8652,-2.8502,-2.7869,-2.7705,-2.7705,-2.7705,-2.7705,-2.7705,-2.7705,-2.7705,-2.7705,-2.7705,-2.766,-2.7645,-2.76,-2.76,-2.76,-2.76,-2.76,-2.76,-2.76,-2.76,-2.76,-2.76,-2.76,-2.76,-2.76,-2.76,-2.76,-2.76,-2.76,-2.76,-2.76,-2.76,-2.76,-2.76,-2.76,-2.76,-2.76,-2.76,-2.76,-2.76,-2.76,-2.76,-2.1103,-2.0697,-2.0309,-2.012,-1.9874,-1.9708,-1.9708,-1.9708,-1.9708,-1.9708,-2.0094,-2.0453,-2.0453,-2.1126,-2.1859,-2.2358,-2.2718,-2.3092,-2.3535,-2.4762,-2.5615,-2.5615,-2.6767,-2.76,-2.76,-2.76,-2.7809,0.0,-2.8338,-2.8338,-2.8338,-2.8966,-2.9367,-2.9367,-2.9939,-3.0268,-3.0268,-3.0776,-3.1092,-3.1241,-3.1241,-3.1331,-3.1511,-3.1511,-3.1511,-3.1511,-3.1511,-3.1511,-3.1511,-3.1511,-3.1511,-3.1511,-3.1511,-3.1511,-3.1511,-3.1511,-3.1511,-3.1451,-3.1122,-3.0702,-3.0268,-3.0268,-2.9968,-2.9606,-2.9606,-2.9606,-2.9577,-2.9397,-2.9367,-2.9322,-2.9142,-2.9097,-2.9097,-2.9097,-2.9097,-2.9097,-2.9097,-2.9097,-2.9097,-2.9097,-2.8693,-2.8173,-2.769,-2.76,-2.76,-2.76,-2.76,-2.76,-2.76,-2.76,-2.76,-2.76,-2.76,-2.76,-2.76,-2.76,-2.76,-2.76,-2.76,-2.76,-2.76,-2.76,-2.76,-2.76,-2.76,-2.76,-2.76,-2.76,-2.76,-2.76,-2.76,-2.76,-2.0893,-2.053,-2.0156,-2.0015,-1.9836,-1.9708,-1.9708,-1.9708,-1.9708,-1.9708,-1.9989,-2.0258,-2.0258,-2.0812,-2.138,-2.1754,-2.2328,-2.2823,-2.3167,-2.4343,-2.5262,-2.557,-2.6512,-2.7285,-2.757,-2.76,-2.7884,-2.8547,-2.8607,-2.8727,-2.9011,-2.9639,-2.9983,-2.9983,-3.0612,-3.0956,-3.0956,-3.1316,-3.1511,-3.1511,-3.1511,-3.1511,-3.1511,-3.1511,-3.1511,-3.1511,0.0,-3.1511,-3.1511,-3.1511,-3.1511,-3.1511,-3.1511,-3.1511,-3.1511,-3.1511,-3.1511,-3.1511,-3.1511,-3.1256,-3.0956,-3.0956,-3.0717,-3.0432,-3.0432,-3.0432,-3.0372,-3.0073,-2.9983,-2.9924,-2.9681,-2.9606,-2.9525,-2.9222,-2.9167,-2.9085,-2.8792,-2.8708,-2.8708,-2.8708,-2.8417,-2.8026,-2.7648,-2.759,-2.759,-2.759,-2.759,-2.7725,-2.7992,-2.779,-2.76,-2.76,-2.76,-2.76,-2.76,-2.76,-2.76,-2.76,-2.76,-2.76,-2.76,-2.76,-2.76,-2.76,-2.76,-2.76,-2.76,-2.7899,-2.8049,-2.8064,-2.8349,-2.8483,-2.0294,-2.0156,-2.0052,-1.9764,-1.9708,-1.9708,-1.9708,-1.9708,-1.9678,-1.9588,-1.9573,-1.9543,-1.9453,-1.9989,-2.0464,-2.0539,-2.168,-2.2598,-2.2688,-2.3804,-2.4844,-2.5516,-2.6183,-2.6866,-2.7525,-2.76,-2.7914,-2.8682,-2.8727,-2.9011,-2.9669,-3.0298,-3.0642,-3.0642,-3.1197,-3.1511,-3.1511,-3.1511,-3.1511,-3.1511,-3.1511,-3.1511,-3.1511,-3.1511,-3.1511,-3.1511,-3.1511,0.0,-3.1511,-3.1511,-3.1511,-3.1511,-3.1511,-3.1511,-3.1511,-3.1511,-3.1511,-3.1511,-3.1511,-3.1511,-3.1511,-3.1511,-3.1511,-3.1511,-3.1511,-3.1511,-3.1376,-3.0806,-3.0642,-3.0507,-2.9983,-2.9849,-2.9724,-2.911,-2.8997,-2.8827,-2.8251,-2.812,-2.8048,-2.789,-2.792,-2.7921,-2.7763,-2.7807,-2.7865,-2.7865,-2.7865,-2.8039,-2.8538,-2.8095,-2.7778,-2.7869,-2.7869,-2.7829,-2.7752,-2.7803,-2.7829,-2.7752,-2.7727,-2.7778,-2.7869,-2.7778,-2.7727,-2.7727,-2.7727,-2.7701,-2.7598,-2.8177,-2.8474,-2.8489,-2.9134,-2.9401,-2.0208,-1.9997,-1.9764,-1.9711,-1.9708,-1.9708,-1.9708,-1.9708,-1.9543,-1.8986,-1.8867,-1.8702,-1.8147,-1.8595,-1.9226,-1.9765,-2.1011,-2.2074,-2.2628,-2.3804,-2.4844,-2.5516,-2.6183,-2.6866,-2.7525,-2.76,-2.8109,0.0,-2.9442,-2.9684,-3.0313,-3.0957,-3.1331,-3.1331,-3.1451,-3.1511,-3.1511,-3.1511,-3.1511,-3.1511,-3.1511,-3.1511,-3.1511,-3.1511,-3.1511,-3.1511,-3.1511,0.0,-3.1511,-3.1511,-3.1511,-3.1511,-3.1511,-3.1511,-3.1511,-3.1511,-3.1511,-3.1511,-3.1511,-3.1511,-3.1511,-3.1511,-3.1511,-3.1511,-3.1511,-3.1511,-3.1481,-3.1361,-3.1331,-3.1301,-3.1197,-3.1167,-3.1138,-3.1008,-3.1008,-3.098,-3.0864,-3.082,-3.0513,-2.9392,-2.9608,-2.9674,-2.8597,-2.8904,-2.925,-2.925,-2.925,-2.9085,-2.8665,-2.849,-2.8634,-2.9194,-2.9262,-2.9032,-2.8455,-2.8936,-2.9017,-2.8469,-2.8442,-2.8677,-2.9235,-2.8731,-2.8442,-2.8442,-2.8442,-2.8149,-2.7598,-2.7711,-2.7768,-2.7797,-2.8467,-2.8496,-1.9945,-1.9818,-1.9708,-1.9708,-1.9708,-1.9618,-1.9256,-1.9166,-1.8986,-1.8311,-1.8177,-1.8087,-1.7773,-1.7968,-1.8386,-1.9076,-2.0004,-2.1026,-2.2044,-2.2996,-2.4103,-2.545,-2.5884,-2.6467,-2.7495,-2.7929,-2.8543,-2.9532,-2.9879,-3.0357,-3.0972,-3.1331,-3.1511,-3.1511,-3.1511,-3.1511,-3.1511,-3.1511,-3.1511,-3.1511,-3.1511,-3.1511,-3.1511,-3.1511,-3.1511,-3.1511,-3.1511,0.0,-3.1511,-3.1511,-3.1511,-3.1511,-3.1511,-3.1511,-3.1511,-3.1511,-3.1511,-3.1511,-3.1511,-3.1511,-3.1511,-3.1511,-3.1511,-3.1511,-3.1511,-3.1511,-3.1511,-3.1511,-3.1511,-3.1511,-3.1511,-3.1511,-3.1409,-3.1058,-3.0703,-3.045,-3.045,-3.045,-3.0273,-2.9625,-2.9764,-2.9796,-2.9168,-2.9332,-2.9551,-2.9551,-2.9258,-2.9051,-2.9052,-2.8768,-2.8676,-2.9032,-2.9401,-2.9456,-2.9167,-2.9429,-2.9456,-2.9125,-2.9125,-2.925,-2.9579,-2.9277,-2.9125,-2.9125,-2.9125,-2.8959,-2.8652,-2.8971,-2.8944,-2.8596,-2.929,-2.9214,-1.9708,-1.9708,-1.9708,-1.9708,-1.9708,-1.9528,-1.8852,-1.8702,-1.8461,-1.7637,-1.7488,-1.7459,-1.731,-1.74,-1.7713,-1.8371,-1.9166,-2.0172,-2.15,-2.2283,-2.3422,-2.5375,-2.5615,-2.6123,-2.7465,-2.8203,0.0,-2.9562,-3.0298,0.0,-3.1466,-3.1511,-3.1511,-3.1511,-3.1511,-3.1511,-3.1511,-3.1511,-3.1511,-3.1511,-3.1511,-3.1511,-3.1511,-3.1511,-3.1511,-3.1511,-3.1511,0.0,0.0,-3.1511,-3.1511,-3.1511,-3.1511,-3.1511,-3.1511,-3.1511,-3.1511,-3.1511,-3.1511,-3.1511,-3.1467,-3.1322,-3.1278,-3.1278,-3.1278,-3.119,-3.1058,-3.1058,-3.1058,-3.1058,-3.1058,-3.1058,-3.094,-3.0419,-2.9981,-2.9659,-2.9535,-2.9597,-2.9628,-2.9331,-2.9518,-2.9628,-2.9331,-2.9411,-2.9504,-2.9504,-2.9048,-2.8839,-2.9237,-2.8967,-2.8671,-2.8581,-2.9186,-2.9525,-2.937,-2.9637,-2.972,-2.9609,-2.9692,-2.979,-2.979,-2.979,-2.9735,-2.9581,-2.972,-2.972,-2.9581,-3.0054,-3.0031,-2.9505,-3.0188,-3.0133,-1.9708,-1.9708,-1.9708,-1.9708,-1.9708,-1.9528,-1.8852,-1.8702,-1.8326,-1.7055,-1.6786,-1.6622,-1.6084,-1.6413,-1.701,-1.7667,-1.8867,-2.0172,-2.15,-2.2283,-2.3422,-2.5375,-2.5615,-2.6123,-2.7465,-2.8203,-2.8876,-2.9562,0.0,0.0,-3.1511,-3.1511,-3.1511,-3.1511,-3.1511,-3.1511,-3.1511,-3.1511,-3.1511,-3.1511,-3.1511,-3.1511,-3.1511,-3.1511,-3.1511,-3.1511,-3.1511,0.0,0.0,-3.1511,-3.1511,-3.1511,-3.1511,-3.1511,-3.1511,-3.1511,-3.1511,-3.1511,-3.1511,-3.1511,-3.1409,-3.0807,-3.0584,-3.0584,-3.0584,-3.0178,-2.9659,-2.9659,-2.9659,-2.9659,-2.9659,-2.9659,-2.9659,-2.9597,-3.0011,-3.0238,-2.9628,-2.9981,-3.0056,-2.8821,-2.9594,-3.0025,-2.8789,-2.9111,-2.9504,-2.9504,-2.9442,-2.9205,-2.8661,-2.9079,-2.9164,-2.8575,-2.9101,-2.9257,-2.8657,-2.9702,-3.0156,-2.9565,-3.0096,-3.0409,-3.0409,-3.0409,-3.0126,-2.952,-3.0126,-3.0126,-2.949,-2.9546,-2.9543,-2.9513,-3.0179,-3.0133,-1.9708,-1.9708,-1.9603,-1.9196,-1.9091,-1.8822,-1.7743,-1.7221,-1.6698,-1.5755,-1.5247,-1.5008,-1.517,-1.5381,-1.589,-1.6936,-1.7893,-1.9121,-2.0857,-2.168,-2.2966,-2.533,-2.5615,-2.6123,-2.7465,0.0,-2.9624,-3.0687,0.0,0.0,-3.1511,-3.1511,-3.1511,-3.1511,-3.1511,-3.1511,-3.1511,-3.1511,-3.1511,-3.1511,-3.1511,-3.1511,-3.1511,-3.1511,-3.1511,-3.1511,-3.1511,0.0,0.0,-3.1511,-3.1511,-3.1511,-3.1511,-3.1511,-3.1511,-3.1511,-3.1511,-3.1511,-3.1511,-3.1511,-3.1467,-3.119,-3.0554,-2.9889,-2.9889,-2.969,-2.9504,-2.9504,-2.9504,-2.9504,-2.9504,-2.9504,-2.9504,-2.9504,-2.969,-2.9827,-2.9566,-2.969,-2.9735,-2.9205,-2.9518,-2.9735,-2.9205,-2.9317,-2.9504,-2.9504,-2.9142,-2.8807,-2.8532,-2.8371,-2.8176,-2.7941,-2.8857,-2.938,-2.9111,-2.958,-2.9797,-2.9504,-2.9766,-2.9889,-2.9889,-2.9889,-2.9766,-2.9504,-2.9766,-2.9766,-2.9504,-2.9504,-2.93,-2.8903,-2.9156,-2.8935,-1.9346,-1.9256,-1.9001,-1.8506,-1.8386,-1.8057,-1.6742,-1.6099,-1.5559,-1.4677,-1.4139,-1.4004,-1.4691,-1.4811,-1.5216,-1.6502,-1.7264,-1.8401,-2.0419,-2.1276,-2.2667,-2.53,-2.5615,-2.6123,-2.7465,-2.8813,-3.0118,0.0,0.0,0.0,-3.1511,-3.1511,-3.1511,-3.1511,-3.1511,-3.1511,-3.1511,-3.1511,-3.1511,-3.1511,-3.1511,-3.1511,-3.1511,-3.1511,-3.1511,-3.1511,-3.1511,0.0,0.0,-3.1511,-3.1511,-3.1511,-3.1511,-3.1511,-3.1511,-3.1511,-3.1511,-3.1511,-3.1511,-3.138,-3.1161,-3.097,-3.0147,-2.9174,-2.8985,-2.8921,-2.8921,-2.8921,-2.8921,-2.8921,-2.8921,-2.9048,-2.9142,-2.8953,-2.9048,-2.9142,-2.8953,-2.9048,-2.9142,-2.8953,-2.9079,-2.9142,-2.8953,-2.8921,-2.8921,-2.8921,-2.85,-2.8189,-2.8189,-2.7776,-2.749,-2.749,-2.8325,-2.8985,-2.9205,-2.9393,-2.9504,-2.9504,-2.9858,-2.9919,-2.9504,-2.9889,-3.0011,-2.9797,-2.9797,-2.9797,-2.9797,-2.9597,-2.9268,-2.8807,-2.8807,-2.8532,-1.8538,-1.8222,-1.7712,-1.7697,-1.7697,-1.737,-1.6099,-1.5799,-1.541,-1.4094,-1.3797,-1.4004,-1.4691,-1.4811,-1.5216,-1.6502,-1.7264,-1.8401,-2.0419,-2.1276,-2.2667,-2.53,-2.5615,-2.6123,-2.7465,-2.8813,0.0,0.0,0.0,0.0,-3.1511,-3.1511,-3.1511,-3.1511,-3.1511,-3.1511,-3.1511,-3.1511,-3.1511,-3.1511,-3.1511,-3.1511,-3.1511,-3.1511,-3.1511,0.0,0.0,0.0,0.0,-3.1511,-3.1511,-3.1511,-3.1511,-3.1511,-3.1511,-3.1511,-3.1511,-3.1511,-3.1511,-3.1058,-3.0389,-2.9735,-2.9048,-2.8384,-2.7723,-2.7523,-2.7523,-2.7523,-2.7523,-2.7523,-2.7523,-2.8006,-2.8352,-2.7689,-2.8039,-2.832,-2.7643,-2.8039,-2.832,-2.7656,-2.8072,-2.8287,-2.7656,-2.7523,-2.7523,-2.7523,-2.7523,-2.749,-2.749,-2.749,-2.749,-2.749,-2.749,-2.7776,-2.8449,-2.9111,-2.9504,-2.9504,-3.0748,-3.0866,-2.9535,-3.0777,-3.1161,-3.0494,-3.0494,-3.0494,-3.0494,-2.9827,-2.9504,-2.9473,-2.9473,-2.9473,-1.7968,-1.7863,-1.7578,-1.713,-1.6697,-1.6188,-1.5305,-1.442,-1.3628,-1.3193,-1.2747,-1.2777,-1.3914,-1.4124,-1.4558,-1.5859,-1.6981,-1.8237,-1.9794,-2.0976,-2.2667,-2.53,-2.6408,-2.7495,0.0,0.0,0.0,0.0,0.0,0.0,-3.1511,-3.1511,-3.1511,-3.1511,-3.1511,-3.1511,-3.1511,-3.1511,-3.1511,-3.1511,-3.1511,-3.1511,-3.1511,-3.1511,-3.1511,0.0,0.0,0.0,0.0,-3.0807,-3.0807,-3.0777,-3.0299,-3.0419,-3.0777,-3.0299,-3.0133,-3.0208,-3.0644,-3.0389,-2.9858,-3.0103,-2.9407,-2.8449,-2.8254,-2.7842,-2.749,-2.749,-2.749,-2.749,-2.749,-2.7656,-2.7756,-2.7556,-2.7656,-2.7756,-2.7556,-2.7656,-2.7756,-2.7523,-2.7656,-2.7756,-2.7523,-2.749,-2.749,-2.749,-2.749,-2.749,-2.749,-2.749,-2.749,-2.749,-2.749,-2.759,-2.7809,-2.7993,-2.8111,-2.8111,-2.8532,-2.8597,-2.8143,-2.8532,-2.8661,-2.8454,-2.8468,-2.8468,-2.8468,-2.8241,-2.8111,-2.8111,-2.8111,-2.8111,-1.7189,-1.716,-1.6876,-1.6458,-1.6069,-1.5619,-1.4946,-1.4152,-1.3478,-1.3238,-1.2849,-1.2897,-1.3974,-1.4184,-1.4618,-1.5919,-1.7011,-1.8252,-1.9854,-2.1006,-2.2667,-2.53,-2.6767,0.0,0.0,0.0,0.0,0.0,0.0,0.0,-3.1511,-3.1511,-3.1511,-3.1511,-3.1511,-3.1511,-3.1511,-3.1511,-3.1511,-3.1511,-3.1511,-3.1511,-3.1511,-3.1511,-3.1511,0.0,0.0,0.0,0.0,-3.0238,-3.0103,-3.0072,-2.9659,-2.9766,-3.0072,-2.9659,-2.9504,-2.9566,-2.9981,-2.9673,-2.9174,-2.9625,-2.8998,-2.8137,-2.8137,-2.7842,-2.749,-2.749,-2.749,-2.749,-2.749,-2.749,-2.749,-2.749,-2.749,-2.749,-2.749,-2.749,-2.749,-2.749,-2.749,-2.749,-2.749,-2.749,-2.749,-2.749,-2.749,-2.749,-2.749,-2.749,-2.749,-2.749,-2.749,-2.749,-2.749,-2.7723,-2.7875,-2.7875,-2.8111,-2.8143,-2.7875,-2.8124,-2.8241,-2.8241,-2.7993,-2.7875,-2.7875,-2.7623,-2.749,-2.749,-2.749,-2.749,0.0,-1.6144,-1.5799,-1.5799,-1.5769,-1.5574,-1.4946,-1.4766,0.0,-1.3929,-1.3797,-1.4004,-1.4691,-1.4841,-1.5276,-1.6502,-1.7294,-1.8461,-2.0419,-2.144,-2.2877,-2.5315,-2.6836,0.0,-2.9472,0.0,0.0,0.0,0.0,0.0,-3.1511,-3.1511,-3.1511,-3.1511,-3.1511,-3.1511,-3.1511,-3.1511,-3.1511,-3.1511,-3.1511,-3.1511,-3.1511,-3.1438,-3.1438,0.0,0.0,0.0,0.0,-2.9704,-2.9411,-2.9411,-2.938,-2.938,-2.9411,-2.938,-2.9348,-2.9348,-2.9411,-2.8998,-2.8417,-2.8417,-2.8006,-2.749,-2.749,-2.749,-2.749,-2.749,-2.749,-2.749,-2.749,-2.749,-2.749,-2.749,-2.749,-2.749,-2.749,-2.749,-2.749,-2.749,-2.749,-2.749,-2.749,-2.749,-2.749,-2.749,-2.749,-2.749,-2.749,-2.749,-2.749,-2.749,-2.749,-2.749,-2.749,-2.8072,-2.8417,-2.8417,-2.9016,-2.9079,-2.8449,-2.9016,-2.9348,-2.9348,-2.8744,-2.8417,-2.8417,-2.7809,-2.749,-2.749,-2.749,-2.749,-1.4395,0.0,-1.5799,-1.5799,-1.541,-1.499,0.0,-1.4393,-1.3989,-1.3827,-1.3797,-1.4004,-1.4691,-1.5215,-1.5814,-1.6577,-1.7699,-1.9001,-2.0479,-2.3011,-2.4911,-2.554,-2.723,-2.8682,-2.9532,0.0,0.0,0.0,0.0,-3.1511,-3.1511,-3.1511,-3.1511,-3.1511,-3.1511,-3.1511,-3.1511,-3.1511,-3.1511,-3.1511,-3.1511,-3.1511,-3.1467,-3.097,-3.0748,0.0,0.0,0.0,-2.8949,-2.8789,-2.8757,-2.8693,-2.8189,-2.8274,-2.8661,-2.8157,-2.796,-2.8059,-2.8565,-2.8287,-2.7756,-2.7756,-2.7623,-2.749,-2.749,-2.749,-2.749,-2.749,-2.749,-2.749,-2.749,-2.749,-2.749,-2.749,-2.749,-2.749,-2.749,-2.749,-2.749,-2.749,-2.749,-2.749,-2.749,-2.749,-2.749,-2.749,-2.749,-2.749,-2.749,-2.749,-2.749,-2.749,-2.749,-2.749,-2.749,-2.7656,-2.7756,-2.7756,-2.7861,-2.7894,-2.7756,-2.7908,-2.796,-2.796,-2.7809,-2.7756,-2.7723,-2.759,-2.749,-2.749,-2.749,-2.749,-1.372,-1.4543,-1.5335,-1.5335,-1.529,-1.526,-1.526,-1.4975,-1.4721,-1.4721,-1.4721,-1.4917,-1.5546,-1.5965,-1.6518,-1.7458,-1.8476,-1.9824,-2.1769,-2.4103,-2.5719,-2.6019,-2.756,-2.8861,0.0,0.0,0.0,0.0,0.0,-3.1511,-3.1511,-3.1511,-3.1511,-3.1511,-3.1511,-3.1511,-3.1511,-3.1511,-3.1511,-3.1511,-3.119,-3.1029,-3.1029,-3.0359,-3.0042,0.0,0.0,0.0,-2.8481,-2.8157,-2.8039,-2.8006,-2.7656,-2.7723,-2.8006,-2.7623,-2.749,-2.7556,-2.7908,-2.7809,-2.749,-2.749,-2.749,-2.749,-2.749,-2.749,-2.749,-2.749,-2.749,-2.749,-2.749,-2.749,-2.749,-2.749,-2.749,-2.749,-2.749,-2.749,-2.749,-2.749,-2.7469,-2.7403,-2.7403,-2.7335,-2.7268,-2.7268,-2.7268,-2.7268,-2.7268,-2.7268,-2.7268,-2.7268,-2.7268,-2.7302,-2.7403,-2.7403,-2.7436,-2.749,-2.749,-2.749,-2.749,-2.749,-2.749,-2.749,-2.749,-2.749,-2.749,-2.749,-2.749,-2.749,-2.749,-2.749,-1.3466,-1.4139,-1.4663,-1.4767,-1.529,-1.5799,-1.5799,-1.5799,-1.5799,-1.5799,-1.5873,-1.6084,-1.6622,-1.6876,-1.7413,-1.8657,-1.966,-2.1085,-2.3295,-2.4837,-2.5959,-2.6527,-2.7874,0.0,0.0,0.0,0.0,0.0,0.0,-3.1511,-3.1511,-3.1511,-3.1511,-3.1511,-3.1511,-3.1438,-3.1351,-3.1351,-3.1351,-3.1351,-3.0658,-3.0374,-3.0419,-2.9628,-2.9286,-2.93,0.0,0.0,-2.8254,-2.7689,-2.7469,-2.7469,-2.749,-2.749,-2.7469,-2.7469,-2.7469,-2.7436,-2.7436,-2.7436,-2.7436,-2.7436,-2.7436,-2.7469,-2.7469,-2.7469,-2.7469,-2.7469,-2.7469,-2.7469,-2.749,-2.7503,-2.7469,-2.749,-2.749,-2.749,-2.7469,-2.7469,-2.7469,-2.7436,-2.7335,-2.7235,-2.7235,-2.7113,-2.699,-2.699,-2.699,-2.699,-2.699,-2.699,-2.699,-2.699,-2.699,-2.7079,-2.7248,-2.7235,-2.7302,-2.7436,-2.7469,-2.749,-2.749,-2.749,-2.749,-2.749,-2.749,-2.749,-2.749,-2.749,-2.749,-2.7469,-2.749,-2.749,-1.2774,-1.3436,-1.4094,-1.4648,-1.529,-1.5799,-1.5799,-1.5799,-1.5799,-1.5799,-1.6219,-1.6592,-1.6681,-1.7639,-1.8657,-1.9405,-2.1485,-2.3131,-2.3535,-2.5241,-2.6482,-2.6572,0.0,0.0,0.0,0.0,0.0,0.0,0.0,-3.1511,-3.1511,-3.1511,-3.1511,-3.1511,-3.1511,-3.1219,-3.0644,-3.0644,-3.0644,-3.0644,-2.9856,-2.978,-3.0269,-2.8876,-2.8325,-2.8449,0.0,-2.7335,-2.7503,-2.7369,-2.7335,-2.7335,-2.7469,-2.7436,-2.7335,-2.7335,-2.7214,-2.7079,-2.7079,-2.7079,-2.7079,-2.7079,-2.718,-2.7335,-2.7335,-2.7335,-2.7335,-2.7335,-2.7335,-2.7369,-2.7469,-2.7436,-2.7369,-2.7469,-2.749,-2.7469,-2.7369,-2.7335,-2.7268,-2.7113,-2.7045,-2.7045,-2.7045,-2.7024,-2.699,-2.699,-2.699,-2.699,-2.699,-2.699,-2.699,-2.699,-2.699,-2.7024,-2.7045,-2.7045,-2.7045,-2.7079,-2.7335,-2.749,-2.749,-2.749,-2.749,-2.749,-2.749,-2.749,-2.749,-2.749,-2.7436,-2.7335,-2.7469,-2.7436,-1.2621,-1.3286,-1.3961,-1.4633,-1.529,-1.5889,-1.6219,-1.6278,-1.6383,-1.6757,-1.7056,-1.7354,-1.7697,-1.8583,-1.9708,-2.1085,-2.2592,-2.3849,-2.4582,-2.5779,-2.6856,0.0,0.0,0.0,0.0,0.0,0.0,0.0,0.0,0.0,-3.1511,-3.1438,-3.1219,-3.0866,-3.1131,-3.0598,-2.916,-2.9504,-2.9735,-2.9842,-2.8998,-2.8762,-2.9034,-2.8325,-2.7861,-2.759,0.0,-2.7403,-2.7146,-2.7146,-2.7146,-2.7146,-2.7214,-2.718,-2.7146,-2.7146,-2.7079,-2.699,-2.699,-2.699,-2.699,-2.699,-2.7045,-2.7146,-2.7146,-2.7146,-2.7146,-2.7146,-2.7146,-2.7146,-2.7214,-2.718,-2.7146,-2.7214,-2.7248,-2.7214,-2.7146,-2.7146,-2.7113,-2.7024,-2.6909,-2.6841,-2.6841,-2.6773,-2.6739,-2.6739,-2.6739,-2.6739,-2.6739,-2.6739,-2.6739,-2.6739,-2.6739,-2.6773,-2.6829,-2.6841,-2.6875,-2.6977,-2.7146,-2.7248,-2.7248,-2.7248,-2.7248,-2.7248,-2.7248,-2.7248,-2.7248,-2.7248,-2.7214,-2.7146,-2.7214,-2.7214,-1.2849,-1.351,-1.4229,-1.5052,-1.562,-1.6129,-1.6592,-1.6816,-1.7085,-1.7593,-1.7833,-1.8132,-1.8807,-1.9753,-2.0951,-2.2643,-2.355,-2.4477,-2.5674,-2.6408,-2.726,0.0,0.0,0.0,0.0,0.0,0.0,0.0,0.0,0.0,-3.1438,-3.1161,-3.0837,-3.0494,-3.0583,-2.9842,-2.8247,-2.8716,-2.9062,-2.9233,-2.8195,-2.7868,-2.8195,-2.7796,-2.739,-2.6943,-2.7456,-2.739,-2.6943,-2.6943,-2.6943,-2.6943,-2.6977,-2.6977,-2.6943,-2.6875,-2.6875,-2.6875,-2.6875,-2.6875,-2.6875,-2.6875,-2.6909,-2.6943,-2.6943,-2.6943,-2.6943,-2.6943,-2.6909,-2.6909,-2.699,-2.6977,-2.6943,-2.699,-2.699,-2.699,-2.6943,-2.6943,-2.6909,-2.6875,-2.6773,-2.6658,-2.6658,-2.6555,-2.6499,-2.6499,-2.6499,-2.6499,-2.6499,-2.6499,-2.6499,-2.6499,-2.6499,-2.6521,-2.6658,-2.6658,-2.6726,-2.6875,-2.6943,-2.699,-2.699,-2.699,-2.699,-2.699,-2.699,-2.699,-2.699,-2.699,-2.699,-2.6943,-2.6977,-2.6977,-1.3555,-1.4214,-1.5022,-1.6264,-1.6592,-1.6636,-1.6681,-1.7189,-1.7654,-1.7699,-1.8192,-1.8837,-1.9513,-2.119,-2.2718,-2.3415,-2.4627,-2.5719,-2.6422,0.0,0.0,0.0,0.0,0.0,0.0,0.0,0.0,0.0,0.0,0.0,-3.1307,-3.0554,-3.0374,-3.1014,-2.9811,-2.9066,-2.8939,-2.8839,-2.8871,-2.9002,-2.7517,-2.7497,-2.8693,-2.7276,-2.6658,-2.6726,-2.6624,-2.6658,-2.6726,-2.6726,-2.6726,-2.676,-2.6943,-2.6875,-2.6726,-2.6602,-2.6533,-2.6533,-2.6533,-2.6533,-2.6533,-2.6533,-2.6624,-2.6726,-2.6726,-2.6726,-2.6726,-2.6726,-2.6624,-2.6602,-2.6909,-2.6863,-2.676,-2.6943,-2.699,-2.6943,-2.676,-2.6726,-2.6692,-2.6568,-2.6521,-2.6499,-2.6499,-2.6499,-2.6499,-2.6499,-2.6499,-2.6499,-2.6499,-2.6499,-2.6499,-2.6499,-2.6499,-2.6499,-2.6499,-2.6499,-2.6521,-2.6533,-2.6841,-2.699,-2.699,-2.699,-2.699,-2.699,-2.699,-2.699,-2.699,-2.699,-2.6909,-2.6726,-2.6909,-2.6909,-1.4137,-1.4916,-1.5634,-1.6488,-1.7324,-1.7938,-1.7938,-1.8132,-1.8551,-1.9388,-1.9761,-2.0393,-2.1859,-2.2742,-2.361,-2.4672,-2.5615,-2.6303,-2.6557,0.0,0.0,0.0,0.0,0.0,0.0,0.0,0.0,0.0,0.0,0.0,0.0,-3.0101,-2.9993,-3.0282,-2.9237,-2.8492,-2.8084,-2.8032,-2.8032,-2.8051,-2.7484,-2.7263,-2.7364,-2.7196,-2.6905,-2.6589,-2.6973,-2.6905,-2.6589,-2.6589,-2.6589,-2.6589,-2.6671,-2.6636,-2.6555,-2.6521,-2.6499,-2.6499,-2.6499,-2.6499,-2.6499,-2.6499,-2.6521,-2.6589,-2.6589,-2.6589,-2.6589,-2.6589,-2.6521,-2.6533,-2.6671,-2.6636,-2.6589,-2.6671,-2.6705,-2.6671,-2.6589,-2.6589,-2.6555,-2.6499,-2.6499,-2.6499,-2.6499,-2.6499,-2.6499,-2.6499,-2.6499,-2.6499,-2.6499,-2.6499,-2.6499,-2.6499,-2.6499,-2.6499,-2.6499,-2.6499,-2.6499,-2.6499,-2.6636,-2.6705,-2.6705,-2.6705,-2.6705,-2.6705,-2.6705,-2.6705,-2.6705,-2.6705,-2.6658,-2.6589,-2.6658,-2.6636,-1.4496,-1.544,-1.6234,-1.6861,-1.7863,-1.8762,-1.8972,-1.9181,-1.9582,-2.0509,-2.1201,-2.2024,-2.3355,-2.3954,-2.4597,0.0,-2.6303,-2.6737,0.0,0.0,0.0,0.0,0.0,0.0,0.0,0.0,0.0,0.0,0.0,0.0,0.0,-2.9376,-2.9296,-2.9716,-2.8505,-2.7769,-2.7517,-2.7517,-2.7384,-2.7196,-2.7384,-2.7263,-2.6816,-2.7061,-2.6939,-2.6521,-2.7007,-2.6905,-2.6499,-2.6499,-2.6499,-2.6499,-2.6499,-2.6499,-2.6499,-2.6499,-2.6499,-2.6499,-2.6499,-2.6499,-2.6499,-2.6499,-2.6499,-2.6499,-2.6499,-2.6499,-2.6499,-2.6499,-2.6499,-2.6499,-2.6499,-2.6499,-2.6499,-2.6499,-2.6499,-2.6499,-2.6499,-2.6499,-2.6499,-2.6499,-2.6499,-2.6499,-2.6499,-2.6499,-2.6499,-2.6499,-2.6499,-2.6499,-2.6499,-2.6499,-2.6499,-2.6499,-2.6499,-2.6499,-2.6499,-2.6499,-2.6499,-2.6499,-2.6499,-2.6499,-2.6499,-2.6499,-2.6499,-2.6499,-2.6499,-2.6499,-2.6499,-2.6499,-2.6499,-2.6499,-2.6499,-2.6499,-1.4633,-1.574,-1.686,-1.7533,-1.8207,-1.8897,-1.9573,-2.0228,-2.0703,-2.0718,-2.2258,-2.361,-2.3625,-2.4717,-2.5839,-2.6497,-2.6602,0.0,0.0,0.0,0.0,0.0,0.0,0.0,0.0,0.0,0.0,0.0,0.0,0.0,0.0,-2.8312,-2.8163,-2.956,-2.7584,-2.6816,-2.7484,-2.7484,-2.7162,-2.6499,-2.7162,-2.7484,-2.7484,-2.6816,-2.6499,-2.6499,-2.6499,-2.6499,-2.6499,-2.6499,-2.6499,-2.6499,-2.6499,-2.6499,-2.6499,-2.6499,-2.6499,-2.6499,-2.6499,-2.6499,-2.6499,-2.6499,-2.6499,-2.6499,-2.6499,-2.6499,-2.6499,-2.6499,-2.6499,-2.6499,-2.6499,-2.6499,-2.6499,-2.6499,-2.6499,-2.6499,-2.6499,-2.6499,-2.6499,-2.6499,-2.6499,-2.6499,-2.6499,-2.6499,-2.6499,-2.6499,-2.6499,-2.6499,-2.6499,-2.6499,-2.6499,-2.6499,-2.6499,-2.6499,-2.6499,-2.6499,-2.6499,-2.6499,-2.6499,-2.6499,-2.6499,-2.6499,-2.6499,-2.6499,-2.6499,-2.6499,-2.6499,-2.6499,-2.6499,-2.6499,-2.6499,-2.6499,-1.5711,-1.6756,-1.7548,-1.8237,-1.8912,-1.957,-2.0258,-2.0917,-2.1665,-2.2562,-2.3558,-2.444,-2.4926,-2.5719,0.0,-2.7195,0.0,0.0,0.0,0.0,0.0,0.0,0.0,0.0,0.0,0.0,0.0,0.0,0.0,0.0,0.0,-2.7986,-2.8163,-2.956,-2.7584,-2.6816,-2.7484,-2.704,-2.6679,-2.6499,-2.6679,-2.6816,-2.6782,-2.6589,-2.6499,-2.6499,-2.6499,-2.6499,-2.6499,-2.6499,-2.6499,-2.6499,-2.6499,-2.6499,-2.6499,-2.6499,-2.6499,-2.6499,-2.6499,-2.6499,-2.6499,-2.6499,-2.6499,-2.6499,-2.6499,-2.6499,-2.6499,-2.6499,-2.6499,-2.6499,-2.6499,-2.6499,-2.6499,-2.6499,-2.6499,-2.6499,-2.6499,-2.6499,-2.6499,-2.6499,-2.6499,-2.6499,-2.6499,-2.6499,-2.6499,-2.6499,-2.6499,-2.6499,-2.6499,-2.6499,-2.6499,-2.6499,-2.6499,-2.6499,-2.6499,-2.6499,-2.6499,-2.6499,-2.6499,-2.6499,-2.6499,-2.6499,-2.6499,-2.6499,-2.6499,-2.6499,-2.6499,-2.6499,-2.6499,-2.6499,-2.6499,-2.6499,-1.5875,-1.7011,-1.7803,-1.8192,-1.9016,-2.0022,-2.1216,-2.1799,-2.2458,-2.3744,-2.453,-2.5187,-2.5869,-2.6542,0.0,0.0,0.0,0.0,0.0,0.0,0.0,0.0,0.0,0.0,0.0,0.0,0.0,0.0,0.0,0.0,0.0,0.0,0.0,0.0,-2.7297,-2.6679,-2.7095,-2.6679,-2.6499,-2.6499,-2.6499,-2.6499,-2.6499,-2.6499,-2.6499,-2.6499,-2.6499,-2.6499,-2.6499,-2.6499,-2.6499,-2.6499,-2.6499,-2.6499,-2.6499,-2.6499,-2.6499,-2.6499,-2.6499,-2.6499,-2.6499,-2.6499,-2.6499,-2.6499,-2.6499,-2.6499,-2.6499,-2.6499,-2.6499,-2.6499,-2.6499,-2.6499,-2.6499,-2.6499,-2.6499,-2.6499,-2.6499,-2.6499,-2.6499,-2.6499,-2.6499,-2.6499,-2.6499,-2.6499,-2.6499,-2.6499,-2.6499,-2.6499,-2.6499,-2.6499,-2.6499,-2.6499,-2.6499,-2.6499,-2.6499,-2.6499,-2.6499,-2.6499,-2.6499,-2.6499,-2.6499,-2.6499,-2.6499,-2.6499,-2.6499,-2.6499,-2.6499,-2.6499,-2.6499,-2.6499,-2.6499,-2.6499,-1.5425,-1.6727,-1.7697,-1.7788,-1.8852,-2.0367,-2.2194,-2.2748,-2.3227,-2.444,-2.5217,-2.5884,-2.6482,-2.7126,0.0,0.0,0.0,0.0,0.0,0.0,0.0,0.0,0.0,0.0,0.0,0.0,0.0,0.0,0.0,0.0,0.0,0.0,0.0,-2.7484,-2.685,-2.6499,-2.6499,-2.6499,-2.6499,0.0,-2.6499,-2.6499,-2.6499,-2.6499,-2.6499,-2.6499,-2.6499,-2.6499,-2.6499,-2.6499,-2.6499,-2.6499,-2.6499,-2.6499,-2.6499,-2.6499,-2.6499,-2.6499,-2.6499,-2.6499,-2.6499,-2.6499,-2.6499,-2.6499,-2.6499,-2.6499,-2.6499,-2.6499,-2.6499,-2.6499,-2.6499,-2.6499,-2.6499,-2.6499,-2.6499,-2.6499,-2.6499,-2.6499,-2.6499,-2.6499,-2.6499,-2.6499,-2.6499,-2.6499,-2.6499,-2.6499,-2.6499,-2.6499,-2.6499,-2.6499,-2.6499,-2.6499,-2.6499,-2.6499,-2.6499,-2.6499,-2.6499,-2.6499,-2.6499,-2.6499,-2.6499,-2.6499,-2.6499,-2.6499,-2.6499,-2.6499,-2.6499,-2.6499,-2.6499,-2.6499,-2.6499,-2.6499,-1.5425,-1.6727,-1.7833,-1.8341,-1.9884,-2.138,-2.1814,-2.3101,-2.441,-2.5217,-2.5914,-2.6422,-2.6557,0.0,0.0,0.0,0.0,0.0,0.0,0.0,0.0,0.0,0.0,0.0,0.0,0.0,0.0,0.0,0.0,0.0,0.0,0.0,0.0,-2.7484,-2.685,-2.6499,-2.6499,-2.6499,-2.6499,0.0,-2.6499,-2.6499,-2.6499,-2.6499,-2.6499,-2.6499,-2.6499,-2.6499,-2.6499,-2.6499,-2.6499,-2.6499,-2.6499,-2.6499,-2.6499,-2.6499,-2.6499,-2.6499,-2.6499,-2.6499,-2.6499,-2.6499,-2.6499,-2.6499,-2.6499,-2.6499,-2.6499,-2.6499,-2.6499,-2.6499,-2.6499,-2.6499,-2.6499,-2.6499,-2.6499,-2.6499,-2.6499,-2.6499,-2.6499,-2.6499,-2.6499,-2.6499,-2.6499,-2.6499,-2.6499,-2.6499,-2.6499,-2.6499,-2.6499,-2.6499,-2.6499,-2.6499,-2.6499,-2.6499,-2.6499,-2.6499,-2.6499,-2.6499,-2.6499,-2.6499,-2.6499,-2.6499,-2.6499,-2.6499,-2.6499,-2.6499,-2.6499,-2.6499,-2.6499,-2.6499,-2.6499,-2.6499,-1.498,-1.6458,-1.7938,-1.8927,-2.0438,-2.1695,-2.1695,-2.3193,-2.473,-2.5371,-2.6075,-2.6692,0.0,0.0,0.0,0.0,0.0,0.0,0.0,0.0,0.0,0.0,0.0,0.0,0.0,0.0,0.0,0.0,0.0,0.0,0.0,-2.6679,-2.6658,-2.7007,-2.6692,-2.6499,-2.6499,-2.6499,-2.6499,-2.6499,-2.6499,-2.6499,-2.6499,-2.6499,-2.6499,-2.6499,-2.6499,-2.6499,-2.6499,-2.6499,-2.6499,-2.6499,-2.6499,-2.6499,-2.6499,-2.6499,-2.6499,-2.6499,-2.6499,-2.6499,-2.6499,-2.6499,-2.6499,-2.6499,-2.6499,-2.6499,-2.6499,-2.6499,-2.6499,-2.6499,-2.6499,-2.6499,-2.6499,-2.6499,-2.6499,-2.6499,-2.6499,-2.6499,-2.6499,-2.6499,-2.6499,-2.6499,-2.6499,-2.6499,-2.6499,-2.6499,-2.6499,-2.6499,-2.6499,-2.6499,-2.6499,-2.6499,-2.6499,-2.6499,-2.6499,-2.6499,-2.6499,-2.6499,-2.6499,-2.6499,-2.6499,-2.6499,-2.6499,-2.6499,-2.6499,-2.6499,-2.6499,-2.6499,-2.6499,-2.6499,-2.6499,-2.6499,-1.4226,-1.5935,-1.793,-1.9361,-2.0617,-2.156,-2.1665,-2.3061,-2.4497,-2.5091,-2.5916,-2.6673,0.0,0.0,0.0,0.0,0.0,0.0,0.0,0.0,0.0,0.0,0.0,0.0,0.0,0.0,0.0,0.0,0.0,0.0,-2.6499,-2.6499,-2.6499,-2.6499,-2.6499,-2.6499,-2.6499,-2.6499,-2.6499,-2.6499,-2.6499,-2.6499,-2.6499,-2.6499,-2.6499,-2.6499,-2.6499,-2.6499,-2.6499,-2.6499,-2.6499,-2.6499,-2.6499,-2.6499,-2.6499,-2.6499,-2.6499,-2.6499,-2.6499,-2.6499,-2.6499,-2.6499,-2.6499,-2.6499,-2.6499,-2.6499,-2.6499,-2.6499,-2.6499,-2.6499,-2.6499,-2.6499,-2.6499,-2.6499,-2.6499,-2.6499,-2.6499,-2.6499,-2.6499,-2.6499,-2.6499,-2.6499,-2.6499,-2.6499,-2.6499,-2.6499,-2.6499,-2.6499,-2.6499,-2.6499,-2.6499,-2.6499,-2.6499,-2.6499,-2.6499,-2.6499,-2.6499,-2.6499,-2.6499,-2.6499,-2.6499,-2.6499,-2.6499,-2.6499,-2.6499,-2.6499,-2.6499,-2.6499,-2.6499,-2.6499,-2.6499,-2.6499,-1.301,-1.5027,-1.758,-1.9275,-2.0273,-2.0991,-2.156,-2.2688,-2.3792,0.0,-2.5427,0.0,0.0,0.0,0.0,0.0,0.0,0.0,0.0,0.0,0.0,0.0,0.0,0.0,0.0,0.0,0.0,0.0,0.0,0.0,-2.6499,-2.6499,-2.6499,-2.6499,-2.6499,-2.6499,-2.6499,-2.6499,-2.6499,-2.6499,-2.6499,-2.6499,-2.6499,-2.6499,-2.6499,-2.6499,-2.6499,-2.6499,-2.6499,-2.6499,-2.6499,-2.6499,-2.6499,-2.6499,-2.6499,-2.6499,-2.6499,-2.6499,-2.6499,-2.6499,-2.6499,-2.6499,-2.6499,-2.6499,-2.6499,-2.6499,-2.6499,-2.6499,-2.6499,-2.6499,-2.6499,-2.6499,-2.6499,-2.6499,-2.6499,-2.6499,-2.6499,-2.6499,-2.6499,-2.6499,-2.6499,-2.6499,-2.6499,-2.6499,-2.6499,-2.6499,-2.6499,-2.6499,-2.6499,-2.6499,-2.6499,-2.6499,-2.6499,-2.6499,-2.6499,-2.6499,-2.6499,-2.6499,-2.6499,-2.6499,-2.6499,-2.6499,-2.6499,-2.6499,-2.6499,-2.6499,-2.6499,-2.6499,-2.6499,-2.6499,-2.6499,-2.6499,-1.3785,-1.5356,-1.6979,-1.8306,-1.9218,-1.9956,-2.0567,-2.1326,-2.2181,-2.3098,0.0,0.0,0.0,0.0,0.0,0.0,0.0,0.0,0.0,0.0,0.0,0.0,0.0,0.0,0.0,0.0,0.0,0.0,0.0,-2.6499,-2.6499,-2.6499,-2.6499,-2.6499,-2.6499,-2.6499,-2.6499,-2.6499,-2.6499,-2.6499,-2.6499,-2.6499,-2.6499,-2.6499,-2.6499,-2.6499,-2.6499,-2.6499,-2.6499,-2.6499,-2.6499,-2.6499,-2.6499,-2.6499,-2.6499,-2.6499,-2.6499,-2.6499,-2.6499,-2.6499,-2.6499,-2.6499,-2.6499,-2.6499,-2.6499,-2.6499,-2.6499,-2.6499,-2.6499,-2.6499,-2.6499,-2.6499,-2.6499,-2.6499,-2.6499,-2.6499,-2.6499,-2.6499,-2.6499,-2.6499,-2.6499,-2.6499,-2.6499,-2.6499,-2.6499,-2.6499,-2.6499,-2.6499,-2.6499,-2.6499,-2.6499,-2.6499,-2.6499,-2.6499,-2.6499,-2.6499,-2.6499,-2.6499,-2.6499,-2.6499,-2.6499,-2.6499,-2.6499,-2.6499,-2.6499,-2.6499,-2.6499,-2.6499,-2.6499,-2.6499,-2.6499,-2.6499,-1.4276,-1.5296,-1.6027,-1.734,-1.8161,-1.8823,-1.9543,-2.0097,-2.0781,0.0,0.0,0.0,0.0,0.0,0.0,0.0,0.0,0.0,0.0,0.0,0.0,0.0,0.0,0.0,0.0,0.0,0.0,0.0,0.0,-2.6499,-2.6499,-2.6499,-2.6499,-2.6499,-2.6499,-2.6499,-2.6499,-2.6499,-2.6499,-2.6499,-2.6499,-2.6499,-2.6499,-2.6499,-2.6499,-2.6499,-2.6499,-2.6499,-2.6499,-2.6499,-2.6499,-2.6499,-2.6499,-2.6499,-2.6499,-2.6499,-2.6499,-2.6499,-2.6499,-2.6499,-2.6499,-2.6499,-2.6499,-2.6499,-2.6499,-2.6499,-2.6499,-2.6499,-2.6499,-2.6499,-2.6499,-2.6499,-2.6499,-2.6499,-2.6499,-2.6499,-2.6499,-2.6499,-2.6499,-2.6499,-2.6499,-2.6499,-2.6499,-2.6499,-2.6499,-2.6499,-2.6499,-2.6499,-2.6499,-2.6499,-2.6499,-2.6499,-2.6499,-2.6499,-2.6499,-2.6499,-2.6499,-2.6499,-2.6499,-2.6499,-2.6499,-2.6499,-2.6499,-2.6499,-2.6499,-2.6499,-2.6499,-2.6499,-2.6499,-2.6499,-2.6499,-2.6499,-1.3459,-1.4089,-1.4644,-1.6784,-1.7362,-1.769,-1.8871,0.0,-2.0053,0.0,0.0,0.0,0.0,0.0,0.0,0.0,0.0,0.0,0.0,0.0,0.0,0.0,0.0,0.0,0.0,0.0,0.0,0.0,0.0,-2.6499,-2.6499,-2.6499,-2.6499,-2.6499,-2.6499,-2.6499,-2.6499,-2.6499,-2.6499,-2.6499,-2.6499,-2.6499,-2.6499,-2.6499,-2.6499,-2.6499,-2.6499,-2.6499,-2.6499,-2.6499,-2.6499,-2.6499,-2.6499,-2.6499,-2.6499,-2.6499,-2.6499,-2.6499,-2.6499,-2.6499,-2.6499,-2.6499,-2.6499,-2.6499,-2.6499,-2.6499,-2.6499,-2.6499,-2.6499,-2.6499,-2.6499,-2.6499,-2.6499,-2.6499,-2.6499,-2.6499,-2.6499,-2.6499,-2.6499,-2.6499,-2.6499,-2.6499,-2.6499,-2.6499,-2.6499,-2.6499,-2.6499,-2.6499,-2.6499,-2.6499,-2.6499,-2.6499,-2.6499,-2.6499,-2.6499,-2.6499,-2.6499,-2.6499,-2.6499,-2.6499,-2.6499,-2.6499,-2.6499,-2.6499,-2.6499,-2.6499,-2.6499,-2.6499,-2.6499,-2.6499,-2.6499,-2.6499,-1.2393,-1.3139,-1.3904,-1.5649,-1.6177,-1.659,-1.7752,-1.8139,-1.853,0.0,0.0,0.0,0.0,0.0,0.0,0.0,0.0,0.0,0.0,0.0,0.0,0.0,0.0,0.0,0.0,0.0,0.0,0.0,0.0,0.0,-2.6499,-2.6499,-2.6499,-2.6499,-2.6499,-2.6499,-2.6499,-2.6499,-2.6499,-2.6499,-2.6499,-2.6499,-2.6499,-2.6499,-2.6499,-2.6499,-2.6499,-2.6499,-2.6499,-2.6499,-2.6499,-2.6499,-2.6499,-2.6499,-2.6499,-2.6499,-2.6499,-2.6499,-2.6499,-2.6499,-2.6499,-2.6499,-2.6499,-2.6499,-2.6499,-2.6499,-2.6499,-2.6499,-2.6499,-2.6499,-2.6499,-2.6499,-2.6465,-2.6339,-2.6396,-2.6465,-2.6339,-2.6396,-2.6499,-2.6499,-2.6499,-2.6499,-2.6499,-2.6499,-2.6499,-2.6499,-2.6801,-2.7014,-2.7014,-2.7293,-2.7519,-2.7519,-2.7519,-2.7519,-2.7519,-2.7519,-2.7519,-2.7519,-2.7519,-2.7519,-2.7519,-2.7519,-2.7519,-2.7519,-2.7519,-2.7203,-2.6499,-2.6499,-2.6499,-2.6499,-2.6499,-2.6499,-1.141,-1.2135,-1.2977,-1.4331,-1.5057,-1.5688,-1.6619,-1.7134,-1.7612,0.0,0.0,0.0,0.0,0.0,0.0,0.0,0.0,0.0,0.0,0.0,0.0,0.0,0.0,0.0,0.0,0.0,0.0,0.0,0.0,0.0,-2.6499,-2.6499,-2.6499,-2.6499,-2.6499,-2.6499,-2.6499,-2.6499,-2.6499,-2.6499,-2.6499,-2.6499,-2.6499,-2.6499,-2.6499,-2.6499,-2.6499,-2.6499,-2.6499,-2.6499,-2.6499,-2.6499,-2.6499,-2.6499,-2.6499,-2.6499,-2.6465,-2.6396,-2.6396,-2.6361,-2.6327,-2.6361,-2.6396,-2.6396,-2.6499,-2.6499,-2.6499,-2.6499,-2.6465,-2.6396,-2.6396,-2.6361,-2.6258,-2.6131,-2.6258,-2.6374,-2.6236,-2.6374,-2.6499,-2.6499,-2.6499,-2.6549,-2.6738,-2.6776,-2.6839,-2.7014,-2.7318,-2.7557,-2.7557,-2.7871,-2.8109,-2.8109,-2.8109,-2.8109,-2.8109,-2.8109,-2.8109,-2.8109,-2.8109,-2.8109,-2.8109,-2.8109,-2.8109,-2.8109,-2.8109,-2.7745,-2.7052,-2.6864,-2.6776,-2.6763,-2.6575,-2.6499,0.0,0.0,0.0,-1.2922,-1.4048,-1.5009,-1.5542,0.0,-1.736,0.0,0.0,0.0,0.0,0.0,0.0,0.0,0.0,0.0,0.0,0.0,0.0,0.0,0.0,0.0,0.0,0.0,0.0,0.0,0.0,-2.6474,-2.6499,-2.6499,-2.6499,-2.6499,-2.6499,-2.6499,-2.6499,-2.6499,-2.6499,-2.6499,-2.6499,-2.6499,-2.6499,-2.6499,-2.6499,-2.6499,-2.6499,-2.6499,-2.6499,-2.6499,-2.6499,-2.6499,-2.6487,-2.6487,-2.6487,-2.6487,-2.6374,-2.6179,-2.6179,-2.6062,-2.5945,-2.6131,-2.6179,-2.6236,-2.643,-2.6487,-2.6487,-2.6487,-2.6339,-2.6179,-2.6179,-2.6062,-2.591,-2.5898,-2.6062,-2.6226,-2.6191,-2.6377,-2.6537,-2.6524,-2.6537,-2.6713,-2.7218,-2.7306,-2.7494,-2.8021,-2.8122,-2.8134,-2.8134,-2.8147,-2.816,-2.816,-2.816,-2.816,-2.816,-2.816,-2.816,-2.816,-2.816,-2.816,-2.816,-2.816,-2.816,-2.816,-2.816,-2.816,-2.816,-2.7582,-2.7306,-2.7329,-2.6788,-2.6549,-1.0543,0.0,0.0,0.0,0.0,0.0,0.0,0.0,0.0,0.0,0.0,0.0,0.0,0.0,0.0,0.0,0.0,0.0,0.0,0.0,0.0,0.0,0.0,0.0,0.0,0.0,0.0,0.0,-2.5837,-2.6047,-2.6474,-2.6499,-2.6499,-2.6499,-2.6499,-2.6499,-2.6499,-2.6499,-2.6499,-2.6499,-2.6499,-2.6499,-2.6499,-2.6499,-2.6499,-2.6499,-2.6339,-2.627,-2.627,-2.627,-2.627,-2.627,-2.6119,-2.6084,-2.6084,-2.6084,-2.6015,-2.598,-2.598,-2.5945,-2.591,-2.5945,-2.598,-2.598,-2.605,-2.6084,-2.6084,-2.6084,-2.6015,-2.598,-2.598,-2.5945,-2.5863,-2.5723,-2.6228,-2.6689,-2.6404,-2.6903,-2.7365,-2.7143,-2.7274,-2.7527,-2.7822,-2.7774,-2.7764,-2.8048,-2.8448,-2.8662,-2.8662,-2.9063,-2.9327,-2.9327,-2.9327,-2.9327,-2.9327,-2.9327,-2.9327,-2.9327,-2.9327,-2.9327,-2.9327,-2.9327,-2.9327,-2.9327,-2.9327,-2.9327,-2.9327,-2.8348,-2.7871,-2.7871,-2.772,-2.7657,-1.0344,-1.0797,-1.136,-1.1996,0.0,0.0,-1.4111,-1.4965,0.0,0.0,0.0,0.0,0.0,0.0,0.0,0.0,0.0,0.0,0.0,0.0,0.0,0.0,0.0,0.0,0.0,0.0,0.0,-2.5234,-2.5272,-2.5511,-2.6097,-2.6361,-2.6499,-2.6499,-2.6499,-2.6499,-2.6499,-2.6499,-2.6499,-2.6499,-2.6176,-2.6176,-2.6499,-2.6129,-2.6141,-2.6361,-2.6236,-2.6131,-2.6062,-2.598,-2.598,-2.6062,-2.5945,-2.591,-2.591,-2.591,-2.584,-2.5758,-2.5758,-2.5723,-2.5641,-2.5758,-2.5758,-2.5793,-2.5875,-2.591,-2.591,-2.591,-2.5828,-2.5758,-2.5676,-2.5811,-2.5934,-2.5827,-2.6443,-2.7029,-2.6773,-2.7397,-2.7891,-2.7443,-2.7532,-2.7792,-2.8114,-2.8089,-2.8126,-2.8462,-2.8862,-2.9112,-2.9112,-2.9489,-2.9792,-2.9792,-2.9792,-2.9792,-2.9792,-2.9792,-2.9792,-2.9792,-2.9792,-2.9753,-2.965,-2.965,-2.9573,-2.9507,-2.9507,-2.9507,-2.9507,-2.8762,-2.8335,-2.8109,-2.8109,-2.8109,-1.0144,-1.0344,-1.0694,0.0,0.0,0.0,-1.3034,-1.425,-1.5349,0.0,0.0,0.0,0.0,0.0,0.0,0.0,0.0,0.0,0.0,0.0,0.0,0.0,0.0,0.0,0.0,-2.3477,-2.4042,-2.4562,-2.4725,-2.5046,-2.5573,-2.6122,-2.6424,-2.6499,-2.6418,-2.6383,-2.6383,-2.628,-2.6233,-2.6233,-2.5523,-2.5523,-2.6164,-2.5453,-2.5453,-2.6015,-2.6027,-2.5945,-2.5828,-2.5653,-2.5688,-2.5863,-2.5828,-2.5828,-2.5828,-2.5828,-2.5723,-2.5571,-2.5571,-2.5453,-2.5347,-2.55,-2.5571,-2.5606,-2.5793,-2.5828,-2.5828,-2.5828,-2.576,-2.562,-2.5431,-2.5793,-2.619,-2.619,-2.6747,-2.7296,-2.7258,-2.7835,-2.8194,-2.7716,-2.7618,-2.7815,-2.8293,-2.8379,-2.8539,-2.9018,-2.9236,-2.938,-2.9419,-2.9611,-2.9753,-2.9753,-2.9753,-2.9753,-2.9702,-2.9714,-2.9714,-2.9714,-2.9714,-2.9624,-2.938,-2.938,-2.9275,-2.9131,-2.9131,-2.9131,-2.9091,-2.887,-2.8612,-2.8248,-2.8138,-2.8138,0.0,0.0,0.0,0.0,0.0,0.0,-1.2049,-1.2665,-1.3264,0.0,0.0,0.0,0.0,0.0,0.0,0.0,0.0,0.0,0.0,0.0,0.0,0.0,0.0,0.0,0.0,-2.2322,-2.2844,-2.3396,-2.4274,-2.5046,-2.5573,-2.5699,-2.6009,-2.6474,-2.5886,-2.5523,-2.5523,-2.4886,-2.4552,-2.4552,-2.4409,-2.4337,-2.4325,-2.4145,-2.4409,-2.4969,-2.4826,-2.5087,-2.5641,-2.543,-2.55,-2.5641,-2.55,-2.5418,-2.5418,-2.5418,-2.5382,-2.5347,-2.5347,-2.5347,-2.5312,-2.5347,-2.5347,-2.5382,-2.5418,-2.5418,-2.5418,-2.5418,-2.5696,-2.5985,-2.5937,-2.6358,-2.6729,-2.6729,-2.7315,-2.7817,-2.7637,-2.8164,-2.8621,-2.8379,-2.8421,-2.8641,-2.8919,-2.8802,-2.88,-2.9079,-2.9131,-2.9236,-2.938,-2.947,-2.947,-2.947,-2.947,-2.9392,-2.926,-2.926,-2.926,-2.926,-2.926,-2.9209,-2.917,-2.917,-2.9236,-2.9341,-2.9341,-2.9275,-2.9091,-2.8354,-2.8403,-2.9146,-2.8255,-2.8307,0.0,0.0,0.0,-1.0783,0.0,0.0,0.0,0.0,-1.2088,-1.217,0.0,0.0,0.0,0.0,0.0,0.0,0.0,0.0,0.0,0.0,0.0,0.0,0.0,0.0,0.0,-2.0615,-2.1506,-2.2526,-2.3059,-2.373,-2.4596,-2.4842,-2.5228,-2.5902,-2.553,-2.5194,-2.5004,-2.4301,-2.3891,-2.3818,-2.3415,-2.3379,-2.3635,-2.3268,-2.3415,-2.3963,-2.3854,-2.4192,-2.4862,-2.4743,-2.5004,-2.543,-2.5347,-2.5312,-2.5312,-2.5312,-2.5312,-2.5312,-2.5312,-2.5312,-2.5312,-2.5312,-2.5312,-2.5312,-2.5312,-2.5492,-2.5709,-2.5709,-2.6093,-2.6514,-2.6514,-2.656,-2.6771,-2.7205,-2.7433,-2.7684,-2.8035,-2.8397,-2.8618,-2.851,-2.8578,-2.8697,-2.8776,-2.8697,-2.8697,-2.8788,-2.8973,-2.9091,-2.9106,-2.9263,-2.9341,-2.9275,-2.9236,-2.9197,-2.9091,-2.9091,-2.9091,-2.9091,-2.9091,-2.9052,-2.8961,-2.8961,-2.9,-2.9106,-2.9,-2.8961,-2.8961,-2.7516,-2.7424,-2.8569,-2.7585,-2.7424,0.0,0.0,0.0,0.0,0.0,-1.0958,0.0,0.0,0.0,0.0,0.0,0.0,0.0,0.0,0.0,0.0,0.0,0.0,0.0,0.0,0.0,0.0,0.0,0.0,0.0,-1.8958,-2.0225,-2.165,-2.1723,-2.2147,-2.3249,-2.3586,-2.4084,-2.4813,-2.4671,-2.4506,-2.4264,-2.361,-2.3231,-2.3047,-2.2435,-2.2472,-2.2973,-2.2397,-2.2397,-2.2925,-2.2925,-2.3379,-2.4108,-2.4108,-2.448,-2.5075,-2.5229,-2.5312,-2.5312,-2.5312,-2.5312,-2.5264,-2.5123,-2.5087,-2.5052,-2.4898,-2.5004,-2.523,-2.5421,-2.5721,-2.5992,-2.5992,-2.6261,-2.6523,-2.6523,-2.6394,-2.6525,-2.738,-2.742,-2.7429,-2.8299,-2.851,-2.851,-2.851,-2.851,-2.851,-2.851,-2.851,-2.851,-2.851,-2.8788,-2.8934,-2.8843,-2.9067,-2.9223,-2.9052,-2.9052,-2.9013,-2.8973,-2.9013,-2.9013,-2.8973,-2.9013,-2.8961,-2.8764,-2.8803,-2.8803,-2.8724,-2.8618,-2.8538,-2.8474,-2.6689,-2.6483,-2.7718,-2.6607,-2.6235,0.0,0.0,0.0,0.0,-1.1241,0.0,0.0,0.0,-1.0064,-0.9711,0.0,0.0,0.0,0.0,0.0,0.0,0.0,0.0,0.0,0.0,0.0,0.0,0.0,0.0,0.0,0.0,0.0,-2.0344,-2.0742,-2.1231,-2.1898,-2.1797,-2.2162,-2.3128,-2.2496,-2.2291,-2.2649,-2.1901,-2.1492,-2.1464,-2.1387,-2.1282,-2.1205,-2.1128,-2.1415,-2.1945,-2.1945,-2.275,-2.4108,-2.4108,-2.4145,-2.4301,-2.5016,-2.5312,-2.5312,-2.5312,-2.5312,-2.5194,-2.448,-2.4228,-2.412,-2.3463,-2.4025,-2.5082,-2.5779,-2.5851,-2.5666,-2.5666,-2.5425,-2.5235,-2.5235,-2.5546,-2.6116,-2.7052,-2.7221,-2.7429,-2.8299,-2.851,-2.851,-2.851,-2.851,-2.851,-2.851,-2.851,-2.851,-2.851,-2.855,-2.8618,-2.8803,-2.8843,-2.887,-2.8843,-2.8843,-2.8764,-2.859,-2.8724,-2.8764,-2.859,-2.8736,-2.8724,-2.855,-2.8724,-2.8724,-2.855,-2.8685,-2.8315,-2.7389,-2.6329,-2.64,-2.7476,-2.561,-2.5231,0.0,0.0,0.0,0.0,0.0,0.0,-1.0656,0.0,-0.9706,0.0,0.0,0.0,0.0,0.0,0.0,0.0,0.0,0.0,0.0,0.0,0.0,0.0,0.0,0.0,0.0,0.0,0.0,0.0,0.0,-1.9268,-2.0455,-2.0388,-2.0895,-2.221,-2.1905,-2.1808,-2.2059,-2.1377,-2.0974,-2.0848,-2.0848,-2.0809,-2.0731,-2.0731,-2.0876,-2.1088,-2.1088,-2.1756,-2.2761,-2.2761,-2.3058,-2.35,-2.3841,-2.3986,-2.4022,-2.4456,-2.4348,-2.3913,-2.3573,-2.3463,-2.3545,-2.3973,-2.4299,-2.4663,-2.5527,-2.5538,-2.5254,-2.5254,-2.5367,-2.5607,-2.6151,-2.6049,-2.6163,-2.7632,-2.7563,-2.7429,-2.8299,-2.851,-2.851,-2.851,-2.851,-2.851,-2.851,-2.851,-2.851,-2.851,-2.8618,-2.8657,-2.8618,-2.8724,-2.8764,-2.8657,-2.8618,-2.8578,-2.851,-2.8578,-2.8578,-2.851,-2.8578,-2.8578,-2.851,-2.8578,-2.8657,-2.8657,-2.8155,-2.7701,-2.7366,-2.583,-2.5284,-2.5735,-2.4317,-2.393,-1.5422,0.0,0.0,0.0,0.0,0.0,0.0,0.0,0.0,0.0,0.0,0.0,0.0,0.0,0.0,0.0,0.0,0.0,0.0,0.0,0.0,0.0,0.0,0.0,0.0,0.0,0.0,0.0,0.0,0.0,-1.9031,-1.9008,-1.9551,-2.0872,-2.1007,-2.1104,-2.1277,-2.0971,-2.0731,-2.0605,-2.0605,-2.0605,-2.0605,-2.0605,-2.0605,-2.0605,-2.0605,-2.1059,-2.1794,-2.1794,-2.2134,-2.2686,-2.292,-2.2734,-2.2472,-2.3463,-2.3463,-2.2968,-2.2886,-2.2799,-2.2883,-2.4012,-2.427,-2.4277,-2.5161,-2.5176,-2.4854,-2.4854,-2.4975,-2.5284,-2.6216,-2.5746,-2.5568,-2.7672,-2.747,-2.7133,-2.8259,-2.8299,-2.8139,-2.8139,-2.7926,-2.7753,-2.7753,-2.7966,-2.8139,-2.8139,-2.8063,-2.7931,-2.7794,-2.7903,-2.7931,-2.7794,-2.7753,-2.7753,-2.7753,-2.7822,-2.7822,-2.7822,-2.7794,-2.7753,-2.7753,-2.7753,-2.7822,-2.7971,-2.7203,-2.6794,-2.6689,-2.52,-2.437,-2.4112,-2.344,-2.3091,0.0,0.0,0.0,-1.3495,0.0,0.0,0.0,0.0,-1.0192,0.0,0.0,0.0,0.0,0.0,0.0,0.0,0.0,0.0,0.0,0.0,0.0,0.0,0.0,0.0,0.0,0.0,0.0,0.0,0.0,0.0,-1.7616,-1.7536,-1.785,-1.8693,-1.9154,-1.9549,-1.9969,-2.039,-2.0605,-2.0605,-2.0605,-2.0605,-2.0605,-2.0605,-2.0605,-2.0605,-2.0605,-2.1059,-2.1794,-2.1794,-2.1842,-2.1907,-2.2697,-2.2059,-2.0867,-2.2462,-2.3032,-2.2948,-2.2555,-2.2191,-2.2083,-2.2889,-2.3473,-2.394,-2.4762,-2.4764,-2.452,-2.452,-2.3854,-2.3387,-2.4327,-2.3897,-2.3854,-2.6599,-2.6547,-2.6329,-2.8139,-2.7846,-2.7226,-2.7226,-2.6505,-2.5902,-2.5902,-2.6629,-2.7226,-2.7226,-2.6453,-2.5902,-2.5902,-2.5902,-2.5902,-2.5902,-2.5902,-2.5902,-2.5902,-2.6088,-2.6202,-2.6202,-2.5975,-2.5902,-2.5902,-2.5902,-2.5902,-2.5902,-2.5861,-2.5411,-2.4616,-2.4541,-2.4026,-2.3135,-2.3091,-2.3091,0.0,0.0,-1.5843,-1.5059,0.0,0.0,0.0,0.0,0.0,0.0,0.0,0.0,0.0,0.0,0.0,0.0,0.0,0.0,0.0,0.0,0.0,0.0,0.0,0.0,0.0,0.0,0.0,0.0,0.0,0.0,0.0,-1.6646,-1.7344,-1.8159,-1.8916,-1.9482,-1.9912,-2.039,-2.0605,-2.0605,-2.0605,-2.0605,-2.0605,-2.0605,-2.0605,-2.0605,-2.0605,-2.075,-2.1021,-2.1021,-2.1021,-2.1011,-2.1318,-2.124,-2.1085,-2.1918,-2.2039,-2.1835,-2.202,-2.2182,-2.2421,-2.3309,-2.3437,-2.3503,-2.4387,-2.4161,-2.356,-2.356,-2.3343,-2.3309,-2.4241,-2.4241,-2.4413,-2.5913,-2.6038,-2.5955,-2.6577,-2.6494,-2.6287,-2.6287,-2.6038,-2.5777,-2.5777,-2.5579,-2.5631,-2.6205,-2.5997,-2.5777,-2.5777,-2.5777,-2.5777,-2.5777,-2.5777,-2.5777,-2.5777,-2.5861,-2.5891,-2.5891,-2.5861,-2.5777,-2.5777,-2.5777,-2.5777,-2.5777,-2.5242,-2.4787,-2.4498,-2.3864,-2.3396,-2.3091,-2.3091,-2.3091,-1.8796,-1.7725,0.0,-1.5821,-1.4739,0.0,-1.2777,0.0,0.0,0.0,0.0,0.0,0.0,0.0,0.0,0.0,0.0,0.0,0.0,0.0,0.0,0.0,0.0,0.0,0.0,0.0,0.0,0.0,0.0,0.0,0.0,0.0,-1.6894,-1.7764,-1.8613,-1.9258,-1.9687,-2.0117,-2.0449,-2.0605,-2.0605,-2.0605,-2.0605,-2.0605,-2.0605,-2.0605,-2.0605,-2.0605,-2.0605,-2.0605,-2.0605,-2.0615,-2.0742,-2.0977,-2.1241,-2.1478,-2.16,-2.1728,-2.2012,-2.2383,-2.282,-2.3388,-2.3332,-2.3222,-2.382,-2.356,-2.3091,-2.3091,-2.3091,-2.3309,-2.4241,-2.4241,-2.4317,-2.5526,-2.5568,-2.5411,-2.5746,-2.5579,-2.5326,-2.5326,-2.5073,-2.4861,-2.4861,-2.436,-2.4327,-2.52,-2.5073,-2.4861,-2.4861,-2.4861,-2.4861,-2.4861,-2.4861,-2.4861,-2.4861,-2.4861,-2.4861,-2.4861,-2.4861,-2.4861,-2.4861,-2.4861,-2.4861,-2.4861,-2.4274,-2.3983,-2.3983,-2.3387,-2.3091,-2.3091,-2.3091,-2.3091]},{"header":{"parameterUnit":"m.s-1","parameterCategory":1,"la1":30.6,"la2":29.2853,"lo1":-89.7004,"lo2":-87.6739,"dx":0.0162,"dy":0.0183,"nx":112,"ny":82,"refTime":"2022-11-29T06:00:00:Z","depth":0,"parameterNumber":3,"parameterNumberName":"V-component_of_WINDS"},"data":[0.0,0.0,0.0,0.0,0.0,0.0,0.0,0.0,0.0,0.0,0.0,0.0,0.0,0.0,0.0,0.0,0.0,0.0,0.0,0.0,0.0,0.0,0.0,0.0,0.0,0.0,0.0,0.0,0.0,0.0,0.0,0.0,0.0,0.0,0.0,0.0,0.0,0.0,0.0,0.0,0.0,0.0,0.0,0.0,0.0,0.0,0.0,0.0,0.0,0.0,0.0,0.0,0.0,0.0,0.0,0.0,0.0,0.0,0.0,0.0,0.0,0.0,0.0,0.0,0.0,0.0,0.0,0.0,0.0,0.0,0.0,0.0,0.0,0.0,0.0,0.0,0.0,0.0,0.0,0.0,0.0,0.0,0.0,0.0,0.0,0.0,0.0,0.0,0.0,0.0,0.9781,1.0653,1.2031,1.2705,1.2215,1.2075,1.1302,0.9666,0.0,0.0,0.0,0.0,0.0,0.0,0.0,0.0,0.0,0.0,0.0,0.0,0.0,0.0,0.0,0.0,0.0,0.0,0.0,0.0,0.0,0.0,0.0,0.0,0.0,0.0,0.0,0.0,0.0,0.0,0.0,0.0,0.0,0.0,0.0,0.0,0.0,0.0,0.0,0.0,0.0,0.0,0.0,0.0,0.0,0.0,0.0,0.0,0.0,0.0,0.0,0.0,0.0,0.0,0.0,0.0,0.0,0.0,0.0,0.0,0.0,0.0,0.0,0.0,0.0,0.0,0.0,0.0,0.0,0.0,0.0,0.0,0.0,0.0,0.0,0.0,0.0,0.0,0.0,0.0,0.0,0.0,0.0,0.0,0.0,0.0,0.0,0.0,0.0,0.0,0.0,0.0,0.0,0.0,0.0,0.0,0.0,0.0,0.0,0.0,0.0,0.0,0.0,0.0,1.0648,1.218,1.2676,1.2902,1.2918,1.2356,1.1515,1.0407,0.0,0.0,0.0,0.0,0.0,0.0,0.0,0.0,0.0,0.0,0.0,0.0,0.0,0.0,0.0,0.0,0.0,0.0,0.0,0.0,0.0,0.0,0.0,0.0,0.0,0.0,0.0,0.0,0.0,0.0,0.0,0.0,0.0,0.0,0.0,0.0,0.0,0.0,0.0,0.0,0.0,0.0,0.0,0.0,0.0,0.0,0.0,0.0,0.0,0.0,0.0,0.0,0.0,0.0,0.0,0.0,0.0,0.0,0.0,0.0,0.0,0.0,0.0,0.0,0.0,0.0,0.0,0.0,0.0,0.0,0.0,0.0,0.0,0.0,0.0,0.0,0.0,0.0,0.0,0.0,0.0,0.0,0.0,0.0,0.0,0.0,0.0,0.0,0.0,0.0,0.0,0.0,0.0,0.0,0.0,0.0,0.0,0.0,0.0,0.0,0.0,0.0,0.0,1.074,1.1499,1.2502,1.2841,1.2986,1.294,1.2726,1.2025,1.0695,1.0413,0.0,0.0,0.0,0.0,0.0,0.0,0.0,0.0,0.0,0.0,0.0,0.0,0.0,0.0,0.0,0.0,0.0,0.0,0.0,0.0,0.0,0.0,0.0,0.0,0.0,0.0,0.0,0.0,0.0,0.0,0.0,0.0,0.0,0.0,0.0,0.0,0.0,0.0,0.0,0.0,0.0,0.0,0.0,0.0,0.0,0.0,0.0,0.0,0.0,0.0,0.0,0.0,0.0,0.0,0.0,0.0,0.0,0.0,0.0,0.0,0.0,0.0,0.0,0.0,0.0,0.0,0.0,0.0,0.0,0.0,0.0,0.0,0.0,0.0,0.0,0.0,0.0,0.0,0.0,0.0,0.0,0.0,0.0,0.0,0.0,0.0,0.0,0.0,0.0,0.0,0.0,0.0,0.0,0.0,0.0,0.0,0.0,0.0,0.0,0.0,0.0,0.0,1.1458,1.2401,1.2776,1.3219,1.3402,1.3146,1.3268,1.2676,1.1059,1.0914,0.0,0.0,0.0,0.0,0.0,0.0,0.0,0.0,0.0,0.0,0.0,0.0,0.0,0.0,0.0,0.0,0.0,0.0,0.0,0.0,0.0,0.0,0.0,0.0,0.0,0.0,0.0,0.0,0.0,0.0,0.0,0.0,0.0,0.0,0.0,0.0,0.0,0.0,0.0,0.0,0.0,0.0,0.0,0.0,0.0,0.0,0.0,0.0,0.0,0.0,0.0,0.0,0.0,0.0,0.0,0.0,0.0,0.0,0.0,0.0,0.0,0.0,0.0,0.0,0.0,0.0,0.0,0.0,0.0,0.0,0.0,0.0,0.0,0.0,0.0,0.0,0.0,0.0,0.0,0.0,0.0,0.0,0.0,0.0,0.0,0.0,0.0,0.0,0.0,0.0,0.0,0.0,0.0,0.0,0.0,0.0,0.0,0.0,0.0,0.0,0.0,0.0,1.2126,1.3394,1.3682,1.4288,1.4513,1.413,1.4109,1.3434,1.1816,1.121,0.0,0.0,0.0,0.0,0.0,0.0,0.0,0.0,0.0,0.0,0.0,0.0,0.0,0.0,0.0,0.0,0.0,0.0,0.0,0.0,0.0,0.0,0.0,0.0,0.0,0.0,0.0,0.0,0.0,0.0,0.0,0.0,0.0,0.0,0.0,0.0,0.0,0.0,0.0,0.0,0.0,0.0,0.0,0.0,0.0,0.0,0.0,0.0,0.0,0.0,0.0,0.0,0.0,0.0,0.0,0.0,0.0,0.0,0.0,0.0,0.0,0.0,0.0,0.0,0.0,0.0,0.0,0.0,0.0,0.0,0.0,0.0,0.0,0.0,0.0,0.0,0.0,0.0,0.0,0.0,0.0,0.0,0.0,0.0,0.0,0.0,0.0,0.0,0.0,0.0,0.0,0.0,0.0,0.0,0.0,0.0,0.0,0.0,0.0,0.0,0.0,0.0,1.2033,1.3418,1.3419,1.4249,1.4767,1.4694,1.438,1.3752,1.2684,0.0,0.0,0.0,0.0,0.0,0.0,0.0,0.0,0.0,0.0,0.0,0.0,0.0,0.0,0.0,0.0,0.0,0.0,0.0,0.0,0.0,0.0,0.0,0.0,0.0,0.0,0.0,0.0,0.0,0.0,0.0,0.0,0.0,0.0,0.0,0.0,0.0,0.0,0.0,0.0,0.0,0.0,0.0,0.0,0.0,0.0,0.0,0.0,0.0,0.0,0.0,0.0,0.0,0.0,0.0,0.0,0.0,0.0,0.0,0.0,0.0,0.0,0.0,0.0,0.0,0.0,0.0,0.0,0.0,0.0,0.0,0.0,0.0,0.0,0.0,0.0,0.0,0.0,0.0,0.0,0.0,0.0,0.0,0.0,0.0,0.0,0.0,0.0,0.0,0.0,0.0,0.0,0.0,0.0,0.0,0.0,0.0,0.0,0.0,0.0,0.0,0.0,1.0163,1.2088,1.3513,1.3728,1.4617,1.5185,1.5133,1.4892,1.43,1.3257,0.0,0.0,0.0,0.0,0.0,0.0,0.0,0.0,0.0,0.0,0.0,0.0,0.0,0.0,0.0,0.0,0.0,0.0,0.0,0.0,0.0,0.0,0.0,0.0,0.0,0.0,0.0,0.0,0.0,0.0,0.0,0.0,0.0,0.0,0.0,0.0,0.0,0.0,0.0,0.0,0.0,0.0,0.0,0.0,0.0,0.0,0.0,0.0,0.0,0.0,0.0,0.0,0.0,0.0,0.0,0.0,0.0,0.0,0.0,0.0,0.0,0.0,0.0,0.0,0.0,0.0,0.0,0.0,0.0,0.0,0.0,0.0,0.0,0.0,0.0,0.0,0.0,0.0,0.0,0.0,0.0,0.0,0.0,0.0,0.0,0.0,0.0,0.0,0.0,0.0,0.0,0.0,0.0,0.0,0.0,0.0,0.0,0.0,0.0,0.0,0.0,0.0,1.0713,1.2402,1.3866,1.4798,1.5614,1.5929,1.5452,1.5707,1.5197,0.0,0.0,0.0,0.0,0.0,0.0,0.0,0.0,0.0,0.0,0.0,0.0,0.0,0.0,0.0,0.0,0.0,0.0,0.0,0.0,0.0,0.0,0.0,0.0,0.0,0.0,0.0,0.0,0.0,0.0,0.0,0.0,0.0,0.0,0.0,0.0,0.0,0.0,0.0,0.0,0.0,0.0,0.0,0.0,0.0,0.0,0.0,0.0,0.0,0.0,0.0,0.0,0.0,0.0,0.0,0.0,0.0,0.0,0.0,0.0,0.0,0.0,0.0,0.0,0.0,0.0,0.0,0.0,0.0,0.0,0.0,0.0,0.0,0.0,0.0,0.0,0.0,0.0,0.0,0.0,0.0,0.0,0.0,0.0,0.0,0.0,0.0,0.0,0.0,0.0,0.0,0.0,0.0,0.0,0.0,0.0,0.0,0.0,0.0,0.0,0.0,0.0,0.0,1.1262,1.3025,1.4398,1.4911,1.5737,1.6262,1.632,1.6112,1.5593,1.4665,0.0,0.0,0.0,0.0,0.0,0.0,0.0,0.0,0.0,0.0,0.0,0.0,0.0,0.0,0.0,0.0,0.0,0.0,0.0,0.0,0.0,0.0,0.0,0.0,0.0,0.0,0.0,0.0,0.0,0.0,0.0,0.0,0.0,0.0,0.0,0.0,0.0,0.0,0.0,0.0,0.0,0.0,0.0,0.0,0.0,0.0,0.0,0.0,0.0,0.0,0.0,0.0,0.0,0.0,0.0,0.0,0.0,0.0,0.0,0.0,0.0,0.0,0.0,0.0,0.0,0.0,0.0,0.0,0.0,0.0,0.0,0.0,0.0,0.0,0.0,0.0,0.0,0.0,0.0,0.0,0.0,0.0,0.0,0.0,0.0,0.0,0.0,0.0,0.0,0.0,0.0,0.0,0.0,0.0,0.0,0.0,0.0,0.0,0.0,0.0,0.0,0.0,1.1875,1.3401,1.4597,1.5072,1.5613,1.6023,1.6215,1.6056,1.5678,1.5019,0.0,0.0,0.0,0.0,0.0,0.0,0.0,0.0,0.0,0.0,0.0,0.0,0.0,0.0,0.0,0.0,0.0,0.0,0.0,0.0,0.0,0.0,0.0,0.0,0.0,0.0,0.0,0.0,0.0,0.0,0.0,0.0,0.0,0.0,0.0,0.0,0.0,0.0,0.0,0.0,0.0,0.0,0.0,0.0,0.0,0.0,0.0,0.0,0.0,0.0,0.0,0.0,0.0,0.0,0.0,0.0,0.0,0.0,0.0,0.0,0.0,0.0,0.0,0.0,0.0,0.0,0.0,0.0,0.0,0.0,0.0,0.0,0.0,0.0,0.0,0.0,0.0,0.0,0.0,0.0,0.0,0.0,0.0,0.0,0.0,0.0,0.0,0.0,0.0,0.0,0.0,0.0,0.0,0.0,0.0,0.0,0.0,0.0,0.0,0.0,0.0,0.0,1.2573,1.3702,1.4674,1.5312,1.552,1.5624,1.5669,1.5873,1.567,1.4958,0.0,0.0,0.0,0.0,0.0,0.0,0.0,0.0,0.0,0.0,0.0,0.0,0.0,0.0,0.0,0.0,0.0,0.0,0.0,0.0,0.0,0.0,0.0,0.0,0.0,0.0,0.0,0.0,0.0,0.0,0.0,0.0,0.0,0.0,0.0,0.0,0.0,0.0,0.0,0.0,0.0,0.0,0.0,0.0,0.0,0.0,0.0,0.0,0.0,0.0,0.0,0.0,0.0,0.0,0.0,0.0,0.0,0.0,0.0,0.0,1.0338,0.0,0.0,0.0,0.0,0.0,0.0,0.0,0.0,0.0,0.0,0.0,0.0,0.0,0.0,0.0,0.0,0.0,0.0,0.0,0.0,0.0,0.0,0.0,0.0,0.0,0.0,0.0,0.0,0.0,0.0,0.0,0.0,0.0,0.0,0.0,0.0,0.0,0.0,0.0,0.0,0.0,1.3733,1.4785,1.5567,1.5964,1.662,1.7057,1.7057,1.6848,1.6424,1.5784,1.497,0.0,0.0,0.0,0.0,0.0,0.0,0.0,0.0,0.0,0.0,0.0,0.0,0.0,0.0,0.0,0.0,0.0,0.0,0.0,0.0,0.0,0.0,0.0,0.0,0.0,0.0,0.0,0.0,0.0,0.0,0.0,0.0,0.0,0.0,0.0,0.0,0.0,0.0,0.0,0.0,0.0,0.0,0.0,0.0,0.0,0.0,0.0,0.0,0.0,0.0,0.0,0.0,0.0,0.0,0.0,0.0,0.0,0.0,0.0,0.0,0.9828,0.0,0.0,0.0,0.0,0.0,0.0,0.0,0.0,0.0,0.0,0.0,0.0,0.0,0.0,0.0,0.0,0.0,0.0,0.0,0.0,0.0,0.0,0.0,0.0,0.0,0.0,0.0,0.0,0.0,0.0,0.0,0.0,0.0,0.0,0.0,0.0,0.0,0.0,0.0,0.0,1.4674,1.5736,1.6479,1.6675,1.7096,1.737,1.7401,1.7176,1.6813,1.6263,1.5619,0.0,0.0,0.0,0.0,0.0,0.0,0.0,0.0,0.0,0.0,0.0,0.0,0.0,0.0,0.0,0.0,0.0,0.0,0.0,0.0,0.0,0.0,0.0,0.0,0.0,0.0,0.0,0.0,0.0,0.0,0.0,0.0,0.0,0.0,0.0,0.0,0.0,0.0,0.0,0.0,0.0,0.0,0.0,0.0,0.0,0.0,0.0,0.0,0.0,0.0,0.0,0.0,0.0,1.1858,1.2375,1.329,1.3403,1.3571,1.3679,1.2184,1.0994,1.0122,1.0272,0.0,0.0,0.0,0.0,0.0,0.0,0.0,0.0,0.0,0.0,0.0,0.0,0.0,0.0,0.0,0.0,0.0,0.0,0.0,0.0,0.0,0.0,0.0,0.0,1.1665,1.1737,0.0,0.0,0.0,0.0,0.0,0.0,0.0,0.0,0.0,0.0,0.0,0.0,1.5602,1.6599,1.7291,1.7357,1.7475,1.7551,1.7617,1.7464,1.7173,1.6699,1.6112,1.5014,0.0,0.0,0.0,0.0,0.0,0.0,0.0,0.0,0.0,0.0,0.0,0.0,0.0,0.0,0.0,0.0,0.0,0.0,0.0,0.0,0.0,0.0,0.0,0.0,0.0,0.0,0.0,0.0,0.0,0.0,0.0,0.0,0.7589,0.8115,0.0,0.0,0.0,0.0,0.0,0.0,0.0,0.0,0.0,0.0,0.0,0.0,0.0,1.1468,1.1858,1.2033,1.232,1.2718,1.3248,1.3806,1.442,1.4994,1.5081,1.4799,1.4555,0.0,1.2118,1.208,0.0,0.0,0.0,0.0,0.0,0.0,0.0,0.0,0.0,0.0,0.0,0.0,0.0,0.0,0.0,0.0,0.0,0.0,0.0,0.0,0.0,0.0,1.2611,1.2238,1.2455,1.271,0.0,1.193,1.1384,1.1427,1.134,0.0,0.0,0.0,0.0,0.0,0.0,0.0,1.6758,1.7305,1.7694,1.8035,1.855,1.8854,1.8873,1.8375,1.7885,1.7396,1.6601,1.5735,1.4833,1.3397,0.0,0.0,0.0,0.0,0.0,0.0,0.0,0.0,0.0,0.0,0.0,0.0,0.0,0.0,0.0,0.0,0.0,0.0,0.0,0.0,0.0,0.0,0.0,0.0,0.0,0.0,0.0,0.0,0.0,0.7879,0.8052,0.8581,0.8888,0.9234,0.0,0.0,0.0,0.0,0.0,0.0,0.0,0.0,0.0,1.1884,1.2553,1.2945,1.3027,1.3703,1.4032,1.4025,1.4292,1.4633,1.5059,1.5358,1.5639,1.5882,1.5622,1.5246,1.4753,1.4012,1.344,1.309,0.0,0.0,0.0,0.0,1.2626,1.2602,1.2402,1.2479,0.0,1.2561,0.0,0.0,0.0,0.0,0.0,0.0,0.0,0.0,0.0,0.0,1.4564,1.4227,1.4752,1.5316,1.5316,1.5006,1.4398,0.0,1.2894,1.3042,1.3836,0.0,0.0,0.0,0.0,1.6484,1.6976,1.7656,1.8167,1.8361,1.8811,1.9101,1.9101,1.8854,1.8458,1.7916,1.7545,1.6688,1.5266,1.457,1.3591,0.0,0.0,0.0,0.0,0.0,0.0,0.0,0.0,0.0,0.0,0.0,0.0,0.0,0.0,0.0,0.0,0.0,0.0,0.0,0.0,0.0,0.0,0.0,0.0,0.0,0.0,0.0,0.0,0.8526,0.8752,0.9207,0.9644,1.0067,0.0,0.0,0.0,0.0,0.0,0.0,1.1701,1.2271,1.2696,1.2953,1.3842,1.418,1.3933,1.4828,1.5197,1.5038,1.5209,1.5396,1.5613,1.5788,1.6121,1.6554,1.6203,1.6316,1.6656,1.5485,1.4886,1.4709,1.4754,1.4557,1.4227,1.427,1.4369,1.4411,1.4156,1.4241,1.4439,1.434,0.0,1.3728,1.3927,0.0,0.0,0.0,0.0,1.5251,1.4957,1.5358,1.5775,1.549,1.6094,1.6743,1.6743,1.6812,1.6501,0.0,1.4769,1.4879,1.5536,0.0,0.0,0.0,0.0,1.7492,1.7476,1.8065,1.8553,1.8649,1.8917,1.9101,1.9101,1.9101,1.8805,1.8137,1.8162,1.7444,1.5779,1.5483,1.4674,1.3207,0.0,0.0,0.0,0.0,0.0,0.0,0.0,0.0,0.0,0.0,0.0,0.0,0.0,0.0,0.0,0.0,0.0,0.0,0.0,0.0,0.0,0.0,0.0,0.0,0.0,0.0,0.0,0.0,0.0,1.019,1.0859,0.0,0.0,0.0,0.0,1.2104,1.2588,1.3027,1.336,1.389,1.435,1.4765,1.4841,1.4847,1.4828,1.4897,1.5095,1.5385,1.6023,1.6264,1.6185,1.6825,1.6899,1.6498,1.6476,1.6752,1.7098,1.6206,1.5843,1.5816,1.5816,1.607,1.6452,1.6452,1.6676,1.7011,1.6994,1.6994,1.7011,1.7011,1.6343,1.5597,1.5794,1.5506,0.0,0.0,1.5937,1.5856,1.5467,1.5401,1.5352,1.5006,1.5209,1.5485,1.5485,1.5786,1.6265,0.0,1.7052,1.7035,1.7096,0.0,1.734,1.7977,1.7736,1.7852,1.8858,1.8698,1.8649,1.9026,1.9082,1.9101,1.9101,1.9101,1.8731,1.7867,1.8063,1.7786,1.6862,1.5851,1.5284,1.5257,1.335,0.0,0.0,0.0,0.0,0.0,0.0,0.0,0.0,0.0,0.0,0.0,0.0,0.0,0.0,0.0,0.0,0.0,0.0,0.0,0.0,0.0,0.0,0.0,0.0,0.0,0.0,0.0,0.0,1.133,1.1743,0.0,1.3119,1.3281,1.3604,1.421,1.4235,1.4261,1.4391,1.4575,1.4759,1.4903,1.5236,1.5412,1.5412,1.5756,1.617,1.6685,1.6922,1.7202,1.7502,1.774,1.7884,1.7962,1.7703,1.7839,1.8182,1.7626,1.72,1.6923,1.6923,1.6792,1.66,1.66,1.6498,1.6328,1.6127,1.6167,1.6342,1.6095,1.5811,1.5532,1.5591,1.5771,1.6051,1.6459,1.6661,1.6751,1.6591,1.6551,1.6531,1.6403,1.6672,1.6936,1.6936,1.7054,1.7248,1.7517,1.7068,1.6748,1.7136,1.7204,1.7271,1.7522,1.741,1.7337,1.7422,1.7564,1.772,1.7848,1.8108,1.8266,1.8266,1.8266,1.8127,1.7808,1.7875,1.7625,1.6921,1.6772,1.6551,1.6173,1.4963,1.4134,0.0,0.0,0.0,0.0,0.0,0.0,0.0,0.0,0.0,0.0,0.0,0.0,0.0,0.0,0.0,0.0,0.0,0.0,0.0,0.0,0.0,0.0,0.0,0.0,0.0,0.0,1.197,1.2358,1.2826,1.3366,1.4036,1.4184,1.4494,1.512,1.5138,1.5114,1.5133,1.5309,1.5517,1.5739,1.6091,1.6346,1.6534,1.6911,1.7275,1.7664,1.7664,1.7852,1.8204,1.8204,1.8356,1.8577,1.8309,1.8356,1.8577,1.8309,1.8111,1.7908,1.7584,1.7299,1.7047,1.6874,1.6797,1.6765,1.6521,1.6596,1.669,1.619,1.5997,1.5977,1.5821,1.6072,1.6521,1.6961,1.7157,1.7304,1.7497,1.7527,1.7527,1.7527,1.7731,1.7932,1.7932,1.7932,1.7932,1.7932,1.7319,1.6917,1.7327,1.7393,1.7521,1.7886,1.7663,1.7552,1.7756,1.7774,1.7795,1.7967,1.8208,1.8459,1.8625,1.8645,1.8563,1.8344,1.8485,1.8228,1.7466,1.7637,1.7543,1.715,1.626,1.5417,1.4592,0.0,0.0,0.0,0.0,0.0,0.0,0.0,0.0,0.0,0.0,0.0,0.0,0.0,0.0,0.0,0.0,0.0,0.0,0.0,0.0,0.0,0.0,0.0,1.2064,1.2836,1.3374,1.3283,1.4107,1.4754,1.4909,1.4909,1.4883,1.4798,1.5261,1.5583,1.5678,1.6156,1.6748,1.7388,1.7423,1.7664,1.8204,1.8204,1.8204,1.8229,1.8229,1.8242,1.8254,1.8254,1.8254,1.8254,1.8254,1.8254,1.8254,1.8254,1.8478,1.875,1.7796,1.768,1.7965,1.7439,1.7774,1.8478,1.8478,1.8478,1.8341,1.7521,1.723,1.7146,1.6701,1.655,1.6663,1.725,1.7423,1.7549,1.8066,1.8204,1.8204,1.8204,1.8204,1.8204,1.8204,1.8204,1.8204,1.8204,1.7987,1.7801,1.7801,1.7801,1.8167,1.9216,1.858,0.0,2.0045,1.9387,1.8966,1.9427,1.9472,1.9685,2.0215,2.0236,1.9971,1.9404,1.9775,1.9563,1.8498,1.8259,1.8176,1.8165,1.7128,1.6093,1.5036,0.0,0.0,0.0,0.0,0.0,0.0,0.0,0.0,0.0,0.0,0.0,0.0,0.0,0.0,0.0,0.0,0.0,0.0,0.0,0.0,0.0,0.0,1.2944,1.2876,1.3474,1.4033,1.4393,1.46,1.4917,1.5429,1.5439,1.5757,1.66,1.6792,1.7055,1.7455,1.7641,1.7745,1.7836,1.7836,1.7911,1.806,1.806,1.8296,1.8782,1.8684,1.8883,1.9359,1.9271,1.9271,1.9359,1.9359,1.9359,1.9359,1.9359,1.9434,1.9458,1.8719,1.8471,1.8559,1.8403,1.8328,1.8283,1.8283,1.8283,1.8238,1.8015,1.7923,1.79,1.7762,1.7739,1.7777,1.7928,1.7978,1.8016,1.8166,1.8204,1.8204,1.8204,1.8204,1.8204,1.8204,1.8204,1.8204,1.8204,1.8126,1.8093,1.8093,1.8093,1.819,1.8504,1.83,0.0,1.8727,1.8544,1.8554,1.908,1.8796,1.8773,1.9306,1.9002,1.8721,1.853,1.8296,1.8005,1.7718,1.7555,1.7407,1.7244,1.6967,1.644,0.0,0.0,0.0,0.0,0.0,0.0,0.0,0.0,0.0,0.0,0.0,0.0,0.0,0.0,0.0,0.0,0.0,0.0,0.0,0.0,0.0,0.0,1.3604,1.3998,1.4218,1.45,1.4826,1.5198,1.5536,1.5915,1.6371,1.6566,1.6979,1.7677,1.7691,1.7806,1.8191,1.8157,1.8196,1.8397,1.841,1.8659,1.9146,1.9058,1.937,2.0062,1.9919,2.0081,2.0514,2.0434,2.0434,0.0,2.0514,2.0514,2.0514,2.0514,2.0514,0.0,0.0,0.0,0.0,0.0,1.8647,1.845,1.845,1.845,1.8427,1.8251,1.8204,1.8204,1.8204,1.8204,1.8254,1.8456,1.8531,1.8581,1.8819,1.8882,1.8882,1.8882,1.8882,1.8882,1.8882,1.8882,1.8882,1.8882,1.8882,0.0,1.8882,1.8505,1.835,1.8803,1.8687,1.8703,1.9161,1.9016,1.8992,1.9306,1.9052,1.9089,1.9616,1.9391,0.0,0.0,0.0,1.8445,1.7965,1.7871,0.0,0.0,0.0,0.0,0.0,0.0,0.0,0.0,1.3324,1.3097,0.0,0.0,0.0,0.0,0.0,0.0,0.0,0.0,0.0,0.0,0.0,0.0,0.0,0.0,0.0,0.0,1.4337,1.5198,1.5814,1.579,1.5749,1.5881,1.6695,1.7297,1.7463,1.7915,1.8229,1.8292,1.8184,1.821,1.848,0.0,0.0,0.0,0.0,1.9722,2.0725,2.0578,2.0854,2.1493,2.1366,2.1353,2.1493,2.1493,2.1493,2.1493,2.1493,2.1493,2.1493,2.1493,2.1493,2.1343,1.9848,1.9284,1.9271,1.9142,1.9115,1.9115,1.9115,0.0,0.0,1.8688,1.8581,1.8581,1.8581,1.8581,1.8681,1.9146,1.9284,1.9384,1.9874,1.9999,1.9999,1.9999,1.9999,1.9999,1.9999,1.9999,1.9999,1.9999,1.9999,1.9999,1.9999,1.9095,1.8698,1.9653,1.9392,1.9421,2.0395,2.0105,1.9824,1.9875,0.0,0.0,2.056,2.0535,2.0462,2.0341,2.0271,1.9758,1.8701,1.8647,1.8214,1.7323,1.731,1.7119,1.6688,1.6158,1.5881,1.5889,1.5831,1.5492,0.0,0.0,0.0,0.0,0.0,0.0,0.0,0.0,0.0,0.0,0.0,0.0,0.0,0.0,0.0,1.5078,1.5404,1.5894,1.6933,1.7061,1.7039,1.7084,1.7237,1.7528,1.8003,1.8141,1.8392,1.8807,1.882,1.9221,2.0163,2.0044,2.0132,2.0607,2.0619,2.0717,2.0939,2.1051,2.1241,2.1493,0.0,0.0,2.1493,2.1381,2.1409,2.1493,2.1493,2.1493,2.1493,2.1493,2.1493,2.1455,2.1142,2.1016,2.1018,2.0999,2.0975,2.0975,2.0975,2.0975,2.0949,2.088,2.0853,2.0853,2.0853,2.0853,0.0,2.0978,2.1016,2.1041,2.1129,2.1154,2.1154,2.1154,2.1154,2.1154,2.1154,2.1154,2.1154,2.1154,2.1154,2.1154,2.1154,2.0238,1.9547,1.9775,1.9699,1.9711,1.994,1.985,1.9978,2.0409,2.0055,2.0029,2.056,2.0207,1.9927,1.9914,1.952,1.8985,1.831,1.8308,1.8211,1.8017,1.8017,1.7947,1.7877,1.7325,1.7071,1.7046,1.5703,1.5259,0.0,0.0,0.0,0.0,0.0,0.0,0.0,0.0,0.0,0.0,0.0,1.3065,1.3898,0.0,1.5072,1.5605,1.6191,1.6757,1.7322,1.7614,1.779,1.7708,1.8005,1.8293,1.8471,1.8983,1.9407,1.9682,1.989,2.0275,2.0932,2.0874,2.0971,2.1256,2.1256,2.1393,2.1638,2.1679,2.1902,2.2309,2.2147,2.2176,2.2309,2.2235,2.2235,2.2309,2.2309,2.2309,2.2309,2.2309,2.2309,2.2309,2.2309,2.197,2.1493,2.1493,2.1493,2.1493,2.1493,2.1493,2.1493,2.1493,2.1493,2.1493,2.1493,2.1493,2.1493,2.1493,2.1493,2.1493,2.1493,2.1493,2.1493,2.1493,2.1493,2.1493,2.1493,2.1493,2.1493,2.1493,2.1493,2.1493,2.1493,2.1016,2.0639,2.0639,2.0639,2.0639,2.0639,2.0639,2.0747,2.1013,2.08,2.0633,2.0642,2.0129,1.9798,1.9798,1.956,1.9146,1.8619,1.8594,1.8456,1.8216,1.8204,1.8204,1.8204,1.7928,1.779,1.7777,1.6936,1.6556,0.0,0.0,0.0,0.0,0.0,0.0,0.0,1.1515,1.2148,1.3298,1.3529,1.383,1.4871,1.5412,1.5768,1.5982,1.6785,1.7473,1.7664,1.8078,1.837,1.8412,1.8746,1.8996,1.9095,1.9888,2.0447,2.0546,2.0897,2.1193,2.1393,2.143,2.1537,2.1779,2.1779,2.1976,2.2414,2.2338,2.2551,2.3108,2.2987,2.2987,2.3108,2.3108,2.3108,2.3108,2.3108,2.3108,2.3108,2.3108,2.3108,2.3108,2.3108,2.2556,2.1807,2.1807,2.1807,2.1807,2.1807,2.1807,2.1807,2.1807,2.1807,2.1807,2.1807,2.1807,2.1807,2.1807,2.1807,2.1807,2.1807,2.1807,2.1807,2.1807,2.1807,2.1807,2.1807,2.1807,2.1807,2.1807,2.1807,2.1807,2.1807,2.1807,2.1732,2.1518,2.1493,2.1493,2.1493,2.1493,2.1493,2.1493,2.1493,2.1333,2.0893,2.0401,2.0125,2.0125,2.0125,1.9899,1.9334,1.9321,1.9083,1.853,1.8518,1.8518,1.8518,1.8417,1.8367,1.8367,1.8367,1.8078,1.103,1.1067,1.1174,1.1357,1.1405,1.1659,0.0,1.2973,1.3323,1.4481,1.4708,1.4896,1.5512,1.5655,1.6019,1.7058,1.7322,1.7727,1.8682,1.887,1.917,1.9865,1.9279,1.9182,2.0124,2.0374,2.0648,2.1079,2.1331,2.165,2.2167,2.2077,2.2225,2.274,2.2752,2.279,2.2822,2.293,2.3015,2.3108,2.3078,2.3078,2.3108,2.3108,2.3108,2.3108,2.3108,2.3108,2.3108,2.3108,2.3108,2.3108,2.3108,2.3032,2.292,2.292,2.292,2.292,2.292,2.292,2.292,2.292,2.292,2.292,2.292,2.292,2.292,2.292,2.292,2.292,2.292,2.292,2.292,2.292,2.292,2.292,2.292,2.292,2.292,2.292,2.292,2.292,2.292,2.292,2.2594,2.1631,2.1493,2.1493,2.1493,2.1493,2.1493,2.1493,2.1493,2.1496,2.1433,2.1343,2.1305,2.1305,2.1305,2.1081,2.0528,2.0515,2.0239,1.9635,1.9623,1.9623,1.9623,1.9133,1.8907,1.8907,1.8907,1.8619,1.2692,1.2917,1.3073,1.3421,1.3496,1.3604,1.4086,1.4186,1.4412,1.5211,1.5374,1.5517,1.607,1.6446,1.6857,1.7322,1.7915,1.8481,1.8945,1.9259,1.9722,2.0403,2.0078,2.0037,2.0696,2.1163,2.1505,2.1716,2.2097,2.2413,2.2638,2.268,2.278,2.3017,2.3017,2.3017,2.3017,2.3078,2.3108,2.3108,2.3108,2.3108,2.3108,2.3108,2.3108,2.3108,2.3108,2.3108,2.3108,2.3108,2.3108,2.3108,2.3108,2.3108,2.3108,2.3108,2.3108,2.3108,2.3108,2.3108,2.3108,2.3108,2.3108,2.3108,2.3108,2.3108,2.3108,2.3108,2.3108,2.3108,2.3108,2.3108,2.3108,2.3108,2.3108,2.3108,2.3108,2.3108,2.3108,2.3108,2.3108,2.3108,2.3108,2.3108,2.2945,2.2493,2.2447,2.2447,2.2447,2.2447,2.2447,2.2447,2.2159,2.197,2.197,2.1669,2.1493,2.1493,2.1493,2.1408,2.1182,2.1169,2.1056,2.079,2.0778,2.0778,2.0778,2.0564,2.0464,2.0464,2.0464,2.0338,1.3889,1.415,1.4244,1.4777,1.4896,1.4934,1.5085,1.5123,1.5273,1.5806,1.5919,1.6045,1.6425,1.6986,1.7461,1.7612,1.8405,1.9058,1.9196,1.9698,2.025,2.0761,2.0919,2.1148,2.1494,2.1852,2.2163,2.2312,2.2715,2.2969,2.2969,2.3047,2.3108,2.3108,2.3108,2.3108,2.3108,2.3108,2.3108,2.3108,2.3271,2.3346,2.3346,2.3496,2.3572,2.3572,2.3572,2.3572,2.3572,2.3572,2.3572,2.3572,2.3572,2.3572,2.3572,2.3572,2.3371,2.3108,2.3108,2.3108,2.3108,2.3108,2.3108,2.3108,2.3108,2.3108,2.3108,2.3108,2.3108,2.3108,2.3108,2.3108,2.3108,2.3108,2.3108,2.3108,2.3108,2.3108,2.3108,2.3108,2.3108,2.3108,2.3108,2.3108,2.3108,2.3108,2.3108,2.3108,2.3108,2.3108,2.3108,2.3108,2.2744,2.2506,2.2506,2.2171,2.1945,2.1945,2.1945,2.187,2.1719,2.1719,2.1644,2.1493,2.1493,2.1493,2.1493,2.1493,2.1493,2.1493,2.1493,2.1493,1.4594,1.4541,1.4317,1.4787,1.4896,1.5035,1.5563,1.5668,1.5831,1.6384,1.6475,1.6475,1.65,1.6986,1.7574,1.8091,1.8632,1.9171,1.971,2.0302,2.0813,2.1157,2.1818,2.2397,0.0,2.2399,2.2312,2.2847,2.3017,2.3078,2.3078,2.3108,2.3108,2.3108,2.3108,2.3108,2.3108,2.3108,2.3108,2.3108,2.3703,2.3966,2.3991,2.4519,2.4738,2.4738,2.4738,2.4738,2.4738,2.4738,2.4738,2.4738,2.4738,2.4738,2.4738,2.4738,2.4048,2.3108,2.3108,2.3108,2.3108,2.3108,2.3108,2.3108,2.3108,2.3108,2.3108,2.3108,2.3108,2.3108,2.3108,2.3108,2.3108,2.3108,2.3108,2.3108,2.3108,2.3108,2.3108,2.3108,2.3108,2.3108,2.3108,2.3108,2.3108,2.3108,2.3108,2.3108,2.3108,2.3108,2.3108,2.3108,2.3095,2.3083,2.3083,2.3058,2.3058,2.3058,2.3058,2.2819,2.2309,2.2284,2.2033,2.1493,2.1493,2.1493,2.1493,2.1493,2.1493,2.1493,2.1493,2.1493,1.4918,1.5143,1.5293,1.5462,1.5715,1.6019,1.6195,1.6233,1.6274,1.645,1.6823,1.7087,1.7087,1.7852,1.8506,1.8694,1.9171,1.9597,1.9773,2.0327,2.0865,2.1334,2.1942,2.2493,2.2997,0.0,0.0,2.3005,2.3078,2.3108,2.3108,2.3108,2.3108,2.3108,2.3471,2.3703,2.3703,2.4036,2.4224,2.4224,2.4424,2.4544,2.4556,2.4713,2.4788,2.4788,2.4788,2.4788,2.4788,2.4788,2.4788,2.4788,2.4788,2.4788,2.4788,2.4788,2.455,2.4224,2.4224,2.3985,2.3703,2.3703,2.3421,2.3108,2.3108,2.3108,2.3108,2.3108,2.3108,2.3108,2.3108,2.3108,2.3108,2.3108,2.3108,2.3108,2.3108,2.3108,2.3108,2.3108,2.3108,2.3108,2.3108,2.3108,2.3108,2.3108,2.3108,2.3108,2.3108,2.3108,2.3108,2.3108,2.3108,2.3108,2.3108,2.3108,2.3108,2.3108,2.3108,2.302,2.2832,2.2832,2.2744,2.2556,2.2556,2.2556,2.2556,2.2556,2.2556,2.2556,2.2556,2.2556,1.5175,1.5445,1.5623,1.5976,1.6272,1.65,1.65,1.65,1.65,1.65,1.681,1.7074,1.7074,1.7955,1.8707,1.8707,1.9334,1.9798,1.9798,2.049,2.1119,2.1443,2.2146,2.2719,2.307,2.3108,0.0,2.3108,2.3108,2.3108,2.3108,2.3296,2.3409,2.3409,2.396,2.4293,2.4293,2.4644,2.4888,2.5096,2.5096,2.5209,2.541,2.541,2.541,2.541,2.541,2.541,2.541,2.541,2.541,2.541,2.541,2.541,2.541,2.541,2.541,2.5347,2.4926,2.4562,2.4293,2.4293,2.401,2.371,2.371,2.371,2.3659,2.3471,2.3409,2.3358,2.3158,2.3108,2.3108,2.3108,2.3108,2.3108,2.3108,2.3108,2.3108,2.3108,2.3108,2.3108,2.3108,2.3108,2.3108,2.3108,2.3108,2.3108,2.3108,2.3108,2.3108,2.3108,2.3108,2.3108,2.3108,2.3108,2.3108,2.3108,2.3108,2.3108,2.3108,2.3108,2.3108,2.3108,2.3108,2.3108,2.3108,2.3108,2.3108,2.3108,2.3108,2.3108,1.5354,1.5445,1.5345,1.6228,1.6466,1.65,1.65,1.65,1.65,1.65,1.6525,1.6538,1.6538,1.744,1.8216,1.8242,1.9095,1.9773,1.9798,2.0778,2.1493,2.1493,2.246,2.3108,2.3108,2.3108,2.3108,2.3145,0.0,2.3145,2.3145,2.3697,2.4042,2.4042,2.4569,2.4825,2.4825,2.4863,2.5146,2.5636,2.5636,2.5959,2.6499,2.6499,2.6499,2.6499,2.6499,2.6499,2.6499,2.6499,2.6499,2.6499,2.6499,2.6499,2.6499,2.6499,2.6499,2.6348,2.5272,2.4883,2.4825,2.4825,2.4813,2.4788,2.4788,2.4788,2.4675,2.4192,2.4042,2.3916,2.3333,2.3195,2.3195,2.3195,2.3195,2.3195,2.3195,2.3195,2.3195,2.3195,2.3158,2.3145,2.3108,2.3108,2.3108,2.3108,2.3108,2.3108,2.3108,2.3108,2.3108,2.3108,2.3108,2.3108,2.3108,2.3108,2.3108,2.3108,2.3108,2.3108,2.3108,2.3108,2.3108,2.3108,2.3108,2.3108,2.3108,2.3108,2.3108,2.3108,2.3108,2.3108,1.464,1.5175,1.569,1.5932,1.6238,1.65,1.65,1.65,1.65,1.65,1.6861,1.7162,1.7162,1.7727,1.8342,1.8719,1.902,1.9334,1.9748,2.0778,2.1493,2.1493,2.246,2.3108,2.3108,2.3108,2.3283,0.0,2.3778,2.3778,2.3778,2.4305,2.4587,2.4587,2.5121,2.5398,2.5398,2.5824,2.6147,2.6273,2.6273,2.6348,2.6499,2.6499,2.6499,2.6499,2.6499,2.6499,2.6499,2.6499,2.6499,2.6499,2.6499,2.6499,2.6499,2.6499,2.6499,2.6449,2.6172,2.5762,2.5398,2.5398,2.5146,2.4788,2.4788,2.4788,2.4763,2.4612,2.4587,2.455,2.4399,2.4362,2.4362,2.4362,2.4362,2.4362,2.4362,2.4362,2.4362,2.4362,2.4023,2.364,2.3183,2.3108,2.3108,2.3108,2.3108,2.3108,2.3108,2.3108,2.3108,2.3108,2.3108,2.3108,2.3108,2.3108,2.3108,2.3108,2.3108,2.3108,2.3108,2.3108,2.3108,2.3108,2.3108,2.3108,2.3108,2.3108,2.3108,2.3108,2.3108,2.3108,1.4937,1.54,1.5854,1.6064,1.6315,1.65,1.65,1.65,1.65,1.65,1.6773,1.6999,1.6999,1.7463,1.794,1.8254,1.8694,1.9108,1.9396,2.0426,2.1245,2.1455,2.2246,2.2844,2.3083,2.3108,2.3346,2.3954,2.4004,2.4104,2.4343,2.487,2.5159,2.5159,2.5686,2.5975,2.5975,2.6336,2.6499,2.6499,2.6499,2.6499,2.6499,2.6499,2.6499,2.6499,0.0,2.6499,2.6499,2.6499,2.6499,2.6499,2.6499,2.6499,2.6499,2.6499,2.6499,2.6499,2.6499,2.6285,2.5975,2.5975,2.5774,2.5536,2.5536,2.5536,2.5485,2.5234,2.5159,2.5109,2.485,2.4788,2.4885,2.518,2.5243,2.5339,2.5641,2.5735,2.5735,2.5735,2.5475,2.5179,2.484,2.4788,2.4788,2.4788,2.4788,2.4637,2.4333,2.3578,2.3108,2.3108,2.3108,2.3108,2.3108,2.3108,2.3108,2.3108,2.3108,2.3108,2.3108,2.3108,2.3108,2.3108,2.3108,2.3108,2.3108,2.3358,2.3484,2.3496,2.3735,2.3847,1.5678,1.5854,1.5986,1.6402,1.65,1.65,1.65,1.65,1.6475,1.64,1.6387,1.6362,1.6287,1.6773,1.7209,1.7272,1.8191,1.892,1.8995,1.9974,2.0893,2.1458,2.197,2.2493,2.3045,2.3108,2.3371,2.4067,2.4104,2.4343,2.4895,2.5423,2.5711,2.5711,2.6235,2.6499,2.6499,2.6499,2.6499,2.6499,2.6499,2.6499,2.6499,2.6499,2.6499,2.6499,2.6499,0.0,2.6499,2.6499,2.6499,2.6499,2.6499,2.6499,2.6499,2.6499,2.6499,2.6499,2.6499,2.6499,2.6499,2.6499,2.6499,2.6499,2.6499,2.6499,2.6386,2.585,2.5711,2.5598,2.5159,2.5046,2.5163,2.5754,2.5881,2.607,2.6693,2.686,2.685,2.6874,2.6786,2.6729,2.6752,2.6678,2.6617,2.6617,2.6617,2.6434,2.5865,2.4423,2.3412,2.3333,2.3333,2.3351,2.3442,2.3382,2.3351,2.3442,2.3472,2.3412,2.3333,2.3412,2.3472,2.3472,2.3472,2.3503,2.3623,2.4119,2.4373,2.4385,2.4773,2.5,1.5788,1.6086,1.6402,1.6466,1.65,1.65,1.65,1.65,1.6362,1.5932,1.5831,1.5693,1.5261,1.5638,1.6132,1.6584,1.7591,1.8481,1.8945,1.9974,2.0893,2.1458,2.197,2.2493,2.3045,2.3108,2.3534,0.0,2.465,2.4908,2.5435,2.6034,2.6348,2.6348,2.6449,2.6499,2.6499,2.6499,2.6499,2.6499,2.6499,2.6499,2.6499,2.6499,2.6499,2.6499,2.6499,0.0,2.6499,2.6499,2.6499,2.6499,2.6499,2.6499,2.6499,2.6499,2.6499,2.6499,2.6499,2.6499,2.6499,2.6499,2.6499,2.6499,2.6499,2.6499,2.6474,2.6373,2.6348,2.6323,2.6235,2.621,2.6244,2.6367,2.6367,2.6401,2.6536,2.6557,2.6583,2.6698,2.6252,2.5852,2.5975,2.5516,2.5148,2.5148,2.5148,2.5339,2.5754,2.554,2.5112,2.4551,2.4499,2.4741,2.5286,2.4823,2.4729,2.5299,2.533,2.5093,2.4531,2.5031,2.533,2.533,2.533,2.5625,2.6247,2.6354,2.6408,2.6378,2.5857,2.5941,1.6151,1.6337,1.65,1.65,1.65,1.6425,1.6158,1.6082,1.5932,1.5399,1.5286,1.5211,1.4947,1.511,1.5462,1.6007,1.6785,1.7603,1.8456,1.9296,2.0225,2.1355,2.1719,2.2209,2.302,2.3384,2.3898,2.4725,2.5071,2.5473,2.6047,2.6348,2.6499,2.6499,2.6499,2.6499,2.6499,2.6499,2.6499,2.6499,2.6499,2.6499,2.6499,2.6499,2.6499,2.6499,2.6499,0.0,2.6499,2.6499,2.6499,2.6499,2.6499,2.6499,2.6499,2.6499,2.6499,2.6499,2.6499,2.6499,2.6499,2.6499,2.6499,2.6499,2.6499,2.6499,2.6499,2.6499,2.6499,2.6499,2.6499,2.6499,2.6589,2.6939,2.7284,2.7537,2.7537,2.7537,2.7558,2.7626,2.7333,2.7124,2.72,2.6937,2.6725,2.6725,2.7046,2.7269,2.721,2.7539,2.7153,2.5517,2.5,2.4936,2.5243,2.4968,2.4936,2.5262,2.5262,2.5148,2.482,2.5116,2.5262,2.5262,2.5262,2.5452,2.5798,2.6086,2.6406,2.6783,2.6722,2.7065,1.65,1.65,1.65,1.65,1.65,1.635,1.5819,1.5693,1.5525,1.4865,1.4739,1.4683,1.4557,1.4632,1.4896,1.5449,1.6082,1.6889,1.8041,1.8657,1.961,2.1292,2.1493,2.192,2.2995,2.3665,0.0,2.475,2.5423,0.0,2.6461,2.6499,2.6499,2.6499,2.6499,2.6499,2.6499,2.6499,2.6499,2.6499,2.6499,2.6499,2.6499,2.6499,2.6499,2.6499,2.6499,0.0,0.0,2.6499,2.6499,2.6499,2.6499,2.6499,2.6499,2.6499,2.6499,2.6499,2.6499,2.6499,2.6521,2.6692,2.6714,2.6714,2.6714,2.6816,2.6939,2.6939,2.6939,2.6939,2.6939,2.6939,2.7074,2.7571,2.8019,2.833,2.846,2.8395,2.8363,2.8698,2.8505,2.8363,2.8698,2.8588,2.8492,2.8492,2.8985,2.9219,2.8794,2.9093,2.8671,2.6827,2.5992,2.5666,2.5813,2.5537,2.5439,2.5569,2.5472,2.5387,2.5387,2.5387,2.5452,2.5601,2.5439,2.5439,2.5601,2.601,2.6511,2.7095,2.7361,2.7855,1.65,1.65,1.65,1.65,1.65,1.635,1.5819,1.5693,1.5412,1.4374,1.4179,1.4009,1.3466,1.3803,1.4337,1.489,1.5831,1.6889,1.8041,1.8657,1.961,2.1292,2.1493,2.192,2.2995,2.3665,2.423,2.475,0.0,0.0,2.6499,2.6499,2.6499,2.6499,2.6499,2.6499,2.6499,2.6499,2.6499,2.6499,2.6499,2.6499,2.6499,2.6499,2.6499,2.6499,2.6499,0.0,0.0,2.6499,2.6499,2.6499,2.6499,2.6499,2.6499,2.6499,2.6499,2.6499,2.6499,2.6499,2.6589,2.7196,2.7417,2.7417,2.7417,2.7835,2.833,2.833,2.833,2.833,2.833,2.833,2.833,2.8395,2.7986,2.7769,2.8363,2.8019,2.7966,2.9265,2.8454,2.7999,2.9296,2.8921,2.8492,2.8492,2.8556,2.8826,2.9421,2.8953,2.8784,2.9205,2.8598,2.8438,2.9098,2.8002,2.7512,2.8118,2.7578,2.7261,2.7261,2.7261,2.7545,2.8136,2.7545,2.7545,2.8169,2.8223,2.8282,2.8314,2.7776,2.7855,1.65,1.65,1.6412,1.6107,1.6019,1.5793,1.4921,1.445,1.398,1.322,1.2822,1.2621,1.2701,1.2906,1.3363,1.4274,1.5047,1.6045,1.7501,1.8191,1.9271,2.1255,2.1493,2.192,2.2995,0.0,2.4858,2.5749,0.0,0.0,2.6499,2.6499,2.6499,2.6499,2.6499,2.6499,2.6499,2.6499,2.6499,2.6499,2.6499,2.6499,2.6499,2.6499,2.6499,2.6499,2.6499,0.0,0.0,2.6499,2.6499,2.6499,2.6499,2.6499,2.6499,2.6499,2.6499,2.6499,2.6499,2.6499,2.6521,2.6816,2.7451,2.8117,2.8117,2.8298,2.8492,2.8492,2.8492,2.8492,2.8492,2.8492,2.8492,2.8492,2.8298,2.8182,2.8427,2.8298,2.8279,2.8826,2.8505,2.8279,2.8826,2.8684,2.8492,2.8492,2.8889,2.9251,2.9546,2.9701,2.9886,3.016,2.9174,2.862,2.8921,2.8441,2.8214,2.8492,2.8247,2.8117,2.8117,2.8117,2.8247,2.8492,2.8247,2.8247,2.8492,2.8492,2.873,2.9156,2.8903,2.9125,1.6233,1.6158,1.5944,1.5563,1.5462,1.5185,1.4079,1.3509,1.2998,1.2316,1.1864,1.1751,1.23,1.24,1.2768,1.3909,1.4551,1.5475,1.7172,1.7852,1.902,2.123,2.1493,2.192,2.2995,2.4123,2.5272,0.0,0.0,0.0,2.6499,2.6499,2.6499,2.6499,2.6499,2.6499,2.6499,2.6499,2.6499,2.6499,2.6499,2.6499,2.6499,2.6499,2.6499,2.6499,2.6499,0.0,0.0,2.6499,2.6499,2.6499,2.6499,2.6499,2.6499,2.6499,2.6499,2.6499,2.6499,2.6624,2.685,2.704,2.7868,2.8857,2.9048,2.9111,2.9111,2.9111,2.9111,2.9111,2.9111,2.8985,2.8889,2.9079,2.8985,2.8889,2.9079,2.8985,2.8889,2.9079,2.8953,2.8889,2.9079,2.9111,2.9111,2.9111,2.9577,2.9901,2.9901,3.0312,3.0598,3.0598,2.9718,2.9048,2.8826,2.8634,2.8492,2.8492,2.8149,2.8084,2.8492,2.8117,2.7986,2.8214,2.8214,2.8214,2.8214,2.8395,2.8762,2.9251,2.9251,2.9546,1.5555,1.5324,1.4928,1.4916,1.4916,1.4607,1.3478,1.3198,1.2902,1.1826,1.1603,1.1751,1.23,1.24,1.2768,1.3909,1.4551,1.5475,1.7172,1.7852,1.902,2.123,2.1493,2.192,2.2995,2.4123,0.0,0.0,0.0,0.0,2.6499,2.6499,2.6499,2.6499,2.6499,2.6499,2.6499,2.6499,2.6499,2.6499,2.6499,2.6499,2.6499,2.6499,2.6499,0.0,0.0,0.0,0.0,2.6499,2.6499,2.6499,2.6499,2.6499,2.6499,2.6499,2.6499,2.6499,2.6499,2.6939,2.7604,2.8279,2.8985,2.9716,3.0387,3.0568,3.0568,3.0568,3.0568,3.0568,3.0568,3.0099,2.9747,3.0417,3.0068,2.9777,3.0433,3.0068,2.9777,3.0447,3.0038,2.9808,3.0447,3.0568,3.0568,3.0568,3.0568,3.0598,3.0598,3.0598,3.0598,3.0598,3.0598,3.0312,2.9654,2.8921,2.8492,2.8492,2.7263,2.7129,2.846,2.7229,2.685,2.7517,2.7517,2.7517,2.7517,2.8182,2.8492,2.8524,2.8524,2.8524,1.511,1.5022,1.4815,1.4437,1.4042,1.3554,1.2814,1.2046,1.141,1.1046,1.0696,1.0721,1.1676,1.1851,1.2215,1.3308,1.428,1.5336,1.6609,1.7601,1.902,2.123,2.2159,2.302,0.0,0.0,0.0,0.0,0.0,0.0,2.6499,2.6499,2.6499,2.6499,2.6499,2.6499,2.6499,2.6499,2.6499,2.6499,2.6499,2.6499,2.6499,2.6499,2.6499,0.0,0.0,0.0,0.0,2.7196,2.7196,2.7229,2.7703,2.7571,2.7229,2.7703,2.7855,2.7802,2.7351,2.7604,2.8149,2.7887,2.8648,2.9654,2.9839,3.0251,3.0598,3.0598,3.0598,3.0598,3.0598,3.0447,3.0357,3.0538,3.0447,3.0357,3.0538,3.0447,3.0357,3.0568,3.0447,3.0357,3.0568,3.0598,3.0598,3.0598,3.0598,3.0598,3.0598,3.0598,3.0598,3.0598,3.0598,3.0507,3.0282,3.0085,2.9948,2.9948,2.9546,2.9484,2.9917,2.9546,2.9421,2.9594,2.9608,2.9608,2.9608,2.9825,2.9948,2.9948,2.9948,2.9948,1.4488,1.4431,1.4192,1.384,1.3483,1.3048,1.2513,1.1848,1.1284,1.1084,1.0758,1.0822,1.1726,1.1902,1.2266,1.3358,1.4305,1.5349,1.666,1.7626,1.902,2.123,2.246,0.0,0.0,0.0,0.0,0.0,0.0,0.0,2.6499,2.6499,2.6499,2.6499,2.6499,2.6499,2.6499,2.6499,2.6499,2.6499,2.6499,2.6499,2.6499,2.6499,2.6499,0.0,0.0,0.0,0.0,2.7769,2.7887,2.792,2.833,2.8247,2.792,2.833,2.8492,2.8427,2.8019,2.8344,2.8857,2.8422,2.9062,2.9976,2.9976,3.0251,3.0598,3.0598,3.0598,3.0598,3.0598,3.0598,3.0598,3.0598,3.0598,3.0598,3.0598,3.0598,3.0598,3.0598,3.0598,3.0598,3.0598,3.0598,3.0598,3.0598,3.0598,3.0598,3.0598,3.0598,3.0598,3.0598,3.0598,3.0598,3.0598,3.0387,3.0221,3.0221,2.9948,2.9917,3.0221,2.9962,2.9825,2.9825,3.0085,3.0221,3.0221,3.0477,3.0598,3.0598,3.0598,3.0598,0.0,1.3576,1.3198,1.3198,1.3173,1.301,1.2513,1.2363,0.0,1.1688,1.1603,1.1751,1.23,1.2425,1.2818,1.3909,1.4576,1.5525,1.7172,1.799,1.9196,2.1242,2.2468,0.0,2.4675,0.0,0.0,0.0,0.0,0.0,2.6499,2.6499,2.6499,2.6499,2.6499,2.6499,2.6499,2.6499,2.6499,2.6499,2.6499,2.6499,2.6499,2.6555,2.6555,0.0,0.0,0.0,0.0,2.8312,2.8588,2.8588,2.862,2.862,2.8588,2.862,2.8652,2.8652,2.8588,2.9062,2.9685,2.9685,3.0099,3.0598,3.0598,3.0598,3.0598,3.0598,3.0598,3.0598,3.0598,3.0598,3.0598,3.0598,3.0598,3.0598,3.0598,3.0598,3.0598,3.0598,3.0598,3.0598,3.0598,3.0598,3.0598,3.0598,3.0598,3.0598,3.0598,3.0598,3.0598,3.0598,3.0598,3.0598,3.0598,3.0038,2.9685,2.9685,2.9016,2.8953,2.9654,2.9016,2.8652,2.8652,2.9314,2.9685,2.9685,3.0282,3.0598,3.0598,3.0598,3.0598,1.2106,0.0,1.3198,1.3198,1.2902,1.2551,0.0,1.2077,1.1738,1.1628,1.1603,1.1751,1.23,1.2739,1.324,1.3972,1.4884,1.5944,1.7222,1.9309,2.0903,2.143,2.2849,2.4067,2.4725,0.0,0.0,0.0,0.0,2.6499,2.6499,2.6499,2.6499,2.6499,2.6499,2.6499,2.6499,2.6499,2.6499,2.6499,2.6499,2.6499,2.6521,2.704,2.7263,0.0,0.0,0.0,2.9139,2.9296,2.9328,2.939,2.9901,2.9794,2.9421,2.9931,3.0115,3.0023,2.9515,2.9808,3.0357,3.0357,3.0477,3.0598,3.0598,3.0598,3.0598,3.0598,3.0598,3.0598,3.0598,3.0598,3.0598,3.0598,3.0598,3.0598,3.0598,3.0598,3.0598,3.0598,3.0598,3.0598,3.0598,3.0598,3.0598,3.0598,3.0598,3.0598,3.0598,3.0598,3.0598,3.0598,3.0598,3.0598,3.0598,3.0447,3.0357,3.0357,3.0206,3.0176,3.0357,3.019,3.0115,3.0115,3.0282,3.0357,3.0387,3.0507,3.0598,3.0598,3.0598,3.0598,1.1512,1.2203,1.2839,1.2839,1.2801,1.2776,1.2776,1.2538,1.2325,1.2325,1.2325,1.2517,1.3074,1.3426,1.3891,1.4714,1.5537,1.6635,1.8267,2.0225,2.1581,2.1832,2.3125,2.4217,0.0,0.0,0.0,0.0,0.0,2.6499,2.6499,2.6499,2.6499,2.6499,2.6499,2.6499,2.6499,2.6499,2.6499,2.6499,2.6816,2.6973,2.6973,2.7637,2.7953,0.0,0.0,0.0,2.9623,2.9931,3.0068,3.0099,3.0447,3.0387,3.0099,3.0477,3.0598,3.0538,3.019,3.0282,3.0598,3.0598,3.0598,3.0598,3.0598,3.0598,3.0598,3.0598,3.0598,3.0598,3.0598,3.0598,3.0598,3.0598,3.0598,3.0598,3.0598,3.0598,3.0598,3.0598,3.0642,3.0702,3.0702,3.0762,3.0821,3.0821,3.0821,3.0821,3.0821,3.0821,3.0821,3.0821,3.0821,3.0791,3.0702,3.0702,3.0672,3.0598,3.0598,3.0598,3.0598,3.0598,3.0598,3.0598,3.0598,3.0598,3.0598,3.0598,3.0598,3.0598,3.0598,3.0598,1.1299,1.1864,1.2303,1.2391,1.2801,1.3198,1.3198,1.3198,1.3198,1.3198,1.3261,1.3496,1.4009,1.4223,1.4676,1.5655,1.6497,1.7654,1.9547,2.084,2.1782,2.2259,2.3389,0.0,0.0,0.0,0.0,0.0,0.0,2.6499,2.6499,2.6499,2.6499,2.6499,2.6499,2.6555,2.6658,2.6658,2.6658,2.6658,2.7364,2.765,2.7571,2.8363,2.8716,2.873,0.0,0.0,2.9839,3.0417,3.0642,3.0642,3.0598,3.0598,3.0642,3.0642,3.0642,3.0672,3.0672,3.0672,3.0672,3.0672,3.0672,3.0642,3.0642,3.0642,3.0642,3.0642,3.0642,3.0642,3.0598,3.0612,3.0642,3.0598,3.0598,3.0598,3.0642,3.0642,3.0642,3.0672,3.0762,3.0851,3.0851,3.0984,3.1117,3.1117,3.1117,3.1117,3.1117,3.1117,3.1117,3.1117,3.1117,3.1014,3.0866,3.0851,3.0791,3.0672,3.0642,3.0598,3.0598,3.0598,3.0598,3.0598,3.0598,3.0598,3.0598,3.0598,3.0598,3.0642,3.0598,3.0598,1.0695,1.1274,1.1826,1.2291,1.2801,1.3198,1.3198,1.3198,1.3198,1.3198,1.3609,1.3984,1.4091,1.4833,1.5655,1.6283,1.8028,1.9409,1.9748,2.1179,2.2221,2.2297,0.0,0.0,0.0,0.0,0.0,0.0,0.0,2.6499,2.6499,2.6499,2.6499,2.6499,2.6499,2.6782,2.7351,2.7351,2.7351,2.7351,2.8208,2.826,2.7736,2.9129,2.9718,2.9654,0.0,3.0762,3.0612,3.0732,3.0762,3.0762,3.0642,3.0672,3.0762,3.0762,3.0895,3.1014,3.1014,3.1014,3.1014,3.1014,3.0925,3.0762,3.0762,3.0762,3.0762,3.0762,3.0762,3.0732,3.0642,3.0672,3.0732,3.0642,3.0598,3.0642,3.0732,3.0762,3.0821,3.0984,3.1043,3.1043,3.1043,3.1087,3.1117,3.1117,3.1117,3.1117,3.1117,3.1117,3.1117,3.1117,3.1117,3.1087,3.1043,3.1043,3.1043,3.1014,3.0762,3.0598,3.0598,3.0598,3.0598,3.0598,3.0598,3.0598,3.0598,3.0598,3.0672,3.0762,3.0642,3.0672,1.0543,1.1148,1.1741,1.2278,1.2801,1.3303,1.3609,1.369,1.3778,1.4061,1.4343,1.4626,1.4916,1.5593,1.65,1.7654,1.8957,2.0012,2.0627,2.1631,2.2535,0.0,0.0,0.0,0.0,0.0,0.0,0.0,0.0,0.0,2.6499,2.6555,2.6782,2.7129,2.6884,2.743,2.8844,2.8492,2.8279,2.8195,2.9062,2.9268,2.8971,2.9718,3.0206,3.0507,0.0,3.0702,3.0955,3.0955,3.0955,3.0955,3.0895,3.0925,3.0955,3.0955,3.1014,3.1117,3.1117,3.1117,3.1117,3.1117,3.1043,3.0955,3.0955,3.0955,3.0955,3.0955,3.0955,3.0955,3.0895,3.0925,3.0955,3.0895,3.0866,3.0895,3.0955,3.0955,3.0984,3.1087,3.1161,3.122,3.122,3.1278,3.1307,3.1307,3.1307,3.1307,3.1307,3.1307,3.1307,3.1307,3.1307,3.1278,3.1205,3.122,3.119,3.1102,3.0955,3.0866,3.0866,3.0866,3.0866,3.0866,3.0866,3.0866,3.0866,3.0866,3.0895,3.0955,3.0895,3.0895,1.0758,1.1337,1.1939,1.263,1.3107,1.3534,1.3984,1.4204,1.44,1.4828,1.4997,1.5248,1.5781,1.6538,1.7541,1.8958,1.9761,2.0539,2.1543,2.2159,2.2874,0.0,0.0,0.0,0.0,0.0,0.0,0.0,0.0,0.0,2.6555,2.685,2.7162,2.7517,2.7477,2.8195,2.9766,2.9286,2.8998,2.8853,2.9842,3.0147,2.9842,3.0267,3.0687,3.1132,3.0628,3.0687,3.1132,3.1132,3.1132,3.1132,3.1102,3.1102,3.1132,3.119,3.119,3.119,3.119,3.119,3.119,3.119,3.1161,3.1132,3.1132,3.1132,3.1132,3.1132,3.1161,3.1161,3.1117,3.1102,3.1132,3.1117,3.1117,3.1117,3.1132,3.1132,3.1161,3.119,3.1278,3.1351,3.1351,3.1438,3.1511,3.1511,3.1511,3.1511,3.1511,3.1511,3.1511,3.1511,3.1511,3.1467,3.1351,3.1351,3.1292,3.119,3.1132,3.1117,3.1117,3.1117,3.1117,3.1117,3.1117,3.1117,3.1117,3.1117,3.1117,3.1132,3.1102,3.1102,1.1374,1.1927,1.2605,1.3707,1.4015,1.4053,1.4091,1.4488,1.4846,1.4884,1.5299,1.5806,1.6337,1.7741,1.902,1.9648,2.0665,2.1581,2.2171,0.0,0.0,0.0,0.0,0.0,0.0,0.0,0.0,0.0,0.0,0.0,2.6679,2.7451,2.765,2.7079,2.8228,2.8939,2.9066,2.9219,2.9188,2.9002,3.0494,3.0539,2.939,3.0762,3.1351,3.1292,3.138,3.1351,3.1292,3.1292,3.1292,3.1263,3.1132,3.119,3.1292,3.1424,3.1482,3.1482,3.1482,3.1482,3.1482,3.1482,3.138,3.1292,3.1292,3.1292,3.1292,3.1292,3.138,3.1424,3.1161,3.1176,3.1263,3.1132,3.1117,3.1132,3.1263,3.1292,3.1322,3.1453,3.1467,3.1511,3.1511,3.1511,3.1511,3.1511,3.1511,3.1511,3.1511,3.1511,3.1511,3.1511,3.1511,3.1511,3.1511,3.1511,3.1467,3.1482,3.122,3.1117,3.1117,3.1117,3.1117,3.1117,3.1117,3.1117,3.1117,3.1117,3.1161,3.1292,3.1161,3.1161,1.1836,1.2488,1.309,1.3896,1.4601,1.5085,1.5085,1.5248,1.56,1.6304,1.6619,1.7112,1.8342,1.9083,1.9811,2.0702,2.1493,2.2071,2.2284,0.0,0.0,0.0,0.0,0.0,0.0,0.0,0.0,0.0,0.0,0.0,0.0,2.7947,2.8091,2.7809,2.8794,2.9504,2.9919,2.9995,2.9995,2.995,3.0524,3.0748,3.0658,3.0807,3.1087,3.1409,3.1029,3.1087,3.1409,3.1409,3.1409,3.1409,3.1366,3.1395,3.1438,3.1467,3.1511,3.1511,3.1511,3.1511,3.1511,3.1511,3.1467,3.1409,3.1409,3.1409,3.1409,3.1409,3.1467,3.1482,3.1366,3.1395,3.1409,3.1366,3.1336,3.1366,3.1409,3.1409,3.1438,3.1511,3.1511,3.1511,3.1511,3.1511,3.1511,3.1511,3.1511,3.1511,3.1511,3.1511,3.1511,3.1511,3.1511,3.1511,3.1511,3.1511,3.1511,3.1511,3.1395,3.1336,3.1336,3.1336,3.1336,3.1336,3.1336,3.1336,3.1336,3.1336,3.1351,3.1409,3.1351,3.1395,1.2137,1.2927,1.3622,1.4211,1.5022,1.5743,1.5919,1.6095,1.6468,1.7247,1.779,1.848,1.9597,2.01,2.0639,0.0,2.2071,2.2435,0.0,0.0,0.0,0.0,0.0,0.0,0.0,0.0,0.0,0.0,0.0,0.0,0.0,2.868,2.8789,2.8384,2.9518,3.0238,3.0494,3.0494,3.0614,3.0807,3.0614,3.0748,3.119,3.0925,3.1058,3.1467,3.0999,3.1087,3.1511,3.1511,3.1511,3.1511,3.1511,3.1511,3.1511,3.1511,3.1511,3.1511,3.1511,3.1511,3.1511,3.1511,3.1511,3.1511,3.1511,3.1511,3.1511,3.1511,3.1511,3.1511,3.1511,3.1511,3.1511,3.1511,3.1511,3.1511,3.1511,3.1511,3.1511,3.1511,3.1511,3.1511,3.1511,3.1511,3.1511,3.1511,3.1511,3.1511,3.1511,3.1511,3.1511,3.1511,3.1511,3.1511,3.1511,3.1511,3.1511,3.1511,3.1511,3.1511,3.1511,3.1511,3.1511,3.1511,3.1511,3.1511,3.1511,3.1511,3.1511,3.1511,3.1511,3.1511,1.2278,1.3237,1.4242,1.4777,1.5311,1.5856,1.6387,1.6974,1.741,1.7423,1.8718,1.9811,1.9823,2.074,2.1681,2.2234,2.2322,0.0,0.0,0.0,0.0,0.0,0.0,0.0,0.0,0.0,0.0,0.0,0.0,0.0,0.0,2.9704,2.9872,2.8546,3.0434,3.119,3.0524,3.0524,3.0837,3.1511,3.0837,3.0524,3.0524,3.119,3.1511,3.1511,3.1511,3.1511,3.1511,3.1511,3.1511,3.1511,3.1511,3.1511,3.1511,3.1511,3.1511,3.1511,3.1511,3.1511,3.1511,3.1511,3.1511,3.1511,3.1511,3.1511,3.1511,3.1511,3.1511,3.1511,3.1511,3.1511,3.1511,3.1511,3.1511,3.1511,3.1511,3.1511,3.1511,3.1511,3.1511,3.1511,3.1511,3.1511,3.1511,3.1511,3.1511,3.1511,3.1511,3.1511,3.1511,3.1511,3.1511,3.1511,3.1511,3.1511,3.1511,3.1511,3.1511,3.1511,3.1511,3.1511,3.1511,3.1511,3.1511,3.1511,3.1511,3.1511,3.1511,3.1511,3.1511,3.1511,1.3242,1.4123,1.479,1.5336,1.5869,1.6421,1.6999,1.7551,1.8179,1.8932,1.9811,2.0553,2.0916,2.1581,0.0,2.2769,0.0,0.0,0.0,0.0,0.0,0.0,0.0,0.0,0.0,0.0,0.0,0.0,0.0,0.0,0.0,3.0011,2.9872,2.8546,3.0434,3.119,3.0524,3.097,3.1307,3.1511,3.1307,3.119,3.1219,3.1409,3.1511,3.1511,3.1511,3.1511,3.1511,3.1511,3.1511,3.1511,3.1511,3.1511,3.1511,3.1511,3.1511,3.1511,3.1511,3.1511,3.1511,3.1511,3.1511,3.1511,3.1511,3.1511,3.1511,3.1511,3.1511,3.1511,3.1511,3.1511,3.1511,3.1511,3.1511,3.1511,3.1511,3.1511,3.1511,3.1511,3.1511,3.1511,3.1511,3.1511,3.1511,3.1511,3.1511,3.1511,3.1511,3.1511,3.1511,3.1511,3.1511,3.1511,3.1511,3.1511,3.1511,3.1511,3.1511,3.1511,3.1511,3.1511,3.1511,3.1511,3.1511,3.1511,3.1511,3.1511,3.1511,3.1511,3.1511,3.1511,1.335,1.4305,1.4972,1.5299,1.5957,1.6763,1.7802,1.8292,1.8844,1.9924,2.0629,2.1182,2.1707,2.2272,0.0,0.0,0.0,0.0,0.0,0.0,0.0,0.0,0.0,0.0,0.0,0.0,0.0,0.0,0.0,0.0,0.0,0.0,0.0,0.0,3.0718,3.1307,3.0896,3.1307,3.1511,3.1511,3.1511,3.1511,3.1511,3.1511,3.1511,3.1511,3.1511,3.1511,3.1511,3.1511,3.1511,3.1511,3.1511,3.1511,3.1511,3.1511,3.1511,3.1511,3.1511,3.1511,3.1511,3.1511,3.1511,3.1511,3.1511,3.1511,3.1511,3.1511,3.1511,3.1511,3.1511,3.1511,3.1511,3.1511,3.1511,3.1511,3.1511,3.1511,3.1511,3.1511,3.1511,3.1511,3.1511,3.1511,3.1511,3.1511,3.1511,3.1511,3.1511,3.1511,3.1511,3.1511,3.1511,3.1511,3.1511,3.1511,3.1511,3.1511,3.1511,3.1511,3.1511,3.1511,3.1511,3.1511,3.1511,3.1511,3.1511,3.1511,3.1511,3.1511,3.1511,3.1511,1.2914,1.4036,1.4916,1.4959,1.5819,1.7052,1.8581,1.9045,1.9447,2.0553,2.1207,2.1719,2.2221,2.2761,0.0,0.0,0.0,0.0,0.0,0.0,0.0,0.0,0.0,0.0,0.0,0.0,0.0,0.0,0.0,0.0,0.0,0.0,0.0,3.0524,3.1161,3.1511,3.1511,3.1511,3.1511,0.0,3.1511,3.1511,3.1511,3.1511,3.1511,3.1511,3.1511,3.1511,3.1511,3.1511,3.1511,3.1511,3.1511,3.1511,3.1511,3.1511,3.1511,3.1511,3.1511,3.1511,3.1511,3.1511,3.1511,3.1511,3.1511,3.1511,3.1511,3.1511,3.1511,3.1511,3.1511,3.1511,3.1511,3.1511,3.1511,3.1511,3.1511,3.1511,3.1511,3.1511,3.1511,3.1511,3.1511,3.1511,3.1511,3.1511,3.1511,3.1511,3.1511,3.1511,3.1511,3.1511,3.1511,3.1511,3.1511,3.1511,3.1511,3.1511,3.1511,3.1511,3.1511,3.1511,3.1511,3.1511,3.1511,3.1511,3.1511,3.1511,3.1511,3.1511,3.1511,3.1511,1.2914,1.4036,1.4997,1.5424,1.6685,1.794,1.8304,1.9384,2.0528,2.1207,2.1744,2.2171,2.2284,0.0,0.0,0.0,0.0,0.0,0.0,0.0,0.0,0.0,0.0,0.0,0.0,0.0,0.0,0.0,0.0,0.0,0.0,0.0,0.0,3.0524,3.1161,3.1511,3.1511,3.1511,3.1511,0.0,3.1511,3.1511,3.1511,3.1511,3.1511,3.1511,3.1511,3.1511,3.1511,3.1511,3.1511,3.1511,3.1511,3.1511,3.1511,3.1511,3.1511,3.1511,3.1511,3.1511,3.1511,3.1511,3.1511,3.1511,3.1511,3.1511,3.1511,3.1511,3.1511,3.1511,3.1511,3.1511,3.1511,3.1511,3.1511,3.1511,3.1511,3.1511,3.1511,3.1511,3.1511,3.1511,3.1511,3.1511,3.1511,3.1511,3.1511,3.1511,3.1511,3.1511,3.1511,3.1511,3.1511,3.1511,3.1511,3.1511,3.1511,3.1511,3.1511,3.1511,3.1511,3.1511,3.1511,3.1511,3.1511,3.1511,3.1511,3.1511,3.1511,3.1511,3.1511,3.1511,1.2654,1.3871,1.5085,1.5881,1.7149,1.8204,1.8204,1.9548,2.0936,2.1479,2.1977,2.2397,0.0,0.0,0.0,0.0,0.0,0.0,0.0,0.0,0.0,0.0,0.0,0.0,0.0,0.0,0.0,0.0,0.0,0.0,0.0,3.1307,3.1351,3.0999,3.1322,3.1511,3.1511,3.1511,3.1511,3.1511,3.1511,3.1511,3.1511,3.1511,3.1511,3.1511,3.1511,3.1511,3.1511,3.1511,3.1511,3.1511,3.1511,3.1511,3.1511,3.1511,3.1511,3.1511,3.1511,3.1511,3.1511,3.1511,3.1511,3.1511,3.1511,3.1511,3.1511,3.1511,3.1511,3.1511,3.1511,3.1511,3.1511,3.1511,3.1511,3.1511,3.1511,3.1511,3.1511,3.1511,3.1511,3.1511,3.1511,3.1511,3.1511,3.1511,3.1511,3.1511,3.1511,3.1511,3.1511,3.1511,3.1511,3.1511,3.1511,3.1511,3.1511,3.1511,3.1511,3.1511,3.1511,3.1511,3.1511,3.1511,3.1511,3.1511,3.1511,3.1511,3.1511,3.1511,3.1511,3.1511,1.2393,1.3731,1.5246,1.6245,1.73,1.8091,1.8179,1.9522,2.0969,2.1716,2.2134,2.2631,0.0,0.0,0.0,0.0,0.0,0.0,0.0,0.0,0.0,0.0,0.0,0.0,0.0,0.0,0.0,0.0,0.0,0.0,3.1511,3.1511,3.1511,3.1511,3.1511,3.1511,3.1511,3.1511,3.1511,3.1511,3.1511,3.1511,3.1511,3.1511,3.1511,3.1511,3.1511,3.1511,3.1511,3.1511,3.1511,3.1511,3.1511,3.1511,3.1511,3.1511,3.1511,3.1511,3.1511,3.1511,3.1511,3.1511,3.1511,3.1511,3.1511,3.1511,3.1511,3.1511,3.1511,3.1511,3.1511,3.1511,3.1511,3.1511,3.1511,3.1511,3.1511,3.1511,3.1511,3.1511,3.1511,3.1511,3.1511,3.1511,3.1511,3.1511,3.1511,3.1511,3.1511,3.1511,3.1511,3.1511,3.1511,3.1511,3.1511,3.1511,3.1511,3.1511,3.1511,3.1511,3.1511,3.1511,3.1511,3.1511,3.1511,3.1511,3.1511,3.1511,3.1511,3.1511,3.1511,3.1511,1.2591,1.4013,1.5588,1.6317,1.7011,1.7614,1.8091,1.9207,2.0591,0.0,2.2695,0.0,0.0,0.0,0.0,0.0,0.0,0.0,0.0,0.0,0.0,0.0,0.0,0.0,0.0,0.0,0.0,0.0,0.0,0.0,3.1511,3.1511,3.1511,3.1511,3.1511,3.1511,3.1511,3.1511,3.1511,3.1511,3.1511,3.1511,3.1511,3.1511,3.1511,3.1511,3.1511,3.1511,3.1511,3.1511,3.1511,3.1511,3.1511,3.1511,3.1511,3.1511,3.1511,3.1511,3.1511,3.1511,3.1511,3.1511,3.1511,3.1511,3.1511,3.1511,3.1511,3.1511,3.1511,3.1511,3.1511,3.1511,3.1511,3.1511,3.1511,3.1511,3.1511,3.1511,3.1511,3.1511,3.1511,3.1511,3.1511,3.1511,3.1511,3.1511,3.1511,3.1511,3.1511,3.1511,3.1511,3.1511,3.1511,3.1511,3.1511,3.1511,3.1511,3.1511,3.1511,3.1511,3.1511,3.1511,3.1511,3.1511,3.1511,3.1511,3.1511,3.1511,3.1511,3.1511,3.1511,3.1511,1.3081,1.4604,1.6042,1.6447,1.7419,1.8407,1.9012,1.9887,2.1003,2.2501,0.0,0.0,0.0,0.0,0.0,0.0,0.0,0.0,0.0,0.0,0.0,0.0,0.0,0.0,0.0,0.0,0.0,0.0,0.0,3.1511,3.1511,3.1511,3.1511,3.1511,3.1511,3.1511,3.1511,3.1511,3.1511,3.1511,3.1511,3.1511,3.1511,3.1511,3.1511,3.1511,3.1511,3.1511,3.1511,3.1511,3.1511,3.1511,3.1511,3.1511,3.1511,3.1511,3.1511,3.1511,3.1511,3.1511,3.1511,3.1511,3.1511,3.1511,3.1511,3.1511,3.1511,3.1511,3.1511,3.1511,3.1511,3.1511,3.1511,3.1511,3.1511,3.1511,3.1511,3.1511,3.1511,3.1511,3.1511,3.1511,3.1511,3.1511,3.1511,3.1511,3.1511,3.1511,3.1511,3.1511,3.1511,3.1511,3.1511,3.1511,3.1511,3.1511,3.1511,3.1511,3.1511,3.1511,3.1511,3.1511,3.1511,3.1511,3.1511,3.1511,3.1511,3.1511,3.1511,3.1511,3.1511,3.1511,1.3726,1.5031,1.6097,1.6599,1.7576,1.8659,1.9458,2.0229,2.1147,0.0,0.0,0.0,0.0,0.0,0.0,0.0,0.0,0.0,0.0,0.0,0.0,0.0,0.0,0.0,0.0,0.0,0.0,0.0,0.0,3.1511,3.1511,3.1511,3.1511,3.1511,3.1511,3.1511,3.1511,3.1511,3.1511,3.1511,3.1511,3.1511,3.1511,3.1511,3.1511,3.1511,3.1511,3.1511,3.1511,3.1511,3.1511,3.1511,3.1511,3.1511,3.1511,3.1511,3.1511,3.1511,3.1511,3.1511,3.1511,3.1511,3.1511,3.1511,3.1511,3.1511,3.1511,3.1511,3.1511,3.1511,3.1511,3.1511,3.1511,3.1511,3.1511,3.1511,3.1511,3.1511,3.1511,3.1511,3.1511,3.1511,3.1511,3.1511,3.1511,3.1511,3.1511,3.1511,3.1511,3.1511,3.1511,3.1511,3.1511,3.1511,3.1511,3.1511,3.1511,3.1511,3.1511,3.1511,3.1511,3.1511,3.1511,3.1511,3.1511,3.1511,3.1511,3.1511,3.1511,3.1511,3.1511,3.1511,1.4528,1.501,1.5398,1.6748,1.7136,1.7499,1.8666,0.0,2.063,0.0,0.0,0.0,0.0,0.0,0.0,0.0,0.0,0.0,0.0,0.0,0.0,0.0,0.0,0.0,0.0,0.0,0.0,0.0,0.0,3.1511,3.1511,3.1511,3.1511,3.1511,3.1511,3.1511,3.1511,3.1511,3.1511,3.1511,3.1511,3.1511,3.1511,3.1511,3.1511,3.1511,3.1511,3.1511,3.1511,3.1511,3.1511,3.1511,3.1511,3.1511,3.1511,3.1511,3.1511,3.1511,3.1511,3.1511,3.1511,3.1511,3.1511,3.1511,3.1511,3.1511,3.1511,3.1511,3.1511,3.1511,3.1511,3.1511,3.1511,3.1511,3.1511,3.1511,3.1511,3.1511,3.1511,3.1511,3.1511,3.1511,3.1511,3.1511,3.1511,3.1511,3.1511,3.1511,3.1511,3.1511,3.1511,3.1511,3.1511,3.1511,3.1511,3.1511,3.1511,3.1511,3.1511,3.1511,3.1511,3.1511,3.1511,3.1511,3.1511,3.1511,3.1511,3.1511,3.1511,3.1511,3.1511,3.1511,1.3704,1.4688,1.5785,1.6892,1.7654,1.8466,1.9759,2.0278,2.0898,0.0,0.0,0.0,0.0,0.0,0.0,0.0,0.0,0.0,0.0,0.0,0.0,0.0,0.0,0.0,0.0,0.0,0.0,0.0,0.0,0.0,3.1511,3.1511,3.1511,3.1511,3.1511,3.1511,3.1511,3.1511,3.1511,3.1511,3.1511,3.1511,3.1511,3.1511,3.1511,3.1511,3.1511,3.1511,3.1511,3.1511,3.1511,3.1511,3.1511,3.1511,3.1511,3.1511,3.1511,3.1511,3.1511,3.1511,3.1511,3.1511,3.1511,3.1511,3.1511,3.1511,3.1511,3.1511,3.1511,3.1511,3.1511,3.1511,3.1539,3.167,3.1597,3.1539,3.167,3.1597,3.1511,3.1511,3.1511,3.1511,3.1511,3.1511,3.1511,3.1511,3.1869,3.2123,3.2123,3.2527,3.2796,3.2796,3.2796,3.2796,3.2796,3.2796,3.2796,3.2796,3.2796,3.2796,3.2796,3.2796,3.2796,3.2796,3.2796,3.2348,3.1511,3.1511,3.1511,3.1511,3.1511,3.1511,1.301,1.4114,1.5397,1.6449,1.7552,1.8655,1.9761,2.0374,2.0942,0.0,0.0,0.0,0.0,0.0,0.0,0.0,0.0,0.0,0.0,0.0,0.0,0.0,0.0,0.0,0.0,0.0,0.0,0.0,0.0,0.0,3.1511,3.1511,3.1511,3.1511,3.1511,3.1511,3.1511,3.1511,3.1511,3.1511,3.1511,3.1511,3.1511,3.1511,3.1511,3.1511,3.1511,3.1511,3.1511,3.1511,3.1511,3.1511,3.1511,3.1511,3.1511,3.1511,3.1539,3.1597,3.1597,3.1626,3.1655,3.1626,3.1597,3.1597,3.1511,3.1511,3.1511,3.1511,3.1539,3.1597,3.1597,3.1626,3.1712,3.1841,3.1712,3.1641,3.1756,3.1641,3.1511,3.1511,3.1511,3.157,3.1795,3.1839,3.1914,3.2123,3.2557,3.2841,3.2841,3.3215,3.3499,3.3499,3.3499,3.3499,3.3499,3.3499,3.3499,3.3499,3.3499,3.3499,3.3499,3.3499,3.3499,3.3499,3.3499,3.3066,3.2168,3.1944,3.1839,3.1824,3.16,3.1511,0.0,0.0,0.0,1.5469,1.6742,1.7848,1.8523,0.0,2.0643,0.0,0.0,0.0,0.0,0.0,0.0,0.0,0.0,0.0,0.0,0.0,0.0,0.0,0.0,0.0,0.0,0.0,0.0,0.0,0.0,3.1481,3.1511,3.1511,3.1511,3.1511,3.1511,3.1511,3.1511,3.1511,3.1511,3.1511,3.1511,3.1511,3.1511,3.1511,3.1511,3.1511,3.1511,3.1511,3.1511,3.1511,3.1511,3.1511,3.1496,3.1496,3.1496,3.1496,3.1641,3.1828,3.1828,3.1898,3.1968,3.1841,3.1828,3.1756,3.1568,3.1496,3.1496,3.1496,3.167,3.1828,3.1828,3.1898,3.1996,3.1981,3.1898,3.1814,3.1843,3.1715,3.1555,3.154,3.1555,3.1765,3.2437,3.2542,3.2766,3.3395,3.3514,3.3529,3.3529,3.3544,3.3559,3.3559,3.3559,3.3559,3.3559,3.3559,3.3559,3.3559,3.3559,3.3559,3.3559,3.3559,3.3559,3.3559,3.3559,3.3559,3.3559,3.2871,3.2542,3.2497,3.1854,3.157,1.2621,0.0,0.0,0.0,0.0,0.0,0.0,0.0,0.0,0.0,0.0,0.0,0.0,0.0,0.0,0.0,0.0,0.0,0.0,0.0,0.0,0.0,0.0,0.0,0.0,0.0,0.0,0.0,3.0791,3.0972,3.1481,3.1511,3.1511,3.1511,3.1511,3.1511,3.1511,3.1511,3.1511,3.1511,3.1511,3.1511,3.1511,3.1511,3.1511,3.1511,3.167,3.1727,3.1727,3.1727,3.1727,3.1727,3.1826,3.1855,3.1855,3.1855,3.1912,3.194,3.194,3.1968,3.1996,3.1968,3.194,3.194,3.1883,3.1855,3.1855,3.1855,3.1912,3.194,3.194,3.1968,3.201,3.2122,3.2317,3.2521,3.2752,3.3001,3.2976,3.2347,3.2721,3.3171,3.3231,3.3321,3.3457,3.35,3.3903,3.4234,3.4234,3.4637,3.4951,3.4951,3.4951,3.4951,3.4951,3.4951,3.4951,3.4951,3.4951,3.4951,3.4951,3.4951,3.4951,3.4951,3.4951,3.4951,3.4951,3.3784,3.3215,3.3215,3.3036,3.2961,1.2355,1.2867,1.3568,1.436,0.0,0.0,1.6817,1.7834,0.0,0.0,0.0,0.0,0.0,0.0,0.0,0.0,0.0,0.0,0.0,0.0,0.0,0.0,0.0,0.0,0.0,0.0,0.0,3.0073,3.0118,3.0402,3.1032,3.1346,3.1511,3.1511,3.1511,3.1511,3.1511,3.1511,3.1511,3.1511,3.1754,3.1754,3.1511,3.1768,3.1783,3.1626,3.1756,3.1841,3.1898,3.194,3.194,3.1898,3.1968,3.1996,3.1996,3.1996,3.2053,3.2094,3.2094,3.2122,3.2163,3.2094,3.2094,3.2066,3.2025,3.1996,3.1996,3.1996,3.2038,3.2094,3.2135,3.2377,3.2604,3.2688,3.3022,3.3378,3.3583,3.3984,3.4061,3.3291,3.3547,3.394,3.4105,3.4227,3.4348,3.4527,3.4779,3.5003,3.5003,3.5299,3.5504,3.5504,3.5504,3.5504,3.5504,3.5504,3.5504,3.5504,3.5504,3.5537,3.5572,3.5572,3.5636,3.5716,3.5716,3.5716,3.5716,3.4506,3.3769,3.3499,3.3499,3.3499,1.2089,1.2355,1.2801,0.0,0.0,0.0,1.5706,1.7134,1.8455,0.0,0.0,0.0,0.0,0.0,0.0,0.0,0.0,0.0,0.0,0.0,0.0,0.0,0.0,0.0,0.0,2.7979,2.8652,2.9337,2.9532,2.9849,3.0477,3.1062,3.1421,3.1511,3.1553,3.1582,3.1582,3.1668,3.1682,3.1682,3.2231,3.2231,3.1739,3.2287,3.2287,3.1912,3.1927,3.1968,3.2038,3.2178,3.215,3.201,3.2038,3.2038,3.2038,3.2038,3.2122,3.2219,3.2219,3.2287,3.237,3.2274,3.2219,3.2191,3.2066,3.2038,3.2038,3.2038,3.2168,3.2354,3.2478,3.3013,3.3521,3.3521,3.3928,3.4315,3.4345,3.476,3.4972,3.4379,3.4258,3.4425,3.5018,3.5124,3.5321,3.5914,3.5863,3.572,3.5688,3.5604,3.5537,3.5537,3.5537,3.5537,3.5554,3.5569,3.5569,3.5569,3.5569,3.5619,3.572,3.572,3.5831,3.5973,3.5973,3.5973,3.6005,3.5178,3.4403,3.374,3.3832,3.3832,0.0,0.0,0.0,0.0,0.0,0.0,1.5148,1.603,1.6901,0.0,0.0,0.0,0.0,0.0,0.0,0.0,0.0,0.0,0.0,0.0,0.0,0.0,0.0,0.0,0.0,2.6602,2.7285,2.7944,2.8992,2.9849,3.0477,3.0627,3.0928,3.1481,3.1966,3.2231,3.2231,3.2652,3.2879,3.2879,3.2986,3.3039,3.3024,3.3156,3.2986,3.2614,3.2722,3.2547,3.2163,3.233,3.2274,3.2163,3.2274,3.2315,3.2315,3.2315,3.2342,3.237,3.237,3.237,3.2398,3.237,3.237,3.2342,3.2315,3.2315,3.2315,3.2315,3.2742,3.3185,3.3198,3.3737,3.4289,3.4289,3.4649,3.5049,3.5216,3.5646,3.5982,3.5999,3.5891,3.5766,3.5792,3.5887,3.5964,3.599,3.5973,3.5863,3.572,3.5671,3.5671,3.5671,3.5671,3.5735,3.5893,3.5893,3.5893,3.5893,3.5893,3.591,3.5941,3.5941,3.5863,3.5752,3.5752,3.5831,3.6005,3.6292,3.6029,3.5279,3.5922,3.5907,0.0,0.0,0.0,1.2879,0.0,0.0,0.0,0.0,1.5933,1.6409,0.0,0.0,0.0,0.0,0.0,0.0,0.0,0.0,0.0,0.0,0.0,0.0,0.0,0.0,0.0,2.5628,2.6263,2.7144,2.8349,2.9238,2.9639,3.0473,3.1016,3.1144,3.1952,3.2465,3.2586,3.3066,3.3339,3.3391,3.3675,3.37,3.3521,3.3777,3.3675,3.3287,3.3365,3.3145,3.2695,3.2761,3.2586,3.233,3.237,3.2398,3.2398,3.2398,3.2398,3.2398,3.2398,3.2398,3.2398,3.2398,3.2398,3.2398,3.2398,3.2628,3.2906,3.2906,3.3398,3.3937,3.3937,3.4692,3.5365,3.5057,3.5671,3.6242,3.6045,3.6183,3.6383,3.6492,3.6414,3.632,3.6258,3.632,3.632,3.6273,3.61,3.6005,3.5943,3.5816,3.5752,3.5831,3.5863,3.5894,3.6005,3.6005,3.6005,3.6005,3.6005,3.6037,3.6085,3.6085,3.6053,3.5943,3.6053,3.6085,3.6085,3.7101,3.7145,3.6321,3.7025,3.7145,0.0,0.0,0.0,0.0,0.0,1.3994,0.0,0.0,0.0,0.0,0.0,0.0,0.0,0.0,0.0,0.0,0.0,0.0,0.0,0.0,0.0,0.0,0.0,0.0,0.0,2.4818,2.554,2.6676,2.7741,2.8475,2.8774,3.0325,3.1175,3.1124,3.2079,3.2743,3.3093,3.3563,3.3802,3.3928,3.4382,3.4358,3.3978,3.4407,3.4407,3.3987,3.3987,3.37,3.3182,3.3182,3.2933,3.2532,3.2437,3.2398,3.2398,3.2398,3.2398,3.241,3.252,3.2547,3.2574,3.2668,3.2734,3.2733,3.261,3.3144,3.3798,3.3798,3.4379,3.5038,3.5038,3.5915,3.6593,3.6007,3.6637,3.7238,3.6631,3.6492,3.6492,3.6492,3.6492,3.6492,3.6492,3.6492,3.6492,3.6492,3.6273,3.6132,3.6179,3.5975,3.5847,3.6037,3.6037,3.6068,3.61,3.6068,3.6068,3.61,3.6068,3.6085,3.6242,3.6211,3.6211,3.6274,3.6383,3.6445,3.6445,3.7677,3.7822,3.6951,3.7735,3.7994,0.0,0.0,0.0,0.0,1.3943,0.0,0.0,0.0,1.5098,1.5281,0.0,0.0,0.0,0.0,0.0,0.0,0.0,0.0,0.0,0.0,0.0,0.0,0.0,0.0,0.0,0.0,0.0,2.6512,2.7339,2.8046,2.8667,2.9864,3.107,3.2276,3.2885,3.3519,3.4219,3.4794,3.5071,3.5111,3.5158,3.5245,3.5291,3.5337,3.5118,3.4697,3.4697,3.4128,3.3182,3.3182,3.3156,3.3066,3.2602,3.2398,3.2398,3.2398,3.2398,3.2465,3.2933,3.3119,3.3198,3.3665,3.3915,3.3897,3.3444,3.4151,3.5165,3.5165,3.6059,3.6975,3.6975,3.7519,3.791,3.732,3.7294,3.7238,3.6631,3.6492,3.6492,3.6492,3.6492,3.6492,3.6492,3.6492,3.6492,3.6492,3.646,3.6383,3.6211,3.6179,3.6133,3.6179,3.6179,3.6242,3.6429,3.6274,3.6242,3.6429,3.6289,3.6274,3.646,3.6274,3.6274,3.646,3.6305,3.6569,3.7268,3.7953,3.7879,3.7131,3.8418,3.8668,0.0,0.0,0.0,0.0,0.0,0.0,1.4734,0.0,1.4982,0.0,0.0,0.0,0.0,0.0,0.0,0.0,0.0,0.0,0.0,0.0,0.0,0.0,0.0,0.0,0.0,0.0,0.0,0.0,0.0,2.771,2.8545,2.9665,3.0833,3.2015,3.286,3.3742,3.4625,3.5142,3.5429,3.5481,3.5481,3.5503,3.5549,3.5549,3.5441,3.527,3.527,3.4816,3.4144,3.4144,3.3944,3.364,3.3423,3.3319,3.3293,3.2975,3.3055,3.3371,3.3588,3.3665,3.3704,3.4,3.4702,3.5305,3.4734,3.5475,3.6488,3.6488,3.7169,3.7785,3.7434,3.7814,3.8067,3.7088,3.7164,3.7238,3.6631,3.6492,3.6492,3.6492,3.6492,3.6492,3.6492,3.6492,3.6492,3.6492,3.6383,3.6352,3.6383,3.6274,3.6242,3.6352,3.6383,3.6414,3.6492,3.6414,3.6414,3.6492,3.6414,3.6414,3.6492,3.6414,3.6352,3.6352,3.6693,3.7012,3.7237,3.8294,3.8657,3.8334,3.9295,3.9532,1.875,0.0,0.0,0.0,0.0,0.0,0.0,0.0,0.0,0.0,0.0,0.0,0.0,0.0,0.0,0.0,0.0,0.0,0.0,0.0,0.0,0.0,0.0,0.0,0.0,0.0,0.0,0.0,0.0,0.0,2.8415,2.9551,3.0688,3.1834,3.2817,3.3773,3.4722,3.5249,3.5549,3.56,3.56,3.56,3.56,3.56,3.56,3.56,3.56,3.531,3.4793,3.4793,3.4577,3.4194,3.4061,3.4185,3.4358,3.3665,3.3665,3.4052,3.4413,3.4774,3.5069,3.5019,3.5813,3.6678,3.6101,3.6803,3.7818,3.7818,3.8275,3.8657,3.8055,3.8351,3.8446,3.7058,3.7208,3.7431,3.6662,3.6631,3.6754,3.6754,3.6892,3.6997,3.6997,3.6861,3.6754,3.6754,3.6738,3.6814,3.6967,3.686,3.6814,3.6967,3.6997,3.6997,3.6997,3.6921,3.6921,3.6921,3.6967,3.6997,3.6997,3.6997,3.6921,3.6784,3.7356,3.765,3.7677,3.8712,3.9286,3.9444,3.9893,4.0096,0.0,0.0,0.0,1.9139,0.0,0.0,0.0,0.0,1.7004,0.0,0.0,0.0,0.0,0.0,0.0,0.0,0.0,0.0,0.0,0.0,0.0,0.0,0.0,0.0,0.0,0.0,0.0,0.0,0.0,0.0,2.8329,2.9475,3.0762,3.2215,3.3009,3.3774,3.4501,3.5228,3.56,3.56,3.56,3.56,3.56,3.56,3.56,3.56,3.56,3.531,3.4793,3.4793,3.4785,3.4721,3.421,3.4625,3.5424,3.4342,3.3986,3.4183,3.549,3.675,3.7677,3.717,3.7474,3.7942,3.7411,3.8133,3.9146,3.9146,3.9601,3.9901,3.9312,3.9575,3.9601,3.7812,3.7825,3.7953,3.6754,3.6952,3.7387,3.7387,3.7854,3.8222,3.8222,3.7767,3.7387,3.7387,3.7867,3.8222,3.8222,3.8222,3.8222,3.8222,3.8222,3.8222,3.8222,3.8048,3.7946,3.7946,3.8149,3.8222,3.8222,3.8222,3.8222,3.8222,3.825,3.8574,3.9109,3.9179,3.9497,4.007,4.0096,4.0096,0.0,0.0,2.0881,2.0029,0.0,0.0,0.0,0.0,0.0,0.0,0.0,0.0,0.0,0.0,0.0,0.0,0.0,0.0,0.0,0.0,0.0,0.0,0.0,0.0,0.0,0.0,0.0,0.0,0.0,0.0,0.0,2.8616,3.004,3.1532,3.2763,3.3744,3.4489,3.5228,3.56,3.56,3.56,3.56,3.56,3.56,3.56,3.56,3.56,3.5492,3.5333,3.5333,3.5333,3.5316,3.5131,3.5612,3.6247,3.4991,3.51,3.5983,3.692,3.7846,3.8543,3.7944,3.8529,3.931,3.8745,3.9139,3.9799,3.9799,3.9927,3.9969,3.9365,3.9365,3.9259,3.8238,3.8153,3.821,3.778,3.7838,3.7982,3.7982,3.8153,3.8306,3.8306,3.8463,3.8451,3.8039,3.8181,3.8306,3.8306,3.8306,3.8306,3.8306,3.8306,3.8306,3.8306,3.825,3.8206,3.8206,3.825,3.8306,3.8306,3.8306,3.8306,3.8306,3.8684,3.9001,3.9206,3.9618,3.9918,4.0096,4.0096,4.0096,2.2954,2.2636,0.0,2.1676,2.1295,0.0,2.0597,0.0,0.0,0.0,0.0,0.0,0.0,0.0,0.0,0.0,0.0,0.0,0.0,0.0,0.0,0.0,0.0,0.0,0.0,0.0,0.0,0.0,0.0,0.0,0.0,0.0,2.9262,3.0768,3.2239,3.3355,3.41,3.4844,3.5329,3.56,3.56,3.56,3.56,3.56,3.56,3.56,3.56,3.56,3.56,3.56,3.56,3.5616,3.5926,3.6332,3.6698,3.5834,3.6397,3.7635,3.8125,3.8768,3.9327,3.8924,3.9412,4.002,3.9644,3.9799,4.0096,4.0096,4.0096,3.9969,3.9365,3.9365,3.9295,3.8474,3.8446,3.8574,3.8351,3.8463,3.8629,3.8629,3.8794,3.893,3.893,3.9269,3.9312,3.8712,3.8794,3.893,3.893,3.893,3.893,3.893,3.893,3.893,3.893,3.893,3.893,3.893,3.893,3.893,3.893,3.893,3.893,3.893,3.9322,3.9523,3.9523,3.9901,4.0096,4.0096,4.0096,4.0096]}]]